[[{"header":{"parameterUnit":"m.s-1","parameterCategory":1,"la1":31.0,"la2":29.5877,"lo1":-88.7671,"lo2":-86.6584,"dy":0.0162,"dx":0.0185,"nx":115,"ny":88,"refTime":"2026-04-11T12:00:00:Z","depth":0,"parameterNumber":2,"parameterNumberName":"U-component_of_WINDS"},"data":[0.0,0.0,0.0,0.0,0.0,0.0,0.0,0.0,0.0,0.0,0.0,0.0,0.0,0.0,0.0,0.0,0.0,0.0,0.0,0.0,0.0,0.0,0.0,0.0,0.0,0.0,0.0,0.0,0.0,0.0,0.0,0.0,0.0,0.0,0.0,0.0,0.0,0.0,0.0,0.0,0.0,0.0,0.0,0.0,0.0,0.0,0.0,0.0,0.0,0.0,0.0,0.0,0.0,0.0,0.0,0.0,0.0,0.0,0.0,0.0,0.0,0.0,0.0,0.0,0.0,0.0,0.0,0.0,0.0,0.0,0.0,0.0,0.0,0.0,0.0,0.0,0.0,0.0,0.0,0.0,0.0,0.0,0.0,0.0,0.0,0.0,0.0,0.0,0.0,0.0,0.0,0.0,0.0,0.0,0.0,0.0,0.0,0.0,0.0,0.0,0.0,0.0,0.0,0.0,0.0,0.0,0.0,0.0,0.0,0.0,0.0,0.0,0.0,0.0,0.0,0.0,0.0,0.0,0.0,0.0,0.0,0.0,0.0,0.0,0.0,0.0,0.0,0.0,0.0,0.0,0.0,0.0,0.0,0.0,0.0,0.0,0.0,0.0,0.0,0.0,0.0,0.0,0.0,0.0,0.0,0.0,0.0,0.0,0.0,0.0,0.0,0.0,0.0,0.0,0.0,0.0,0.0,0.0,0.0,0.0,0.0,0.0,0.0,0.0,0.0,0.0,0.0,0.0,0.0,0.0,0.0,0.0,0.0,0.0,0.0,0.0,0.0,0.0,0.0,0.0,0.0,0.0,0.0,0.0,0.0,0.0,0.0,0.0,0.0,0.0,0.0,0.0,0.0,0.0,0.0,0.0,0.0,0.0,0.0,0.0,0.0,0.0,0.0,0.0,0.0,0.0,0.0,0.0,0.0,0.0,0.0,0.0,0.0,0.0,0.0,0.0,0.0,0.0,0.0,0.0,0.0,0.0,0.0,0.0,0.0,0.0,0.0,0.0,0.0,0.0,0.0,0.0,0.0,0.0,0.0,0.0,0.0,0.0,0.0,0.0,0.0,0.0,0.0,0.0,0.0,0.0,0.0,0.0,0.0,0.0,0.0,0.0,0.0,0.0,0.0,0.0,0.0,0.0,0.0,0.0,0.0,0.0,0.0,0.0,0.0,0.0,0.0,0.0,0.0,0.0,0.0,0.0,0.0,0.0,0.0,0.0,0.0,0.0,0.0,0.0,0.0,0.0,0.0,0.0,0.0,0.0,0.0,0.0,0.0,0.0,0.0,0.0,0.0,0.0,0.0,0.0,0.0,0.0,0.0,0.0,0.0,0.0,0.0,0.0,0.0,0.0,0.0,0.0,0.0,0.0,0.0,0.0,0.0,0.0,0.0,0.0,0.0,0.0,0.0,0.0,0.0,0.0,0.0,0.0,0.0,0.0,0.0,0.0,0.0,0.0,0.0,0.0,0.0,0.0,0.0,0.0,0.0,0.0,0.0,0.0,0.0,0.0,0.0,0.0,0.0,0.0,0.0,0.0,0.0,0.0,0.0,0.0,0.0,0.0,0.0,0.0,0.0,0.0,0.0,0.0,0.0,0.0,0.0,0.0,0.0,0.0,0.0,0.0,0.0,0.0,0.0,0.0,0.0,0.0,0.0,0.0,0.0,0.0,0.0,0.0,0.0,0.0,0.0,0.0,0.0,0.0,0.0,0.0,0.0,0.0,0.0,0.0,0.0,0.0,0.0,0.0,0.0,0.0,0.0,0.0,0.0,0.0,0.0,0.0,0.0,0.0,0.0,0.0,0.0,0.0,0.0,0.0,0.0,0.0,0.0,0.0,0.0,0.0,0.0,0.0,0.0,0.0,0.0,0.0,0.0,0.0,0.0,0.0,0.0,0.0,0.0,0.0,0.0,0.0,0.0,0.0,0.0,0.0,0.0,0.0,0.0,0.0,0.0,0.0,0.0,0.0,0.0,0.0,0.0,0.0,0.0,0.0,0.0,0.0,0.0,0.0,0.0,0.0,0.0,0.0,0.0,0.0,0.0,0.0,0.0,0.0,0.0,0.0,0.0,0.0,0.0,0.0,0.0,0.0,0.0,0.0,0.0,0.0,0.0,0.0,0.0,0.0,0.0,0.0,0.0,0.0,0.0,0.0,0.0,0.0,0.0,0.0,0.0,0.0,0.0,0.0,0.0,0.0,0.0,0.0,0.0,0.0,0.0,0.0,0.0,0.0,0.0,0.0,0.0,0.0,0.0,0.0,0.0,0.0,0.0,0.0,0.0,0.0,0.0,0.0,0.0,0.0,0.0,0.0,0.0,0.0,0.0,0.0,0.0,0.0,0.0,0.0,0.0,0.0,0.0,0.0,0.0,0.0,0.0,0.0,0.0,0.0,0.0,0.0,0.0,0.0,0.0,0.0,0.0,0.0,0.0,0.0,0.0,0.0,0.0,0.0,0.0,0.0,0.0,0.0,0.0,0.0,0.0,0.0,0.0,0.0,0.0,0.0,0.0,0.0,0.0,0.0,0.0,0.0,0.0,0.0,0.0,0.0,0.0,0.0,0.0,0.0,0.0,0.0,0.0,0.0,0.0,0.0,0.0,0.0,0.0,0.0,0.0,0.0,0.0,0.0,0.0,0.0,0.0,0.0,0.0,0.0,0.0,0.0,0.0,0.0,0.0,0.0,0.0,0.0,0.0,0.0,0.0,0.0,0.0,0.0,0.0,0.0,0.0,0.0,0.0,0.0,0.0,0.0,0.0,0.0,0.0,0.0,0.0,0.0,0.0,0.0,0.0,0.0,0.0,0.0,0.0,0.0,0.0,0.0,0.0,0.0,0.0,0.0,0.0,0.0,0.0,0.0,0.0,0.0,0.0,0.0,0.0,0.0,0.0,0.0,0.0,0.0,0.0,0.0,0.0,0.0,0.0,0.0,0.0,0.0,0.0,0.0,0.0,0.0,0.0,0.0,0.0,0.0,0.0,0.0,0.0,0.0,0.0,0.0,0.0,0.0,0.0,0.0,0.0,0.0,0.0,0.0,0.0,0.0,0.0,0.0,0.0,0.0,0.0,0.0,0.0,0.0,0.0,0.0,0.0,0.0,0.0,0.0,0.0,0.0,0.0,0.0,0.0,0.0,0.0,0.0,0.0,0.0,0.0,0.0,0.0,0.0,0.0,0.0,0.0,0.0,0.0,0.0,0.0,0.0,0.0,0.0,0.0,0.0,0.0,0.0,0.0,0.0,0.0,0.0,0.0,0.0,0.0,0.0,0.0,0.0,0.0,0.0,0.0,0.0,0.0,0.0,0.0,0.0,0.0,0.0,0.0,0.0,0.0,0.0,0.0,0.0,0.0,0.0,0.0,0.0,0.0,0.0,0.0,0.0,0.0,0.0,0.0,0.0,0.0,0.0,0.0,0.0,0.0,0.0,0.0,0.0,0.0,0.0,0.0,0.0,0.0,0.0,0.0,0.0,0.0,0.0,0.0,0.0,0.0,0.0,0.0,0.0,0.0,0.0,0.0,0.0,0.0,0.0,0.0,0.0,0.0,0.0,0.0,0.0,0.0,0.0,0.0,0.0,0.0,0.0,0.0,0.0,0.0,0.0,0.0,0.0,0.0,0.0,0.0,0.0,0.0,0.0,0.0,0.0,0.0,0.0,0.0,0.0,0.0,0.0,0.0,0.0,0.0,0.0,0.0,0.0,0.0,0.0,0.0,0.0,0.0,0.0,0.0,0.0,0.0,0.0,0.0,0.0,0.0,0.0,0.0,0.0,0.0,0.0,0.0,0.0,0.0,0.0,0.0,0.0,0.0,0.0,0.0,0.0,0.0,0.0,0.0,0.0,0.0,0.0,0.0,0.0,0.0,0.0,0.0,0.0,0.0,0.0,0.0,0.0,0.0,0.0,0.0,0.0,0.0,0.0,0.0,0.0,0.0,0.0,0.0,0.0,0.0,0.0,0.0,0.0,0.0,0.0,0.0,0.0,0.0,0.0,0.0,0.0,0.0,0.0,0.0,0.0,0.0,0.0,0.0,0.0,0.0,0.0,0.0,0.0,0.0,0.0,0.0,0.0,0.0,0.0,0.0,0.0,0.0,0.0,0.0,0.0,0.0,0.0,0.0,0.0,0.0,0.0,0.0,0.0,0.0,0.0,0.0,0.0,0.0,0.0,0.0,0.0,0.0,0.0,0.0,0.0,0.0,0.0,0.0,0.0,0.0,0.0,0.0,0.0,0.0,0.0,0.0,0.0,0.0,0.0,0.0,0.0,-1.0133,0.0,0.0,0.0,0.0,0.0,0.0,0.0,0.0,0.0,0.0,0.0,0.0,0.0,0.0,0.0,0.0,0.0,0.0,0.0,0.0,0.0,0.0,0.0,0.0,0.0,0.0,0.0,0.0,0.0,0.0,0.0,0.0,0.0,0.0,0.0,0.0,0.0,0.0,0.0,0.0,0.0,0.0,0.0,0.0,0.0,0.0,0.0,0.0,0.0,0.0,0.0,0.0,0.0,0.0,0.0,0.0,0.0,0.0,0.0,0.0,0.0,0.0,0.0,0.0,0.0,0.0,0.0,0.0,0.0,0.0,0.0,0.0,0.0,0.0,0.0,0.0,0.0,0.0,0.0,0.0,0.0,0.0,0.0,0.0,0.0,0.0,0.0,0.0,0.0,0.0,0.0,0.0,0.0,0.0,0.0,0.0,0.0,0.0,0.0,0.0,0.0,0.0,0.0,0.0,0.0,0.0,0.0,0.0,0.0,0.0,-1.0106,-1.0106,-1.0106,-1.0106,-1.0125,0.0,0.0,0.0,0.0,0.0,0.0,0.0,0.0,0.0,0.0,0.0,0.0,0.0,0.0,0.0,0.0,0.0,0.0,0.0,0.0,0.0,0.0,0.0,0.0,0.0,0.0,0.0,0.0,0.0,0.0,0.0,0.0,0.0,0.0,0.0,0.0,0.0,0.0,0.0,0.0,0.0,0.0,0.0,0.0,0.0,0.0,0.0,0.0,0.0,0.0,0.0,0.0,0.0,0.0,0.0,0.0,0.0,0.0,0.0,0.0,0.0,0.0,0.0,0.0,0.0,0.0,0.0,0.0,0.0,0.0,0.0,0.0,0.0,0.0,0.0,0.0,0.0,0.0,0.0,0.0,0.0,0.0,0.0,0.0,0.0,0.0,0.0,0.0,0.0,0.0,0.0,0.0,0.0,0.0,0.0,0.0,0.0,0.0,0.0,0.0,0.0,0.0,0.0,0.0,0.0,0.0,0.0,0.0,0.0,0.0,0.0,0.0,-1.0497,-1.0499,-1.0691,0.0,0.0,0.0,0.0,0.0,0.0,0.0,0.0,0.0,0.0,0.0,0.0,0.0,0.0,0.0,0.0,0.0,0.0,0.0,0.0,0.0,0.0,0.0,0.0,0.0,0.0,0.0,0.0,0.0,0.0,0.0,0.0,0.0,0.0,0.0,0.0,0.0,0.0,0.0,0.0,0.0,0.0,0.0,0.0,0.0,0.0,0.0,0.0,0.0,0.0,0.0,0.0,0.0,0.0,0.0,0.0,0.0,0.0,0.0,0.0,0.0,0.0,0.0,0.0,0.0,0.0,0.0,0.0,0.0,0.0,0.0,0.0,0.0,0.0,0.0,0.0,0.0,0.0,0.0,0.0,0.0,0.0,0.0,0.0,0.0,0.0,0.0,0.0,0.0,0.0,0.0,0.0,0.0,0.0,0.0,0.0,0.0,0.0,0.0,0.0,0.0,0.0,0.0,0.0,0.0,0.0,0.0,0.0,0.0,0.0,-1.1656,-1.241,-1.1676,0.0,-1.2367,0.0,0.0,0.0,0.0,0.0,0.0,0.0,0.0,0.0,0.0,0.0,0.0,0.0,0.0,0.0,0.0,0.0,0.0,0.0,0.0,0.0,0.0,0.0,0.0,0.0,0.0,0.0,0.0,0.0,0.0,0.0,0.0,0.0,0.0,0.0,0.0,0.0,0.0,0.0,0.0,0.0,0.0,0.0,0.0,0.0,0.0,0.0,0.0,0.0,0.0,0.0,0.0,0.0,0.0,0.0,0.0,0.0,0.0,0.0,0.0,0.0,0.0,0.0,0.0,0.0,0.0,0.0,0.0,0.0,0.0,0.0,0.0,0.0,0.0,0.0,0.0,0.0,0.0,0.0,0.0,0.0,0.0,0.0,0.0,0.0,0.0,0.0,0.0,0.0,0.0,0.0,0.0,0.0,0.0,0.0,0.0,0.0,0.0,0.0,0.0,0.0,0.0,0.0,0.0,0.0,0.0,0.0,0.0,0.0,0.0,-1.1568,-1.1915,-1.1576,-1.1578,0.0,0.0,0.0,0.0,0.0,0.0,0.0,0.0,0.0,0.0,0.0,0.0,0.0,0.0,0.0,0.0,0.0,0.0,0.0,0.0,0.0,0.0,0.0,0.0,0.0,0.0,0.0,0.0,0.0,0.0,0.0,0.0,0.0,0.0,0.0,0.0,0.0,0.0,0.0,0.0,0.0,0.0,0.0,0.0,0.0,0.0,0.0,0.0,0.0,0.0,0.0,0.0,0.0,0.0,0.0,0.0,0.0,0.0,0.0,0.0,0.0,0.0,0.0,0.0,0.0,0.0,0.0,0.0,0.0,0.0,0.0,0.0,0.0,0.0,0.0,0.0,0.0,0.0,0.0,0.0,0.0,0.0,0.0,0.0,0.0,0.0,0.0,0.0,0.0,0.0,0.0,0.0,0.0,0.0,0.0,0.0,0.0,0.0,0.0,0.0,0.0,0.0,0.0,0.0,0.0,0.0,0.0,0.0,0.0,0.0,-1.1463,0.0,-1.208,-1.1644,-1.1515,-1.1727,0.0,0.0,0.0,0.0,0.0,0.0,0.0,0.0,0.0,0.0,0.0,0.0,0.0,0.0,0.0,0.0,0.0,0.0,0.0,0.0,0.0,0.0,0.0,0.0,0.0,0.0,0.0,0.0,0.0,0.0,0.0,0.0,0.0,0.0,0.0,0.0,0.0,0.0,0.0,0.0,0.0,0.0,0.0,0.0,0.0,0.0,0.0,0.0,0.0,0.0,0.0,0.0,0.0,0.0,0.0,0.0,0.0,0.0,0.0,0.0,0.0,0.0,0.0,0.0,0.0,0.0,0.0,0.0,0.0,0.0,0.0,0.0,0.0,0.0,0.0,0.0,0.0,0.0,0.0,0.0,0.0,0.0,0.0,0.0,0.0,0.0,0.0,0.0,0.0,0.0,0.0,0.0,0.0,0.0,0.0,0.0,0.0,0.0,0.0,0.0,0.0,0.0,0.0,0.0,0.0,0.0,0.0,0.0,0.0,-1.2588,-1.3039,-1.3751,-1.2266,-1.1785,0.0,0.0,0.0,0.0,0.0,0.0,0.0,0.0,0.0,0.0,0.0,0.0,0.0,0.0,0.0,0.0,0.0,0.0,0.0,0.0,0.0,0.0,0.0,0.0,0.0,0.0,0.0,0.0,0.0,0.0,0.0,0.0,0.0,0.0,0.0,0.0,0.0,0.0,0.0,0.0,0.0,0.0,0.0,0.0,0.0,0.0,0.0,0.0,0.0,0.0,0.0,0.0,0.0,0.0,0.0,0.0,0.0,0.0,0.0,0.0,0.0,0.0,0.0,0.0,0.0,0.0,0.0,0.0,0.0,0.0,0.0,0.0,0.0,0.0,0.0,0.0,0.0,0.0,0.0,0.0,0.0,0.0,0.0,0.0,0.0,0.0,0.0,0.0,0.0,0.0,0.0,0.0,0.0,0.0,0.0,0.0,0.0,0.0,0.0,0.0,0.0,0.0,0.0,0.0,0.0,0.0,0.0,0.0,0.0,-1.1123,-1.1588,-1.2266,-1.3075,-1.204,-1.1599,0.0,0.0,0.0,0.0,0.0,0.0,0.0,0.0,0.0,0.0,0.0,0.0,0.0,0.0,0.0,0.0,0.0,0.0,0.0,0.0,0.0,0.0,0.0,0.0,0.0,0.0,0.0,0.0,0.0,0.0,0.0,0.0,0.0,0.0,0.0,0.0,0.0,0.0,0.0,0.0,0.0,0.0,0.0,0.0,0.0,0.0,0.0,0.0,0.0,0.0,0.0,0.0,0.0,0.0,0.0,0.0,0.0,0.0,0.0,0.0,0.0,0.0,0.0,0.0,0.0,0.0,0.0,0.0,0.0,0.0,0.0,0.0,0.0,0.0,0.0,0.0,0.0,0.0,0.0,0.0,0.0,0.0,0.0,0.0,0.0,0.0,0.0,0.0,0.0,0.0,0.0,0.0,0.0,0.0,0.0,0.0,0.0,0.0,0.0,0.0,0.0,0.0,0.0,0.0,0.0,0.0,0.0,0.0,0.0,-1.1431,0.0,-1.2357,0.0,-1.2215,-1.1638,0.0,0.0,0.0,0.0,0.0,0.0,0.0,0.0,0.0,0.0,0.0,0.0,0.0,0.0,0.0,0.0,0.0,0.0,0.0,0.0,0.0,0.0,0.0,0.0,0.0,0.0,0.0,0.0,0.0,0.0,0.0,0.0,0.0,0.0,0.0,0.0,0.0,0.0,0.0,0.0,0.0,0.0,0.0,0.0,0.0,0.0,0.0,0.0,0.0,0.0,0.0,0.0,0.0,0.0,0.0,0.0,0.0,0.0,0.0,0.0,0.0,0.0,0.0,0.0,0.0,0.0,0.0,0.0,0.0,0.0,0.0,0.0,0.0,0.0,0.0,0.0,0.0,0.0,0.0,0.0,0.0,0.0,0.0,0.0,0.0,0.0,0.0,0.0,0.0,0.0,0.0,0.0,0.0,0.0,0.0,0.0,0.0,0.0,0.0,0.0,0.0,0.0,0.0,0.0,0.0,0.0,0.0,0.0,-1.31,-1.3888,-1.3138,-1.3528,-1.5138,-1.2822,-1.1906,0.0,0.0,0.0,0.0,0.0,0.0,0.0,0.0,0.0,0.0,0.0,0.0,0.0,0.0,0.0,0.0,0.0,0.0,0.0,0.0,0.0,0.0,0.0,0.0,0.0,0.0,0.0,0.0,0.0,0.0,0.0,0.0,0.0,0.0,0.0,0.0,0.0,0.0,0.0,0.0,0.0,0.0,0.0,0.0,0.0,0.0,0.0,0.0,0.0,0.0,0.0,0.0,0.0,0.0,0.0,0.0,0.0,0.0,0.0,0.0,0.0,0.0,0.0,0.0,0.0,0.0,0.0,0.0,0.0,0.0,0.0,0.0,0.0,0.0,0.0,0.0,0.0,0.0,0.0,0.0,0.0,0.0,0.0,0.0,0.0,0.0,0.0,0.0,0.0,0.0,0.0,0.0,0.0,0.0,0.0,0.0,0.0,0.0,0.0,0.0,0.0,0.0,0.0,0.0,0.0,0.0,0.0,0.0,0.0,-1.3983,-1.4332,-1.4497,-1.4435,-1.3121,-1.2261,0.0,0.0,0.0,0.0,0.0,0.0,0.0,0.0,0.0,0.0,0.0,0.0,0.0,0.0,0.0,0.0,0.0,0.0,0.0,0.0,0.0,0.0,0.0,0.0,0.0,0.0,0.0,0.0,0.0,0.0,0.0,0.0,0.0,0.0,0.0,0.0,0.0,0.0,0.0,0.0,0.0,0.0,0.0,0.0,0.0,0.0,0.0,0.0,0.0,0.0,0.0,0.0,0.0,0.0,0.0,0.0,0.0,0.0,0.0,0.0,0.0,0.0,0.0,0.0,0.0,0.0,0.0,0.0,0.0,0.0,0.0,0.0,0.0,0.0,0.0,0.0,0.0,0.0,0.0,0.0,0.0,0.0,0.0,0.0,0.0,0.0,0.0,0.0,0.0,0.0,0.0,0.0,0.0,0.0,0.0,0.0,0.0,0.0,0.0,0.0,0.0,0.0,0.0,0.0,0.0,0.0,0.0,0.0,0.0,-1.6388,-1.6313,-1.5895,-1.5078,-1.4227,-1.3206,-1.2015,0.0,0.0,0.0,0.0,0.0,0.0,0.0,0.0,0.0,0.0,0.0,0.0,0.0,0.0,0.0,0.0,0.0,0.0,0.0,0.0,0.0,0.0,0.0,0.0,0.0,0.0,0.0,0.0,0.0,0.0,0.0,0.0,0.0,0.0,0.0,0.0,0.0,0.0,0.0,0.0,0.0,0.0,0.0,0.0,0.0,0.0,0.0,0.0,0.0,0.0,0.0,0.0,0.0,0.0,0.0,0.0,0.0,0.0,0.0,0.0,0.0,0.0,0.0,0.0,0.0,0.0,0.0,0.0,0.0,0.0,0.0,0.0,0.0,0.0,0.0,0.0,0.0,0.0,0.0,0.0,0.0,0.0,0.0,0.0,0.0,0.0,0.0,0.0,0.0,0.0,0.0,0.0,0.0,0.0,0.0,0.0,0.0,0.0,0.0,0.0,0.0,0.0,0.0,0.0,0.0,0.0,0.0,0.0,-2.0458,-1.8982,-1.779,-1.6953,-1.6025,-1.4714,0.0,0.0,0.0,0.0,0.0,0.0,0.0,0.0,0.0,0.0,0.0,0.0,0.0,0.0,0.0,0.0,0.0,0.0,0.0,0.0,0.0,0.0,0.0,0.0,0.0,0.0,0.0,0.0,0.0,0.0,0.0,0.0,0.0,0.0,0.0,0.0,0.0,0.0,0.0,0.0,0.0,0.0,0.0,0.0,0.0,0.0,0.0,0.0,0.0,0.0,0.0,0.0,0.0,0.0,0.0,0.0,0.0,0.0,0.0,0.0,0.0,0.0,0.0,0.0,0.0,0.0,0.0,0.0,0.0,0.0,0.0,0.0,0.0,0.0,0.0,0.0,0.0,0.0,0.0,0.0,0.0,0.0,0.0,0.0,0.0,0.0,0.0,0.0,0.0,0.0,0.0,0.0,0.0,0.0,0.0,0.0,0.0,0.0,0.0,0.0,0.0,0.0,0.0,0.0,0.0,0.0,0.0,0.0,0.0,-2.0345,-2.123,-2.098,-1.9539,-1.8051,-1.6426,0.0,0.0,0.0,0.0,0.0,0.0,0.0,0.0,0.0,0.0,0.0,0.0,0.0,0.0,0.0,0.0,0.0,0.0,0.0,0.0,0.0,0.0,0.0,0.0,0.0,0.0,0.0,0.0,0.0,0.0,0.0,0.0,0.0,0.0,0.0,0.0,0.0,0.0,0.0,0.0,0.0,0.0,0.0,0.0,0.0,0.0,0.0,0.0,0.0,0.0,0.0,0.0,0.0,0.0,0.0,0.0,0.0,0.0,0.0,0.0,0.0,0.0,0.0,0.0,0.0,0.0,0.0,0.0,0.0,0.0,0.0,0.0,0.0,0.0,0.0,0.0,0.0,0.0,0.0,0.0,0.0,0.0,0.0,0.0,0.0,0.0,0.0,0.0,0.0,0.0,0.0,0.0,0.0,0.0,0.0,0.0,0.0,0.0,0.0,0.0,0.0,0.0,0.0,0.0,0.0,0.0,0.0,0.0,-1.9381,-2.1455,-2.3176,-2.3261,-2.1593,-1.9528,-1.746,0.0,0.0,0.0,0.0,0.0,0.0,0.0,0.0,0.0,0.0,0.0,0.0,0.0,0.0,0.0,0.0,0.0,0.0,0.0,0.0,0.0,0.0,0.0,0.0,0.0,0.0,0.0,0.0,0.0,0.0,0.0,0.0,0.0,0.0,0.0,0.0,0.0,0.0,0.0,0.0,0.0,0.0,0.0,0.0,0.0,0.0,0.0,0.0,0.0,0.0,0.0,0.0,0.0,0.0,0.0,0.0,0.0,0.0,0.0,0.0,0.0,0.0,0.0,0.0,0.0,0.0,0.0,0.0,0.0,0.0,0.0,0.0,0.0,0.0,0.0,0.0,0.0,0.0,0.0,0.0,0.0,0.0,0.0,0.0,0.0,0.0,0.0,0.0,0.0,0.0,0.0,0.0,0.0,0.0,0.0,0.0,0.0,0.0,0.0,0.0,0.0,0.0,0.0,0.0,0.0,0.0,0.0,0.0,-2.0594,-2.3069,-2.4765,-2.4849,-2.3142,-2.076,-1.8271,0.0,0.0,0.0,0.0,0.0,0.0,0.0,0.0,0.0,0.0,0.0,0.0,0.0,0.0,0.0,0.0,0.0,0.0,0.0,0.0,0.0,0.0,0.0,0.0,0.0,0.0,0.0,0.0,0.0,0.0,0.0,0.0,0.0,0.0,0.0,0.0,0.0,0.0,0.0,0.0,0.0,0.0,0.0,0.0,0.0,0.0,0.0,0.0,0.0,0.0,0.0,0.0,0.0,0.0,0.0,0.0,0.0,0.0,0.0,0.0,0.0,0.0,0.0,0.0,0.0,0.0,0.0,0.0,0.0,0.0,0.0,0.0,0.0,0.0,0.0,0.0,0.0,0.0,0.0,0.0,0.0,0.0,0.0,0.0,0.0,0.0,0.0,0.0,0.0,0.0,0.0,0.0,0.0,0.0,0.0,0.0,0.0,0.0,0.0,0.0,0.0,0.0,0.0,0.0,0.0,0.0,0.0,0.0,-2.2065,-2.3899,-2.5647,-2.5716,-2.4063,-2.2238,-2.0029,0.0,0.0,0.0,0.0,0.0,0.0,0.0,0.0,0.0,0.0,0.0,0.0,0.0,0.0,0.0,0.0,0.0,0.0,0.0,0.0,0.0,0.0,0.0,0.0,0.0,0.0,0.0,0.0,0.0,0.0,0.0,0.0,0.0,0.0,0.0,0.0,0.0,0.0,0.0,0.0,0.0,0.0,0.0,0.0,0.0,0.0,0.0,0.0,-0.8548,0.0,0.0,0.0,0.0,0.0,0.0,0.0,0.0,0.0,0.0,0.0,0.0,0.0,0.0,0.0,0.0,0.0,0.0,0.0,0.0,0.0,0.0,0.0,0.0,0.0,0.0,0.0,0.0,0.0,0.0,0.0,0.0,0.0,0.0,0.0,0.0,0.0,0.0,0.0,0.0,0.0,0.0,0.0,0.0,0.0,0.0,0.0,0.0,0.0,0.0,0.0,0.0,0.0,0.0,0.0,0.0,0.0,0.0,0.0,-2.3104,-2.4772,-2.6486,-2.6578,-2.4944,-2.3647,-2.156,0.0,0.0,0.0,0.0,0.0,0.0,0.0,0.0,0.0,0.0,0.0,0.0,0.0,0.0,0.0,0.0,0.0,0.0,0.0,0.0,0.0,0.0,0.0,0.0,0.0,0.0,0.0,0.0,0.0,0.0,0.0,0.0,0.0,0.0,0.0,0.0,0.0,0.0,0.0,0.0,0.0,0.0,0.0,0.0,0.0,0.0,0.0,0.0,0.0,0.0,0.0,0.0,0.0,0.0,0.0,0.0,0.0,0.0,0.0,0.0,0.0,0.0,0.0,0.0,0.0,0.0,0.0,0.0,0.0,0.0,0.0,0.0,0.0,0.0,0.0,0.0,0.0,0.0,0.0,0.0,0.0,0.0,0.0,0.0,0.0,0.0,0.0,0.0,0.0,0.0,0.0,0.0,0.0,0.0,0.0,0.0,0.0,0.0,0.0,0.0,0.0,0.0,0.0,0.0,0.0,0.0,0.0,-2.144,-2.3936,-2.567,-2.7333,-2.7424,-2.5842,-2.4698,-2.2563,-1.9299,0.0,0.0,0.0,0.0,0.0,0.0,0.0,0.0,0.0,0.0,0.0,0.0,0.0,0.0,0.0,0.0,0.0,0.0,0.0,0.0,0.0,0.0,0.0,0.0,0.0,0.0,0.0,0.0,0.0,0.0,0.0,0.0,0.0,0.0,0.0,0.0,0.0,0.0,-0.6992,-0.7773,0.0,0.0,0.0,0.0,0.0,0.0,0.0,0.0,-0.7692,0.0,0.0,0.0,0.0,0.0,0.0,0.0,0.0,0.0,0.0,0.0,0.0,0.0,0.0,0.0,0.0,0.0,0.0,0.0,0.0,0.0,0.0,0.0,0.0,0.0,0.0,0.0,0.0,0.0,0.0,0.0,0.0,0.0,0.0,0.0,0.0,0.0,0.0,0.0,0.0,0.0,0.0,0.0,0.0,0.0,0.0,0.0,0.0,0.0,0.0,0.0,0.0,0.0,0.0,0.0,0.0,-1.9923,-2.2614,-2.4835,-2.6548,-2.8212,-2.8295,-2.6618,-2.4401,-2.1938,-1.9269,0.0,0.0,0.0,0.0,0.0,0.0,0.0,0.0,0.0,0.0,0.0,0.0,0.0,0.0,0.0,0.0,0.0,0.0,0.0,0.0,0.0,0.0,0.0,0.0,0.0,0.0,0.0,0.0,0.0,0.0,0.0,0.0,0.0,0.0,0.0,0.0,0.0,0.0,0.0,-0.8598,-0.9135,0.0,0.0,0.0,0.0,0.0,0.0,0.0,0.0,-0.8707,0.0,0.0,0.0,0.0,0.0,0.0,0.0,0.0,0.0,0.0,0.0,0.0,0.0,0.0,0.0,0.0,0.0,0.0,0.0,0.0,0.0,0.0,0.0,0.0,0.0,0.0,0.0,0.0,0.0,0.0,0.0,0.0,0.0,0.0,0.0,0.0,0.0,0.0,0.0,0.0,0.0,0.0,0.0,0.0,0.0,0.0,0.0,0.0,0.0,0.0,0.0,0.0,0.0,0.0,0.0,-2.0362,-2.3359,-2.5728,-2.7454,-2.9107,-2.8949,-2.6848,-2.4338,-2.1623,0.0,0.0,0.0,0.0,0.0,0.0,0.0,0.0,0.0,0.0,0.0,0.0,0.0,0.0,0.0,0.0,0.0,0.0,0.0,0.0,0.0,0.0,0.0,0.0,0.0,0.0,0.0,0.0,0.0,0.0,0.0,0.0,0.0,0.0,0.0,0.0,0.0,0.0,0.0,0.0,-0.9085,-0.958,-1.0328,0.0,0.0,0.0,0.0,0.0,0.0,-0.9016,-0.8975,0.0,0.0,0.0,0.0,0.0,0.0,0.0,0.0,0.0,0.0,0.0,0.0,0.0,0.0,0.0,0.0,0.0,0.0,0.0,0.0,0.0,0.0,0.0,0.0,0.0,0.0,0.0,0.0,0.0,0.0,0.0,0.0,0.0,0.0,0.0,0.0,0.0,0.0,0.0,0.0,0.0,0.0,0.0,0.0,0.0,0.0,0.0,0.0,0.0,0.0,0.0,0.0,0.0,0.0,0.0,-2.047,-2.3797,-2.6363,-2.8089,-2.9582,-2.9226,-2.6861,-2.419,-2.1179,0.0,0.0,0.0,0.0,0.0,0.0,0.0,0.0,0.0,0.0,0.0,0.0,0.0,0.0,0.0,0.0,0.0,0.0,0.0,0.0,0.0,0.0,0.0,0.0,0.0,0.0,0.0,0.0,0.0,0.0,0.0,0.0,0.0,0.0,0.0,0.0,0.0,0.0,0.0,0.0,0.0,-1.0219,-1.1418,-1.1147,0.0,0.0,0.0,0.0,-0.9002,-0.9291,0.0,0.0,0.0,0.0,0.0,0.0,0.0,0.0,0.0,0.0,0.0,0.0,0.0,0.0,0.0,0.0,0.0,0.0,0.0,0.0,0.0,0.0,0.0,0.0,0.0,0.0,0.0,0.0,0.0,0.0,0.0,0.0,0.0,0.0,0.0,0.0,0.0,0.0,0.0,0.0,0.0,0.0,0.0,0.0,0.0,0.0,0.0,0.0,0.0,0.0,0.0,0.0,0.0,0.0,0.0,0.0,-2.048,-2.3865,-2.6444,-2.8121,-2.9062,-2.8677,-2.6894,-2.3681,-2.0344,0.0,0.0,0.0,0.0,0.0,0.0,0.0,0.0,0.0,0.0,0.0,0.0,0.0,0.0,0.0,0.0,0.0,0.0,0.0,0.0,0.0,0.0,0.0,0.0,0.0,0.0,0.0,0.0,0.0,0.0,0.0,0.0,0.0,0.0,0.0,0.0,0.0,0.0,0.0,0.0,0.0,-1.147,-1.1582,-1.2136,-1.2296,0.0,0.0,-1.1487,-1.1397,-1.0872,0.0,0.0,0.0,0.0,0.0,0.0,0.0,0.0,0.0,0.0,0.0,0.0,0.0,0.0,0.0,0.0,0.0,0.0,0.0,0.0,0.0,0.0,0.0,0.0,0.0,0.0,0.0,0.0,0.0,0.0,0.0,0.0,0.0,0.0,0.0,0.0,0.0,0.0,0.0,0.0,0.0,0.0,0.0,0.0,0.0,0.0,0.0,0.0,0.0,0.0,0.0,0.0,0.0,0.0,0.0,-1.7081,-2.047,-2.3863,-2.6199,-2.745,-2.8734,-2.8109,-2.5487,-2.259,-1.9462,0.0,0.0,0.0,0.0,0.0,0.0,0.0,0.0,0.0,0.0,0.0,0.0,0.0,0.0,0.0,0.0,0.0,0.0,0.0,0.0,0.0,0.0,0.0,0.0,0.0,0.0,0.0,0.0,0.0,0.0,0.0,0.0,0.0,0.0,0.0,0.0,0.0,0.0,0.0,0.0,0.0,0.0,-1.2879,-1.2943,0.0,0.0,0.0,-1.3215,-1.3221,0.0,0.0,0.0,0.0,0.0,0.0,0.0,0.0,0.0,0.0,0.0,0.0,0.0,0.0,0.0,0.0,0.0,0.0,0.0,0.0,0.0,0.0,0.0,0.0,0.0,0.0,0.0,0.0,0.0,0.0,0.0,0.0,0.0,0.0,0.0,0.0,0.0,0.0,0.0,0.0,0.0,0.0,0.0,0.0,0.0,0.0,0.0,0.0,0.0,0.0,0.0,0.0,0.0,0.0,0.0,0.0,0.0,-2.0505,-2.3672,-2.5818,-2.6901,-2.792,-2.7158,-2.4383,-2.1635,0.0,0.0,0.0,0.0,0.0,0.0,0.0,0.0,0.0,0.0,0.0,0.0,0.0,0.0,0.0,0.0,0.0,0.0,0.0,0.0,0.0,0.0,0.0,0.0,0.0,0.0,0.0,-0.5006,0.0,0.0,0.0,0.0,0.0,0.0,0.0,0.0,0.0,0.0,0.0,0.0,0.0,0.0,-1.2329,-1.3915,-1.3635,-1.3715,0.0,0.0,-1.4574,-1.4349,-1.3653,-1.2624,0.0,0.0,0.0,0.0,0.0,0.0,0.0,0.0,0.0,0.0,0.0,0.0,0.0,0.0,0.0,0.0,0.0,0.0,0.0,0.0,0.0,0.0,0.0,0.0,0.0,0.0,0.0,0.0,0.0,0.0,0.0,0.0,0.0,0.0,0.0,0.0,0.0,0.0,0.0,0.0,0.0,0.0,0.0,0.0,0.0,0.0,0.0,0.0,0.0,0.0,0.0,0.0,0.0,0.0,0.0,-2.0531,-2.3155,-2.5285,-2.6901,-2.6289,-2.545,-2.4382,-2.1145,-1.814,0.0,0.0,0.0,0.0,0.0,0.0,0.0,0.0,0.0,0.0,0.0,0.0,0.0,0.0,0.0,0.0,0.0,0.0,0.0,0.0,0.0,0.0,0.0,0.0,0.0,0.0,0.0,0.0,0.0,0.0,0.0,0.0,0.0,0.0,0.0,0.0,0.0,0.0,0.0,0.0,0.0,-1.2451,-1.399,-1.4196,-1.4264,0.0,0.0,-1.5244,-1.4496,-1.3729,-1.2851,-1.1875,0.0,0.0,0.0,0.0,0.0,0.0,0.0,0.0,0.0,0.0,0.0,0.0,0.0,0.0,0.0,0.0,0.0,0.0,0.0,0.0,0.0,0.0,0.0,0.0,0.0,0.0,0.0,0.0,0.0,0.0,0.0,0.0,0.0,0.0,0.0,0.0,0.0,0.0,0.0,0.0,0.0,0.0,0.0,0.0,0.0,0.0,0.0,0.0,0.0,0.0,0.0,0.0,0.0,-1.6862,-1.9775,-2.2302,-2.3944,-2.4627,-2.4822,-2.4236,-2.2889,-2.0527,-1.8066,0.0,0.0,0.0,0.0,0.0,0.0,0.0,0.0,0.0,0.0,0.0,0.0,0.0,0.0,0.0,0.0,0.0,0.0,0.0,0.0,0.0,0.0,0.0,0.0,0.0,0.0,0.0,0.0,-0.3973,-0.422,-0.4831,0.0,0.0,0.0,0.0,0.0,0.0,0.0,0.0,0.0,0.0,-1.2587,-1.4162,-1.4393,0.0,0.0,-1.5459,-1.5569,-1.5245,-1.4075,-1.2899,-1.201,-0.9776,0.0,0.0,0.0,0.0,0.0,0.0,0.0,0.0,0.0,0.0,0.0,0.0,0.0,0.0,0.0,0.0,0.0,0.0,0.0,0.0,0.0,0.0,0.0,0.0,0.0,0.0,0.0,0.0,0.0,0.0,0.0,0.0,0.0,0.0,0.0,0.0,0.0,0.0,0.0,0.0,0.0,0.0,0.0,0.0,0.0,0.0,0.0,0.0,0.0,0.0,0.0,0.0,-1.6687,-1.9271,-2.1562,-2.2891,-2.3164,-2.3496,-2.3086,-2.1914,-2.0195,-1.8203,0.0,0.0,0.0,0.0,0.0,0.0,0.0,0.0,0.0,0.0,0.0,0.0,0.0,0.0,0.0,0.0,0.0,0.0,0.0,0.0,0.0,0.0,0.0,0.0,0.0,0.0,0.0,0.0,-0.4941,-0.5245,-0.4943,0.0,0.0,0.0,0.0,0.0,0.0,0.0,0.0,0.0,0.0,-1.308,-1.4656,-1.4871,-1.5183,-1.5968,-1.6312,-1.6299,-1.5808,-1.4715,-1.3543,-1.2408,0.0,0.0,0.0,0.0,0.0,0.0,0.0,0.0,0.0,0.0,0.0,0.0,0.0,0.0,0.0,0.0,0.0,0.0,0.0,0.0,0.0,0.0,0.0,0.0,0.0,0.0,0.0,-1.162,0.0,0.0,-1.039,0.0,0.0,0.0,0.0,0.0,0.0,0.0,0.0,0.0,0.0,0.0,0.0,0.0,0.0,0.0,0.0,0.0,0.0,0.0,0.0,0.0,0.0,-1.6668,-1.9252,-2.1015,-2.2305,-2.3008,-2.2344,-2.1934,-2.1836,-2.0215,-1.8457,-1.668,0.0,0.0,0.0,0.0,0.0,0.0,0.0,0.0,0.0,0.0,0.0,0.0,0.0,0.0,0.0,0.0,0.0,0.0,0.0,0.0,0.0,0.0,0.0,0.0,0.0,0.0,-0.6452,-0.6471,-0.6039,0.0,0.0,0.0,0.0,0.0,0.0,0.0,0.0,0.0,0.0,-1.2824,-1.3948,-1.5524,-1.5758,-1.606,-1.6818,-1.7662,-1.7668,-1.6067,-1.5649,-1.4969,0.0,0.0,0.0,0.0,0.0,0.0,0.0,0.0,0.0,0.0,0.0,0.0,0.0,0.0,0.0,0.0,0.0,0.0,0.0,0.0,0.0,0.0,0.0,0.0,0.0,0.0,0.0,-1.5249,-1.4937,0.0,0.0,0.0,0.0,0.0,0.0,0.0,0.0,0.0,0.0,0.0,-1.8866,-1.8846,0.0,0.0,0.0,0.0,0.0,0.0,0.0,0.0,0.0,0.0,0.0,0.0,-1.6414,-1.8412,-2.0155,-2.1172,-2.1426,-2.1172,-2.1016,-2.1016,-1.9902,-1.8202,-1.5897,0.0,0.0,0.0,0.0,0.0,0.0,0.0,0.0,0.0,0.0,0.0,0.0,0.0,0.0,0.0,0.0,0.0,0.0,0.0,0.0,0.0,0.0,0.0,0.0,0.0,-0.6405,0.0,0.0,0.0,0.0,0.0,0.0,0.0,0.0,0.0,0.0,0.0,-1.1397,-1.2774,-1.3257,-1.405,-1.5644,-1.633,-1.6781,0.0,0.0,0.0,0.0,0.0,0.0,0.0,0.0,0.0,0.0,0.0,0.0,0.0,0.0,-1.2926,-1.1826,-1.0988,-1.0013,-0.8706,0.0,0.0,0.0,0.0,0.0,0.0,0.0,0.0,0.0,0.0,0.0,0.0,0.0,0.0,-1.7883,0.0,-1.7004,0.0,0.0,0.0,0.0,0.0,0.0,0.0,0.0,-2.152,-2.1931,-2.1912,-2.1913,-2.2226,0.0,-2.4238,-2.3301,0.0,0.0,0.0,0.0,0.0,0.0,0.0,0.0,-1.7157,-1.89,-2.0605,-2.1465,-2.1445,-2.1191,-2.1055,-2.1035,-1.9921,-1.8377,-1.6364,-1.5192,-1.3924,0.0,0.0,0.0,0.0,0.0,0.0,0.0,0.0,0.0,0.0,0.0,0.0,0.0,0.0,0.0,0.0,0.0,0.0,0.0,0.0,0.0,0.0,0.0,-0.7487,0.0,0.0,0.0,0.0,0.0,0.0,0.0,0.0,0.0,-1.0951,-1.1662,-1.259,-1.3659,-1.4357,-1.5239,-1.6539,0.0,0.0,0.0,0.0,0.0,0.0,0.0,-1.6243,-1.5912,-1.547,-1.5139,-1.5094,-1.5172,-1.5341,-1.5592,0.0,0.0,-1.3478,-1.2593,-1.1642,-1.0337,-1.0825,-1.1157,-1.0194,-1.074,-1.1421,0.0,0.0,0.0,0.0,0.0,0.0,0.0,0.0,-2.0847,-2.0378,0.0,-1.9636,0.0,0.0,0.0,0.0,0.0,-2.0309,0.0,0.0,-2.4137,-2.4528,-2.4509,-2.453,-2.539,-2.7031,-2.7851,-2.7793,-2.6738,-2.2832,0.0,0.0,0.0,0.0,0.0,0.0,-1.8879,-2.0543,-2.2187,-2.3086,-2.3047,-2.2324,-2.1914,-2.1855,-2.0234,-1.8924,-1.8043,-1.6461,-1.5095,-1.4139,-1.2617,0.0,0.0,0.0,0.0,0.0,0.0,0.0,0.0,0.0,0.0,0.0,0.0,0.0,0.0,0.0,0.0,0.0,0.0,0.0,0.0,-0.9143,0.0,0.0,0.0,0.0,0.0,0.0,0.0,0.0,0.0,0.0,-1.1298,-1.3127,-1.4608,-1.4682,0.0,0.0,0.0,0.0,-1.9683,-1.9664,-2.0325,-2.0248,-1.8603,-1.8195,-1.7811,-1.7031,0.0,0.0,-1.7595,-1.6818,-1.6474,-1.7083,-1.6557,-1.5791,-1.5003,-1.4176,-1.3313,-1.2396,-1.2245,-1.2313,-1.2286,-1.2198,-1.2459,-3.0273,0.0,0.0,0.0,0.0,-2.4223,-2.4595,-2.5161,-2.5161,-2.5025,-2.479,-2.479,0.0,0.0,0.0,0.0,0.0,0.0,-2.4254,-2.5914,-2.6774,-2.7185,-2.7167,-2.7187,-2.7441,-2.7969,-2.8828,-2.8789,-2.7891,-2.6699,-2.4297,-2.076,0.0,0.0,0.0,0.0,-1.9468,-2.0623,-2.2304,-2.3164,-2.3105,-2.2871,-2.248,-2.1914,-2.0819,-1.9822,-1.894,-1.8451,-1.7202,-1.5133,-1.4567,0.0,0.0,0.0,0.0,0.0,0.0,0.0,0.0,0.0,0.0,0.0,0.0,0.0,0.0,0.0,0.0,0.0,0.0,0.0,-0.844,-1.0035,-1.0417,0.0,0.0,0.0,0.0,0.0,0.0,0.0,0.0,0.0,-1.4644,-1.4617,-1.5099,0.0,0.0,-1.8265,-1.91,-2.0418,-2.1328,-2.1309,-2.1495,0.0,-2.0985,-2.0286,-1.9908,-2.0225,-2.0308,-2.0101,-1.9331,-1.8943,-1.8563,-1.8089,-1.736,-1.6767,-1.6432,-1.5305,-1.3998,-1.2759,-1.2802,-1.2958,-1.2504,-1.2747,-1.3108,-3.529,-3.1719,-3.0178,-2.924,-2.877,-2.8752,-2.9064,-2.9533,-2.9533,-2.9533,-2.9513,-2.9163,-2.7954,-2.6119,-2.5455,0.0,0.0,0.0,-2.722,-2.8548,-2.9098,-2.949,-2.9784,-2.9824,-3.0019,-3.0351,-3.0859,-3.0684,-2.9844,-2.9844,-2.8379,-2.541,0.0,0.0,-2.0035,-2.0544,-2.1247,-2.2127,-2.3476,-2.416,-2.4141,-2.3789,-2.3066,-2.1932,-2.1385,-2.072,-1.9857,-1.9484,-1.841,-1.6517,-1.5756,-1.4313,0.0,0.0,0.0,0.0,0.0,0.0,0.0,0.0,0.0,0.0,0.0,-0.5242,-0.5592,0.0,0.0,0.0,-0.7947,-0.9123,-1.0307,-1.1314,0.0,0.0,0.0,0.0,0.0,0.0,0.0,-1.4035,-1.5628,-1.6782,-1.7045,-1.6852,-1.7043,-1.7963,-1.8798,-1.9583,-2.0444,0.0,-2.2367,-2.2052,-2.2274,-2.2359,-2.2039,-2.1485,-2.1322,-2.2097,-2.179,-2.1287,-2.0667,-2.0221,-1.9585,-1.8655,-1.8021,-1.7553,-1.72,-1.629,-1.526,-1.4058,-1.4152,-1.4272,-1.3877,-1.4084,-1.4314,-3.9214,-3.7594,-3.5231,-3.3982,-3.3611,-3.3611,-3.365,-3.3709,-3.3709,-3.3709,-3.363,-3.2812,-3.1856,-3.08,-2.9219,0.0,-2.9788,-2.9812,-3.0242,-3.1101,-3.1109,-3.1483,-3.2206,-3.2265,-3.2656,-3.3281,-3.332,-3.2891,-3.207,-3.207,-3.168,-3.0781,-2.6093,-2.3631,-2.3415,-2.3338,-2.371,-2.4491,-2.5351,-2.584,-2.5898,-2.498,-2.373,-2.2167,-2.197,-2.1442,-2.0521,-1.9736,-1.8857,-1.7903,-1.6361,-1.5075,-1.4101,0.0,0.0,0.0,0.0,0.0,0.0,0.0,0.0,0.0,0.0,0.0,0.0,0.0,0.0,0.0,-0.9555,0.0,-1.2666,-1.291,0.0,0.0,0.0,-1.2828,-1.2903,-1.4275,-1.5233,-1.5306,0.0,0.0,-1.8748,-1.9446,-1.9926,-1.9896,-2.0547,-2.1254,-2.1996,-2.2757,-2.3036,-2.2394,-2.2831,-2.3027,-2.25,-2.2255,-2.2391,-2.2977,-2.2346,-2.1726,-2.1443,-2.0716,-1.9783,-1.8774,-1.8497,-1.8203,-1.7404,-1.7166,-1.6898,-1.6174,-1.5907,-1.5838,-1.5734,-1.569,-1.5624,-4.2533,-4.2144,-4.1518,-3.9,-3.5426,-3.5387,-3.5758,-3.6364,-3.6364,-3.6364,-3.6325,-3.5467,-3.3846,-3.1738,-3.0684,-3.0684,-3.1505,-3.1489,-3.198,-3.2782,-3.2809,-3.2909,-3.3085,-3.3105,-3.2891,-3.25,-3.248,-3.2051,-3.125,-3.1191,-3.1094,-3.084,-2.9648,-2.8066,-2.6113,-2.541,-2.5176,-2.5391,-2.625,-2.7012,-2.7617,-2.6191,-2.4883,-2.3827,-2.2577,-2.1169,-1.9681,-1.9427,-1.8585,-1.71,-1.6612,-1.5695,-1.4176,-1.2945,0.0,0.0,0.0,0.0,0.0,0.0,0.0,0.0,0.0,-0.7412,-0.8255,0.0,-0.9641,0.0,-1.2713,-1.3988,-1.3728,-1.4845,0.0,0.0,-1.4637,-1.4844,-1.5487,-1.6458,-1.7301,-1.7922,-1.945,-2.0523,-2.0655,-2.1265,-2.1902,-2.2471,-2.2592,-2.272,-2.2924,-2.3665,-2.4119,-2.3933,-2.4026,-2.4119,-2.3944,-2.3879,-2.3899,-2.4105,-2.3396,-2.2579,-2.1786,-2.087,-1.9912,-1.8921,-1.8619,-1.8413,-1.8078,-1.8,-1.7917,-1.7624,-1.6725,-1.5889,-1.5889,-1.5861,-1.5824,-4.3705,-4.3705,-4.3705,-4.2045,-3.9408,-3.9019,-3.9115,-3.9546,-3.9156,-3.9214,-3.9527,-3.9057,-3.7614,-3.5525,-3.5036,-3.4881,-3.498,-3.4982,-3.5042,-3.514,-3.5148,-3.4936,-3.4566,-3.4549,-3.412,-3.3319,-3.2909,-3.2284,-3.1484,-3.1444,-3.164,-3.1991,-3.201,-3.1092,-2.9296,-2.7656,-2.6875,-2.6855,-2.7324,-2.7812,-2.8242,-2.6973,-2.5664,-2.4433,-2.3124,-2.1442,-1.9369,-1.9289,-1.8683,-1.7372,-1.7275,-1.6671,-1.5327,-1.4467,-1.3453,0.0,0.0,0.0,0.0,0.0,0.0,0.0,0.0,0.0,0.0,0.0,-1.1452,-1.3061,-1.4493,-1.54,-1.5664,-1.6534,-1.6896,-1.6454,-1.6383,-1.6543,-1.7042,-1.7815,-1.8496,-1.8932,-2.0454,-2.1609,-2.189,-2.2808,-2.3761,-2.449,-2.4449,-2.4185,-2.3888,-2.4212,-2.45,-2.4518,-2.4797,-2.5039,-2.5039,-2.4723,-2.45,-2.4454,-2.4076,-2.3322,-2.2045,-2.1302,-2.0427,-1.9093,-1.8676,-1.852,-1.8329,-1.8284,-1.8253,-1.8101,-1.7545,-1.6984,-1.6932,-1.6888,-1.6875,-4.4133,-4.4037,-4.4036,-4.4036,-4.3977,-4.3118,-4.2611,-4.2337,-4.1479,-4.1537,-4.224,-4.224,-4.1283,-3.9663,-3.9644,-3.9136,-3.8279,-3.8279,-3.7867,-3.7165,-3.7132,-3.6726,-3.6024,-3.6009,-3.5561,-3.4682,-3.3804,-3.2945,-3.2125,-3.2105,-3.2554,-3.3354,-3.3393,-3.3022,-3.2182,-2.9843,-2.8515,-2.8301,-2.8515,-2.8633,-2.8613,-2.7676,-2.6347,-2.4647,-2.361,-2.1851,-1.929,-1.9247,-1.8855,-1.79,-1.7958,-1.7609,-1.6752,-1.5873,-1.4703,0.0,-1.3047,0.0,0.0,0.0,0.0,0.0,0.0,0.0,0.0,-1.2258,-1.3242,-1.5446,-1.5734,-1.6426,-1.7987,-1.8239,-1.8335,-1.8435,-1.8451,-1.8413,-1.8335,-1.8974,-1.9435,-1.9435,-2.0814,-2.203,-2.2819,-2.4173,-2.5336,-2.5804,-2.5687,-2.5418,-2.4954,-2.4657,-2.45,-2.4518,-2.5076,-2.5392,-2.554,-2.5094,-2.4704,-2.4685,-2.4493,-2.3866,-2.2379,-2.1683,-2.0861,-1.9246,-1.8678,-1.854,-1.8319,-1.8242,-1.8252,-1.8355,-1.8228,-1.808,-1.808,-1.8062,-1.82,-4.6456,-4.5812,-4.5812,-4.5812,-4.5714,-4.4875,-4.3702,-4.2337,-4.1479,-4.1187,-4.1343,-4.1343,-4.0426,-3.8864,-3.8845,-3.7985,-3.65,-3.65,-3.6402,-3.6247,-3.6235,-3.616,-3.6004,-3.6009,-3.5541,-3.4682,-3.3823,-3.2964,-3.2104,-3.2104,-3.2534,-3.3373,-3.3393,-3.3315,-3.3061,0.0,0.0,0.0,-2.9685,-3.0408,-3.0351,-2.8866,-2.7205,-2.5486,-2.3923,0.0,-1.8487,-1.8934,-1.8582,-1.7079,-1.7606,0.0,0.0,0.0,0.0,0.0,0.0,0.0,0.0,0.0,0.0,0.0,-1.7947,-1.7061,-1.5863,-1.6306,-1.687,-1.7375,-1.7995,-1.88,-1.9819,-2.0563,-2.1224,-2.1855,-2.1913,-2.1685,-2.1066,-2.1108,-2.1201,-2.1224,-2.2077,-2.2948,-2.3768,-2.5113,-2.6045,-2.6211,-2.5963,-2.6009,-2.6432,-2.5344,-2.4555,-2.4537,-2.4853,-2.5039,-2.5615,-2.5596,-2.5485,-2.5401,-2.489,-2.4139,-2.3122,-2.1674,-2.041,-1.9155,-1.8734,-1.8577,-1.8329,-1.82,-1.8469,-1.8993,-1.8631,-1.82,-1.82,-1.82,-1.82,-4.6064,0.0,-4.5656,-4.5656,0.0,-4.4719,-4.3606,-4.2376,-4.1927,-4.1752,-4.1771,-4.2202,-4.1441,-3.9801,-3.9372,-3.8258,-3.6636,-3.6187,-3.6012,-3.6031,-3.6447,-3.6643,-3.6662,-3.7076,-3.6589,-3.532,-3.4461,-3.3581,-3.2761,-3.2742,-3.3191,-3.4031,-3.4051,-3.3816,-3.3347,-3.1708,-3.0226,-2.896,-3.023,-3.0915,-3.0838,-2.9197,-2.7692,-2.6345,-2.4234,0.0,0.0,0.0,0.0,0.0,0.0,0.0,0.0,0.0,0.0,-1.5501,-1.5775,-1.6402,-1.7284,-1.8554,-1.9843,-2.1113,-2.119,-2.009,-1.7504,-1.7658,-1.8067,-1.8474,-1.9259,-2.0266,-2.1507,-2.242,-2.3097,-2.348,-2.3538,-2.3213,-2.2462,-2.2284,-2.2284,-2.2381,-2.3028,-2.3833,-2.4651,-2.6039,-2.7084,-2.7395,-2.6899,-2.6608,-2.6839,-2.5929,-2.5336,-2.6089,-2.5885,-2.5977,-2.6646,-2.6507,-2.6293,-2.6182,-2.5615,-2.4816,-2.3989,-2.2676,-2.1393,-2.0373,-2.0008,-1.9785,-1.9552,-1.9484,-1.9589,-1.9891,-1.9712,-1.9274,-1.8929,-1.8501,-1.82,-4.5148,-4.4972,-4.4836,-4.4855,-4.4933,-4.4075,-4.3196,-4.2396,0.0,0.0,0.0,-4.3157,-4.2591,-4.1051,-4.019,-3.8882,-3.7262,-3.6383,-3.6012,-3.6051,-3.689,-3.7301,-3.734,-3.8181,-3.777,-3.6226,-3.5349,-3.4491,-3.3651,-3.3632,-3.3905,-3.4432,-3.4471,-3.3944,-3.2928,-3.1522,-3.0415,-2.9681,-3.0463,-3.0894,-3.0857,-2.9351,-2.8042,-2.7028,-2.4759,-2.2706,-2.0886,-2.0281,-1.9831,-1.9538,-1.9675,-1.9616,-1.9323,-1.9284,-1.866,-1.7335,-1.798,-1.8901,-1.99,-2.076,-2.1874,-2.332,-2.3515,-2.222,-1.905,-1.8825,-1.9085,-1.9716,-2.0435,-2.1495,-2.2984,-2.3735,-2.4254,-2.4409,-2.4428,-2.408,-2.329,-2.3136,-2.3136,-2.3213,-2.3751,-2.4509,-2.529,-2.6549,-2.7704,-2.8089,-2.7418,-2.7089,-2.6983,-2.6263,-2.6089,-2.7241,-2.6999,-2.7055,-2.7575,-2.7483,-2.7139,-2.7092,-2.6442,-2.5643,-2.4817,-2.3765,-2.273,-2.1789,-2.1565,-2.144,-2.1334,-2.1333,-2.1311,-2.1271,-2.1099,-2.081,-2.0225,-1.9228,-1.8439,-4.5675,-4.4953,-4.4192,-4.4309,-4.4933,-4.4075,-4.3196,-4.2337,-4.1615,-4.1713,-4.2396,-4.2533,-4.2045,-4.1051,-4.019,-3.8882,-3.7282,-3.6383,-3.6012,-3.6051,-3.691,-3.7301,-3.736,-3.8201,-3.8082,-3.7106,-3.6246,-3.5368,-3.4608,-3.453,-3.4217,-3.3671,-3.3593,-3.2791,-3.1269,-3.0917,-3.0392,-2.9634,-3.0394,-3.0845,-3.087,-2.9932,-2.8643,-2.7042,-2.5909,-2.4189,-2.1841,-2.2232,-2.1901,-2.0535,-2.1139,-2.0865,-1.9401,-1.9343,-1.9187,-1.8992,-1.9754,-2.0908,-2.2454,-2.3373,-2.398,-2.4238,-2.4902,-2.449,-2.26,-2.2363,-2.2394,-2.2452,-2.2491,-2.3001,-2.3892,-2.4168,-2.4583,-2.5198,-2.5314,-2.4966,-2.4118,-2.4022,-2.4022,-2.4022,-2.4118,-2.4536,-2.5335,-2.6227,-2.685,-2.682,-2.6701,-2.6571,-2.6927,-2.6346,-2.6144,-2.6832,-2.6981,-2.6944,-2.7222,-2.7631,-2.778,-2.7929,-2.7148,-2.6293,-2.555,-2.4254,-2.3206,-2.2786,-2.2765,-2.2857,-2.3185,-2.3297,-2.3235,-2.3122,-2.2647,-2.2197,-2.2253,-2.0743,-1.9089,-4.509,-4.4289,-4.386,-4.3645,-4.3528,-4.2651,-4.2064,-4.1654,-4.1285,-4.1324,-4.1674,-4.1713,-4.1205,-4.0366,-3.9507,-3.8473,-3.7262,-3.6402,-3.6246,-3.6753,-3.7594,-3.824,-3.8726,-3.9548,-3.9255,-3.8024,-3.7614,-3.6716,-3.5506,-3.5408,-3.4958,-3.4081,-3.3183,-3.2304,-3.1543,-3.1036,-3.0625,-3.0274,-3.0605,-3.0628,-3.0204,-2.9792,-2.8991,-2.7726,-2.6435,-2.4948,-2.3325,-2.3149,-2.274,-2.1999,-2.2329,-2.2193,-2.1432,-2.1353,-2.1354,-2.1374,-2.1725,-2.2508,-2.3722,-2.4605,-2.5095,-2.5136,-2.5918,-2.6093,-2.5288,-2.4341,-2.3598,-2.3153,-2.3422,-2.4041,-2.4826,-2.5294,-2.572,-2.6083,-2.6145,-2.5816,-2.5082,-2.4908,-2.4908,-2.4892,-2.4911,-2.5043,-2.5418,-2.6165,-2.6646,-2.6591,-2.6431,-2.656,-2.7218,-2.6903,-2.7003,-2.8044,-2.8285,-2.8023,-2.7668,-2.7836,-2.791,-2.7538,-2.6776,-2.6163,-2.5717,-2.4865,-2.4478,-2.4339,-2.4529,-2.4886,-2.5125,-2.511,-2.5077,-2.501,-2.4675,-2.4189,-2.3265,-2.1202,-1.9271,-4.4484,-4.3705,-4.3469,-4.2903,-4.2064,-4.1382,-4.1109,-4.1109,-4.1109,-4.1109,-4.1109,-4.1109,-4.0717,-4.0054,-3.9235,-3.8494,-3.7809,-3.6968,-3.6949,-3.7633,-3.8474,-3.9216,-3.9839,-4.0678,-4.0231,-3.8767,-3.8611,-3.7692,-3.6187,-3.6012,-3.5446,-3.4334,-3.2656,-3.1816,-3.1777,-3.1153,-3.0703,-3.0548,-3.0722,-3.0413,-2.9617,-2.9419,-2.8988,-2.8271,-2.6803,-2.559,-2.473,-2.4048,-2.3599,-2.3404,-2.3404,-2.3306,-2.3131,-2.3287,-2.3482,-2.3657,-2.3873,-2.4363,-2.5205,-2.5894,-2.6287,-2.6287,-2.7089,-2.75,-2.7207,-2.6072,-2.4929,-2.4201,-2.4412,-2.4874,-2.5418,-2.5975,-2.6428,-2.6439,-2.6416,-2.6107,-2.5604,-2.5507,-2.5507,-2.5507,-2.5507,-2.5488,-2.5627,-2.6048,-2.6449,-2.6598,-2.6532,-2.6777,-2.752,-2.7694,-2.8199,-2.9119,-2.9502,-2.9003,-2.8301,-2.8096,-2.7761,-2.7018,-2.6256,-2.5847,-2.568,-2.5644,-2.5708,-2.5688,-2.636,-2.6812,-2.6911,-2.6958,-2.6863,-2.665,-2.6296,-2.5596,-2.3561,-2.1767,-1.9757,-4.4504,-4.3647,-4.2942,-4.2006,-4.1343,-4.1168,-4.1148,-4.1129,-4.1109,-4.1109,-4.1109,-4.1109,-4.107,-4.0875,-4.0054,-3.9624,-3.9468,-3.8728,-3.8415,-3.8591,-3.9331,-3.9741,-3.9917,-4.0698,-4.0211,-3.8786,-3.865,-3.777,-3.6129,-3.5953,-3.5133,-3.3513,-3.1776,-3.0956,-3.0917,-3.0859,-3.0431,-2.9749,-3.0431,-3.0411,-2.9592,-2.883,-2.8381,-2.8304,-2.7406,-2.6469,-2.5629,-2.5512,-2.5081,-2.4379,-2.4339,-2.3949,-2.3365,-2.3871,-2.4652,-2.5414,-2.6176,-2.7016,-2.7797,-2.8015,-2.7979,-2.8115,-2.8786,-2.8944,-2.8261,-2.8027,-2.7556,-2.6699,-2.5928,-2.5505,-2.5582,-2.5654,-2.5695,-2.5727,-2.5751,-2.5565,-2.555,-2.5507,-2.5507,-2.5507,-2.5507,-2.5507,-2.553,-2.57,-2.5989,-2.6694,-2.6867,-2.7421,-2.8683,-2.8784,-2.8946,-2.9618,-2.9682,-2.9109,-2.8303,-2.8096,-2.7594,-2.6935,-2.6182,-2.5699,-2.5569,-2.5717,-2.5866,-2.646,-2.7406,-2.8069,-2.855,-2.8916,-2.8511,-2.7738,-2.7215,-2.6423,-2.395,-2.2626,-2.152,-4.5265,-4.4445,-4.4092,-4.343,-4.2632,-4.2084,-4.1869,-4.183,-4.1304,-4.1109,-4.1109,-4.1109,-4.1109,-4.109,-4.0717,-4.0561,-4.0542,-4.0231,-4.0094,-4.0094,-4.0446,-4.0581,-4.06,-4.0914,-4.0444,-3.939,-3.9312,-3.8414,-3.6774,-3.5231,-3.4079,-3.3299,-3.1659,-3.08,-3.08,-3.08,-3.0392,-2.9651,-3.0392,-3.0645,-3.0313,-2.9961,-2.9552,-2.9103,-2.8714,-2.7855,-2.6703,-2.6937,-2.6839,-2.6078,-2.6409,-2.6545,-2.6195,-2.6506,-2.6859,-2.7229,-2.7561,-2.7932,-2.8263,-2.8288,-2.8289,-2.8289,-2.9098,-2.9432,-2.91,-2.9082,-2.8886,-2.8393,-2.6817,-2.5641,-2.5641,-2.5557,-2.5512,-2.5563,-2.5917,-2.6048,-2.5546,-2.5952,-2.6048,-2.5623,-2.5507,-2.5507,-2.5584,-2.5913,-2.6524,-2.7314,-2.7807,-2.8777,-3.0296,-3.0142,-3.0081,-3.055,-3.027,-2.9172,-2.7923,-2.7466,-2.6907,-2.5856,-2.5216,-2.5001,-2.515,-2.594,-2.6535,-2.6869,-2.7966,-2.8771,-2.9034,-2.9189,-2.9008,-2.8429,-2.77,-2.68,-2.5549,-2.4058,-2.2628,-4.5792,-4.5031,-4.4738,-4.427,-4.3647,-4.2767,-4.2396,-4.2279,-4.1461,-4.1109,-4.1109,-4.1109,-4.1109,-4.1109,-4.1109,-4.1109,-4.1109,-4.1109,-4.1109,-4.1109,-4.1109,-4.1109,-4.1109,-4.1109,-4.0639,-3.9917,-3.978,-3.8921,-3.7184,-3.4959,-3.3632,-3.3201,-3.1895,-3.1036,-3.082,-3.08,-3.0509,-3.0079,-3.0723,-3.1172,-3.1192,-3.1386,-3.0997,-3.0022,-2.9475,-2.8519,-2.7113,-2.7835,-2.7893,-2.7055,-2.7835,-2.8282,-2.8302,-2.8518,-2.8752,-2.8966,-2.8986,-2.8985,-2.8986,-2.8989,-2.8971,-2.905,-2.9603,-2.9958,-2.9958,-2.996,-2.9941,-2.9805,-2.8221,-2.7097,-2.6378,-2.6279,-2.624,-2.6262,-2.6912,-2.6993,-2.6099,-2.6579,-2.6652,-2.5724,-2.5507,-2.5507,-2.5623,-2.6165,-2.7015,-2.8156,-2.9108,-3.0264,-3.1646,-3.1573,-3.1332,-3.1744,-3.1023,-2.9542,-2.7636,-2.712,-2.6264,-2.5131,-2.4574,-2.4648,-2.4797,-2.6089,-2.7111,-2.7427,-2.8626,-2.9246,-2.9235,-2.9211,-2.9145,-2.8865,-2.8227,-2.7414,-2.6775,-2.4999,-2.3806,-4.5792,-4.4951,-4.4114,-4.3881,-4.3666,-4.2845,-4.2454,-4.2513,-4.1537,-4.1148,-4.1168,-4.1109,-4.1109,-4.1109,-4.1109,-4.1109,-4.1109,-4.1109,-4.1109,-4.1109,-4.1109,-4.1109,-4.1109,-4.109,-4.0659,-3.9956,-3.9917,-3.9058,-3.7379,-3.5545,-3.4217,-3.3416,-3.2461,-3.1602,-3.0976,-3.0839,-3.0781,-3.0743,-3.1582,-3.2032,-3.2129,-3.285,-3.2459,-3.0956,-2.9298,-2.8147,-2.725,-2.7874,-2.7932,-2.7055,-2.7932,-2.838,-2.842,-2.9123,-2.9845,-3.0488,-3.0625,-3.0625,-3.0586,-3.0548,-3.0548,-3.0627,-3.0632,-3.083,-3.0831,-3.0834,-3.0875,-3.0855,-3.0663,-2.9882,-2.8613,-2.8216,-2.8065,-2.8046,-2.8708,-2.8415,-2.6978,-2.7593,-2.714,-2.6033,-2.5743,-2.582,-2.5685,-2.6203,-2.7634,-2.9012,-3.0056,-3.1265,-3.268,-3.2977,-3.2843,-3.2622,-3.1869,-3.0403,-2.7934,-2.7349,-2.6485,-2.5501,-2.5121,-2.489,-2.5596,-2.6358,-2.7148,-2.7891,-2.8783,-2.9264,-2.9286,-2.924,-2.9123,-2.8938,-2.8743,-2.814,-2.7599,-2.584,-2.4736,-4.6082,-4.5802,-4.5498,-4.5363,-4.5265,-4.4426,-4.4055,-4.3918,-4.2533,-4.1927,-4.183,-4.1342,-4.1109,-4.1109,-4.1109,-4.1109,-4.1109,-4.1109,-4.1109,-4.1109,-4.1109,-4.1109,-4.1109,-4.1109,-4.0973,-4.0678,-4.0639,-4.0054,-3.8765,-3.6638,-3.5387,-3.4763,-3.3046,-3.1934,-3.1602,-3.1075,-3.08,-3.0937,-3.2167,-3.2947,-3.2986,-3.3788,-3.3905,-3.328,-3.1641,-2.9807,-2.7893,-2.9142,-2.9259,-2.7894,-2.9142,-2.9902,-2.9941,-3.0196,-3.0468,-3.0742,-3.08,-3.08,-3.08,-3.08,-3.08,-3.0801,-3.0846,-3.116,-3.1532,-3.1671,-3.1888,-3.2339,-3.2478,-3.209,-3.156,-3.0572,-2.9843,-2.992,-3.0468,-3.03,-2.9078,-2.9139,-2.9012,-2.7542,-2.7101,-2.7101,-2.7256,-2.8296,-2.9607,-3.0772,-3.2087,-3.33,-3.4248,-3.429,-3.3754,-3.3652,-3.2955,-3.1787,-3.0296,-2.8698,-2.7609,-2.6764,-2.6254,-2.6265,-2.6702,-2.7232,-2.7966,-2.817,-2.8932,-2.9312,-2.9334,-2.9229,-2.9141,-2.9033,-2.8827,-2.8628,-2.8257,-2.6531,-2.5739,-4.6215,-4.626,-4.6296,-4.6302,-4.6184,-4.5363,-4.5012,-4.4797,-4.3157,-4.2396,-4.222,-4.1479,-4.1109,-4.1168,-4.1381,-4.1518,-4.148,-4.1246,-4.1109,-4.1109,-4.1109,-4.1109,-4.1109,-4.1109,-4.1109,-4.1051,-4.0795,-4.0346,-3.9605,-3.7534,-3.6324,-3.5836,-3.3905,-3.2636,-3.2109,-3.1502,-3.113,-3.1166,-3.2256,-3.3074,-3.3422,-3.4222,-3.4671,-3.4454,-3.3246,-3.13,-2.8868,-2.9826,-2.9767,-2.8752,-2.9902,-3.08,-3.08,-3.08,-3.08,-3.08,-3.08,-3.0937,-3.1172,-3.1231,-3.1347,-3.162,-3.1702,-3.1959,-3.2485,-3.2782,-3.3233,-3.3702,-3.4135,-3.4255,-3.4042,-3.3164,-3.2276,-3.1913,-3.233,-3.2065,-3.0531,-3.0687,-2.9986,-2.8382,-2.7875,-2.7933,-2.8146,-2.9263,-3.0308,-3.1308,-3.2687,-3.3847,-3.4543,-3.4408,-3.3947,-3.3848,-3.3287,-3.2628,-3.1752,-3.0662,-2.9429,-2.8508,-2.7792,-2.7755,-2.7819,-2.8301,-2.843,-2.8597,-2.8847,-2.9209,-2.9323,-2.9229,-2.9163,-2.9096,-2.8996,-2.8817,-2.8143,-2.7283,-2.6452,-4.6157,-4.6206,-4.6273,-4.6277,-4.6197,-4.5455,-4.5067,-4.4811,-4.3308,-4.2682,-4.2641,-4.1651,-4.1395,-4.1399,-4.2098,-4.2414,-4.2275,-4.1711,-4.1381,-4.1381,-4.1324,-4.1265,-4.1246,-4.1246,-4.1187,-4.107,-4.0288,-3.9917,-3.9819,-3.8277,-3.7048,-3.6148,-3.5213,-3.3827,-3.2208,-3.2103,-3.1606,-3.1189,-3.1746,-3.2515,-3.33,-3.4118,-3.4603,-3.452,-3.3687,-3.2125,-2.9819,-2.9745,-2.9413,-2.8789,-3.0,-3.08,-3.1015,-3.1034,-3.0937,-3.1034,-3.0937,-3.1289,-3.1993,-3.2109,-3.2441,-3.2928,-3.326,-3.3202,-3.3457,-3.4023,-3.4513,-3.4768,-3.5319,-3.585,-3.5791,-3.558,-3.4941,-3.3814,-3.4035,-3.369,-3.2391,-3.184,-3.0912,-2.8797,-2.83,-2.8088,-2.8262,-2.9166,-3.0153,-3.0888,-3.1715,-3.2565,-3.3378,-3.3416,-3.3183,-3.312,-3.3086,-3.2877,-3.2781,-3.2557,-3.1428,-3.0373,-2.9701,-2.9344,-2.9339,-2.9587,-2.9072,-2.9109,-2.9396,-2.9702,-2.945,-2.9376,-2.9391,-2.9318,-2.9167,-2.9005,-2.8397,-2.7651,-2.6782,-4.6059,-4.6138,-4.6216,-4.6212,-4.6189,-4.5936,-4.5838,-4.5702,-4.4587,-4.4136,-4.3964,-4.3203,-4.2819,-4.2849,-4.3131,-4.3253,-4.3251,-4.296,-4.2852,-4.2882,-4.2884,-4.2513,-4.2043,-4.1967,-4.1674,-4.1148,-4.0855,-4.0698,-4.0464,-3.9525,-3.8843,-3.8336,-3.6558,-3.5076,-3.3865,-3.2741,-3.1654,-3.0934,-3.1598,-3.2141,-3.2461,-3.3783,-3.4522,-3.4441,-3.3692,-3.2801,-3.2101,-3.1025,-3.031,-3.0025,-3.1103,-3.1967,-3.2439,-3.2576,-3.2596,-3.2596,-3.2596,-3.2655,-3.2928,-3.3007,-3.3105,-3.3377,-3.3416,-3.3729,-3.4198,-3.4549,-3.4998,-3.5447,-3.5863,-3.6004,-3.6005,-3.6009,-3.5701,-3.5233,-3.5362,-3.4755,-3.3041,-3.1835,-3.0754,-3.005,-2.9785,-2.9785,-2.9901,-3.0443,-3.0907,-3.125,-3.2024,-3.2701,-3.2952,-3.2914,-3.3111,-3.3079,-3.3114,-3.3143,-3.3212,-3.3393,-3.302,-3.2115,-3.1486,-3.079,-3.0764,-3.0418,-2.9903,-2.9704,-2.9991,-3.001,-2.9739,-2.9625,-2.9704,-2.9542,-2.9407,-2.9134,-2.8827,-2.8186,-2.7395,-4.5969,-4.6042,-4.6074,-4.6095,-4.6095,-4.6095,-4.6076,-4.5959,-4.5172,-4.4802,-4.4604,-4.3868,-4.3533,-4.3617,-4.3877,-4.4061,-4.4159,-4.4376,-4.4535,-4.4409,-4.3834,-4.3212,-4.2392,-4.2002,-4.1651,-4.1183,-4.1046,-4.1068,-4.1007,-4.0227,-3.9759,-3.9349,-3.7533,-3.5992,-3.5053,-3.3455,-3.2087,-3.1337,-3.1369,-3.1607,-3.2078,-3.3234,-3.4145,-3.432,-3.3934,-3.3692,-3.3561,-3.2359,-3.1562,-3.1462,-3.2111,-3.2865,-3.3357,-3.3357,-3.3396,-3.3396,-3.3416,-3.3513,-3.3827,-3.3905,-3.4061,-3.4275,-3.4372,-3.4587,-3.5076,-3.5174,-3.5485,-3.5876,-3.6016,-3.6019,-3.6021,-3.6003,-3.6008,-3.6012,-3.5937,-3.5148,-3.3553,-3.2316,-3.1278,-3.0826,-3.0543,-3.0612,-3.0757,-3.0946,-3.1347,-3.1463,-3.1831,-3.2179,-3.2159,-3.2126,-3.2183,-3.2303,-3.2383,-3.275,-3.3557,-3.3993,-3.4405,-3.3856,-3.3216,-3.2487,-3.2037,-3.1341,-3.0737,-3.0551,-3.0697,-3.0734,-3.0501,-3.0341,-3.029,-2.999,-2.9839,-2.9553,-2.9349,-2.8915,-2.817,-4.5822,-4.5886,-4.5892,-4.5894,-4.5894,-4.5914,-4.5914,-4.5778,-4.5087,-4.4752,-4.4577,-4.4092,-4.3753,-4.3901,-4.4565,-4.4896,-4.5055,-4.5562,-4.5776,-4.5425,-4.4577,-4.3502,-4.2714,-4.1822,-4.1315,-4.1198,-4.1046,-4.0968,-4.0929,-4.0244,-3.9776,-3.9663,-3.8163,-3.6874,-3.593,-3.4293,-3.2895,-3.2,-3.1204,-3.1181,-3.17,-3.2657,-3.3469,-3.4209,-3.4373,-3.4444,-3.4315,-3.3718,-3.2967,-3.2402,-3.3136,-3.3701,-3.3628,-3.3551,-3.3706,-3.3766,-3.3591,-3.4061,-3.4588,-3.4764,-3.5037,-3.5641,-3.5719,-3.6012,-3.5875,-3.5836,-3.5875,-3.5992,-3.6012,-3.6013,-3.6013,-3.6013,-3.6014,-3.5996,-3.5856,-3.5036,-3.3693,-3.3222,-3.2234,-3.1088,-3.0694,-3.0552,-3.0491,-3.054,-3.0636,-3.0578,-3.0675,-3.0888,-3.0675,-3.0728,-3.0583,-3.0806,-3.1221,-3.1948,-3.2648,-3.3569,-3.4007,-3.4256,-3.3859,-3.3446,-3.2815,-3.2081,-3.1496,-3.1347,-3.144,-3.1422,-3.1255,-3.1028,-3.1047,-3.1054,-3.0768,-3.0288,-2.9941,-2.9664,-2.9177,-4.5769,-4.5819,-4.5822,-4.5822,-4.5822,-4.5822,-4.5822,-4.5803,-4.559,-4.5409,-4.5409,-4.5273,-4.5118,-4.5298,-4.5507,-4.5687,-4.5745,-4.5906,-4.5993,-4.5861,-4.551,-4.478,-4.3802,-4.2475,-4.1775,-4.1697,-4.1138,-4.0846,-4.0827,-4.0574,-4.0457,-4.0438,-3.8844,-3.7907,-3.737,-3.5262,-3.3701,-3.2721,-3.184,-3.1137,-3.1031,-3.2233,-3.3017,-3.3332,-3.4501,-3.5098,-3.5201,-3.5065,-3.4651,-3.4053,-3.4759,-3.5251,-3.5141,-3.5129,-3.5098,-3.5144,-3.5248,-3.5348,-3.5543,-3.5621,-3.5778,-3.5953,-3.6012,-3.6012,-3.6012,-3.6012,-3.6012,-3.6012,-3.6012,-3.6012,-3.6012,-3.6012,-3.6012,-3.5916,-3.5557,-3.4941,-3.4195,-3.3122,-3.2143,-3.1602,-3.1006,-3.0416,-2.9982,-3.0196,-3.0327,-2.9983,-3.0153,-3.0424,-3.0153,-2.994,-3.0071,-2.9761,-3.0061,-3.0873,-3.1722,-3.2753,-3.3542,-3.4141,-3.4084,-3.3922,-3.3259,-3.2567,-3.2085,-3.177,-3.2307,-3.2462,-3.1979,-3.1578,-3.1775,-3.1942,-3.1273,-3.066,-3.0898,-3.078,-3.0331,-4.5687,-4.5711,-4.5715,-4.5723,-4.5723,-4.5704,-4.5704,-4.5704,-4.5704,-4.5704,-4.5704,-4.5723,-4.5749,-4.5827,-4.5873,-4.5904,-4.5923,-4.5923,-4.5867,-4.5801,-4.5691,-4.5213,-4.4278,-4.2848,-4.2059,-4.1962,-4.1186,-4.0798,-4.0765,-4.0759,-4.0765,-4.0532,-3.946,-3.866,-3.8035,-3.61,-3.4244,-3.3076,-3.2144,-3.1264,-3.0602,-3.1692,-3.2506,-3.3026,-3.4276,-3.5071,-3.5406,-3.5546,-3.5392,-3.5227,-3.5534,-3.5837,-3.5864,-3.5885,-3.5919,-3.5953,-3.5986,-3.5992,-3.6012,-3.6012,-3.6012,-3.6012,-3.6012,-3.6012,-3.6012,-3.6012,-3.6012,-3.6012,-3.6012,-3.6012,-3.6012,-3.6012,-3.6012,-3.5935,-3.553,-3.509,-3.4706,-3.3472,-3.2529,-3.1917,-3.1177,-3.0303,-2.9442,-3.0083,-3.0031,-2.9771,-3.0133,-3.0192,-3.0099,-2.9906,-2.979,-2.9727,-2.9916,-3.0849,-3.1795,-3.2808,-3.3867,-3.4411,-3.4583,-3.4373,-3.3807,-3.3185,-3.3012,-3.2873,-3.3257,-3.3336,-3.2846,-3.2448,-3.2332,-3.2202,-3.1533,-3.1459,-3.1752,-3.1648,-3.1218,-4.5594,-4.5594,-4.5594,-4.5594,-4.5603,-4.5594,-4.5612,-4.5603,-4.5612,-4.5612,-4.5612,-4.5603,-4.5662,-4.5719,-4.5798,-4.58,-4.58,-4.5787,-4.5749,-4.5708,-4.5605,-4.5271,-4.4636,-4.3278,-4.2582,-4.2337,-4.1351,-4.0945,-4.0907,-4.081,-4.0675,-4.0443,-3.9799,-3.9103,-3.8246,-3.6612,-3.4915,-3.356,-3.2471,-3.1574,-3.0948,-3.1462,-3.216,-3.2968,-3.4064,-3.4885,-3.5335,-3.5534,-3.5581,-3.5654,-3.5693,-3.5745,-3.5787,-3.5862,-3.5892,-3.5914,-3.5933,-3.5983,-3.5988,-3.5986,-3.5989,-3.5989,-3.601,-3.6012,-3.6012,-3.6012,-3.6012,-3.6012,-3.6012,-3.6012,-3.6012,-3.6012,-3.6012,-3.5992,-3.5955,-3.5572,-3.4801,-3.3926,-3.3098,-3.2328,-3.1471,-3.038,-2.997,-2.9981,-3.0324,-3.0041,-3.0424,-3.0772,-3.0772,-3.0714,-3.054,-3.0346,-3.067,-3.113,-3.2062,-3.2974,-3.4052,-3.4898,-3.5071,-3.4939,-3.4405,-3.3989,-3.399,-3.4038,-3.4009,-3.4015,-3.392,-3.3543,-3.3055,-3.292,-3.2567,-3.2648,-3.2785,-3.234,-3.189,-4.5594,-4.5594,-4.5594,-4.5594,-4.5594,-4.5594,-4.5594,-4.5594,-4.5594,-4.5594,-4.5594,-4.5594,-4.564,-4.5679,-4.5708,-4.5731,-4.5731,-4.5712,-4.5684,-4.5629,-4.5612,-4.5526,-4.5153,-4.419,-4.3824,-4.34,-4.2237,-4.1601,-4.1435,-4.0872,-4.0549,-4.0441,-3.987,-3.9252,-3.8777,-3.7313,-3.6015,-3.4854,-3.3442,-3.2249,-3.1525,-3.1596,-3.216,-3.3006,-3.4391,-3.5199,-3.5417,-3.552,-3.5521,-3.5534,-3.5585,-3.5645,-3.5717,-3.5783,-3.5802,-3.582,-3.5872,-3.5931,-3.5921,-3.5929,-3.5956,-3.5983,-3.6009,-3.6012,-3.6012,-3.6012,-3.6012,-3.6012,-3.6012,-3.6031,-3.6109,-3.6051,-3.609,-3.6129,-3.607,-3.572,-3.483,-3.3939,-3.3535,-3.3317,-3.2009,-3.0642,-3.0321,-3.0427,-3.056,-3.0446,-3.0873,-3.1429,-3.1545,-3.155,-3.1275,-3.1009,-3.1231,-3.1652,-3.2285,-3.3255,-3.4378,-3.5115,-3.5316,-3.5395,-3.4886,-3.4606,-3.4548,-3.4531,-3.4529,-3.4509,-3.4405,-3.3795,-3.3131,-3.3354,-3.3557,-3.3403,-3.3206,-3.2853,-3.2723,-4.5594,-4.5594,-4.5594,-4.5594,-4.5594,-4.5594,-4.5594,-4.5594,-4.5594,-4.5594,-4.5594,-4.5594,-4.5622,-4.5648,-4.5654,-4.5643,-4.5643,-4.5643,-4.5637,-4.5603,-4.5594,-4.5594,-4.5556,-4.5124,-4.4739,-4.4143,-4.2585,-4.1893,-4.1585,-4.0989,-4.0504,-4.0496,-4.0054,-3.9369,-3.8777,-3.7738,-3.6411,-3.4968,-3.4045,-3.2968,-3.1929,-3.2102,-3.2679,-3.3526,-3.4757,-3.55,-3.5481,-3.55,-3.55,-3.5501,-3.5534,-3.557,-3.5632,-3.5684,-3.5717,-3.5764,-3.5783,-3.5837,-3.5858,-3.588,-3.5919,-3.5953,-3.5965,-3.601,-3.6012,-3.6012,-3.6012,-3.6012,-3.6051,-3.6109,-3.6539,-3.6617,-3.6617,-3.6597,-3.6597,-3.6207,-3.5331,-3.4206,-3.3315,-3.3183,-3.1792,-3.0753,-3.0382,-3.0945,-3.0953,-3.0936,-3.1932,-3.2486,-3.2478,-3.2401,-3.1947,-3.1724,-3.1835,-3.214,-3.2657,-3.3555,-3.4743,-3.5249,-3.5432,-3.5469,-3.5256,-3.5108,-3.4996,-3.4926,-3.4811,-3.4691,-3.4496,-3.384,-3.3518,-3.3747,-3.3864,-3.378,-3.3577,-3.3224,-3.3299,-4.5594,-4.5594,-4.5594,-4.5594,-4.5594,-4.5594,-4.5594,-4.5594,-4.5594,-4.5594,-4.5594,-4.5594,-4.5594,-4.5594,-4.5594,-4.5594,-4.5594,-4.5603,-4.5594,-4.5594,-4.5594,-4.5594,-4.5575,-4.546,-4.5171,-4.4335,-4.2893,-4.2162,-4.1835,-4.1027,-4.0516,-4.0496,-4.0496,-3.9592,-3.8373,-3.7911,-3.6853,-3.4911,-3.4282,-3.343,-3.2295,-3.2545,-3.3218,-3.4083,-3.4968,-3.5462,-3.55,-3.55,-3.55,-3.55,-3.55,-3.5534,-3.5554,-3.5581,-3.5618,-3.5689,-3.5697,-3.5717,-3.5779,-3.5833,-3.5867,-3.5877,-3.5939,-3.5968,-3.5989,-3.601,-3.6012,-3.609,-3.6187,-3.6656,-3.736,-3.7516,-3.7497,-3.7458,-3.7399,-3.6833,-3.5818,-3.4437,-3.3604,-3.312,-3.2539,-3.1674,-3.1481,-3.1767,-3.1573,-3.1667,-3.2725,-3.3491,-3.3505,-3.3373,-3.304,-3.2638,-3.2725,-3.2938,-3.3421,-3.4054,-3.5198,-3.5548,-3.5681,-3.574,-3.5726,-3.5739,-3.5618,-3.5162,-3.4982,-3.4898,-3.4726,-3.4317,-3.4147,-3.4259,-3.4146,-3.3976,-3.378,-3.3577,-3.3763,-4.5594,-4.5594,-4.5594,-4.5594,-4.5594,-4.5594,-4.5594,-4.5594,-4.5594,-4.5594,-4.5594,-4.5594,-4.5594,-4.5594,-4.5594,-4.5594,-4.5594,-4.5594,-4.5594,-4.5594,-4.5594,-4.5594,-4.5594,-4.5594,-4.546,-4.4998,-4.3739,-4.2893,-4.2412,-4.1381,-4.0573,-4.0496,-4.0439,-3.9554,-3.8411,-3.7892,-3.7046,-3.5334,-3.4622,-3.3737,-3.3045,-3.2929,-3.3449,-3.4276,-3.5122,-3.5442,-3.55,-3.55,-3.55,-3.55,-3.55,-3.5507,-3.554,-3.5579,-3.5589,-3.5604,-3.5612,-3.564,-3.5712,-3.5775,-3.5845,-3.5875,-3.5914,-3.5955,-3.5981,-3.6087,-3.6226,-3.6402,-3.6832,-3.7438,-3.8279,-3.8298,-3.8337,-3.822,-3.7614,-3.6716,-3.5428,-3.4785,-3.4669,-3.4635,-3.3784,-3.2871,-3.2711,-3.2778,-3.3032,-3.3295,-3.4105,-3.4805,-3.5038,-3.4818,-3.4473,-3.4057,-3.3673,-3.3905,-3.4239,-3.4872,-3.564,-3.59,-3.6084,-3.6259,-3.6299,-3.6421,-3.6243,-3.5764,-3.5316,-3.5115,-3.4895,-3.4661,-3.4574,-3.4555,-3.4378,-3.4183,-3.4032,-3.3904,-3.3949,-4.5594,-4.5594,-4.5594,-4.5594,-4.5594,-4.5594,-4.5594,-4.5594,-4.5594,-4.5594,-4.5594,-4.5594,-4.5594,-4.5594,-4.5594,-4.5594,-4.5594,-4.5594,-4.5594,-4.5594,-4.5594,-4.5594,-4.5594,-4.5594,-4.5594,-4.5267,-4.4344,-4.3451,-4.297,-4.1316,-4.0631,-4.04,-4.0131,-3.9227,-3.8142,-3.7488,-3.6712,-3.5596,-3.5045,-3.443,-3.3641,-3.3571,-3.4007,-3.4757,-3.5218,-3.5462,-3.55,-3.55,-3.55,-3.55,-3.55,-3.55,-3.5552,-3.5592,-3.5586,-3.5605,-3.5566,-3.5577,-3.564,-3.5693,-3.5741,-3.5838,-3.5897,-3.5897,-3.607,-3.6375,-3.6811,-3.7321,-3.7594,-3.8316,-3.9097,-3.8864,-3.863,-3.8454,-3.7828,-3.6735,-3.5779,-3.5428,-3.5563,-3.5759,-3.4402,-3.3512,-3.3554,-3.3827,-3.4426,-3.5018,-3.558,-3.6016,-3.6421,-3.6176,-3.5797,-3.4909,-3.4429,-3.4543,-3.4839,-3.54,-3.5974,-3.624,-3.6692,-3.6868,-3.6921,-3.7077,-3.68,-3.6313,-3.5921,-3.5622,-3.5187,-3.4982,-3.4925,-3.4831,-3.4612,-3.4412,-3.4337,-3.4274,-3.4257,-4.5594,-4.5594,-4.5594,-4.5594,-4.5594,-4.5594,-4.5594,-4.5594,-4.5594,-4.5594,-4.5594,-4.5594,-4.5594,-4.5594,-4.5594,-4.5594,-4.5594,-4.5594,-4.5594,-4.5594,-4.5594,-4.5594,-4.5594,-4.5594,-4.5594,-4.546,-4.4671,-4.397,-4.3239,-4.17,-4.0912,-4.0566,-3.9892,-3.8854,-3.8046,-3.7238,-3.6308,-3.5731,-3.5462,-3.5077,-3.4603,-3.416,-3.4468,-3.5442,-3.5635,-3.5769,-3.5827,-3.6135,-3.618,-3.618,-3.6135,-3.6096,-3.6019,-3.6,-3.6,-3.5962,-3.5712,-3.556,-3.5566,-3.562,-3.5683,-3.5769,-3.6027,-3.6111,-3.6397,-3.7078,-3.7878,-3.8624,-3.886,-3.9193,-3.98,-3.9333,-3.8982,-3.8668,-3.7985,-3.6989,-3.6265,-3.5817,-3.5582,-3.5292,-3.4378,-3.4305,-3.4506,-3.5113,-3.5761,-3.6132,-3.6693,-3.7066,-3.7388,-3.7358,-3.6837,-3.5693,-3.5107,-3.5134,-3.54,-3.5787,-3.6284,-3.6613,-3.7323,-3.7872,-3.7803,-3.7771,-3.7411,-3.7127,-3.6773,-3.6467,-3.5882,-3.53,-3.5113,-3.4954,-3.4791,-3.4666,-3.4561,-3.4461,-3.4393,-4.5594,-4.5594,-4.5575,-4.5594,-4.5537,-4.5518,-4.5575,-4.5556,-4.5556,-4.5594,-4.5594,-4.5594,-4.5594,-4.5594,-4.5594,-4.5594,-4.5594,-4.5594,-4.5594,-4.5594,-4.5594,-4.5594,-4.5594,-4.5594,-4.5594,-4.5498,-4.4786,-4.4316,-4.3739,-4.2431,-4.1623,-4.1277,-4.0008,-3.89,-3.82,-3.7199,-3.6308,-3.5654,-3.5481,-3.5385,-3.5077,-3.3949,-3.4218,-3.5308,-3.6115,-3.6519,-3.6615,-3.7058,-3.743,-3.7507,-3.7584,-3.7661,-3.77,-3.77,-3.7719,-3.7276,-3.6488,-3.5501,-3.5682,-3.5855,-3.5929,-3.6158,-3.6511,-3.6837,-3.7274,-3.784,-3.8707,-3.9557,-3.9624,-3.9831,-4.0286,-3.9937,-3.9702,-3.8921,-3.7926,-3.6949,-3.6207,-3.5992,-3.5797,-3.5641,-3.4999,-3.537,-3.5706,-3.6428,-3.7094,-3.7415,-3.7752,-3.8123,-3.8245,-3.8107,-3.7637,-3.6444,-3.5771,-3.5761,-3.5523,-3.5982,-3.6571,-3.6953,-3.769,-3.8554,-3.871,-3.8595,-3.8428,-3.8119,-3.7688,-3.7069,-3.6416,-3.5848,-3.5392,-3.5266,-3.5296,-3.5068,-3.4788,-3.4666,-3.455,-4.4855,-4.4816,-4.4374,-4.4182,-4.4239,-4.4671,-4.4863,-4.4979,-4.5402,-4.5594,-4.5594,-4.5594,-4.5594,-4.5594,-4.5594,-4.5594,-4.5594,-4.5594,-4.5594,-4.5594,-4.5594,-4.5594,-4.5594,-4.5594,-4.5594,-4.5498,-4.5267,-4.5133,-4.4393,-4.3028,-4.1816,-4.1623,-4.0239,-3.9188,-3.8681,-3.7392,-3.6673,-3.6019,-3.5411,-3.5084,-3.5064,-3.4487,-3.443,-3.6058,-3.65,-3.6923,-3.745,-3.7719,-3.7988,-3.8007,-3.8007,-3.7988,-3.7988,-3.7969,-3.7969,-3.7911,-3.7392,-3.6976,-3.6978,-3.6934,-3.689,-3.703,-3.7439,-3.7856,-3.8356,-3.884,-3.9504,-4.0407,-4.0038,-4.0055,-4.001,-3.9117,-3.8609,-3.8024,-3.7458,-3.6871,-3.6168,-3.609,-3.5914,-3.5797,-3.5778,-3.6207,-3.6636,-3.7165,-3.7891,-3.8582,-3.8823,-3.9082,-3.8938,-3.8569,-3.7951,-3.7063,-3.6606,-3.6367,-3.596,-3.5926,-3.6753,-3.7246,-3.7715,-3.858,-3.9392,-3.9457,-3.9013,-3.8453,-3.7784,-3.7244,-3.6818,-3.675,-3.6634,-3.6273,-3.588,-3.5558,-3.523,-3.4869,-3.4658,-4.3645,-4.3615,-4.325,-4.3085,-4.3143,-4.3758,-4.4143,-4.4412,-4.497,-4.5383,-4.5575,-4.5594,-4.5594,-4.5594,-4.5594,-4.5594,-4.5594,-4.5594,-4.5594,-4.5594,-4.5594,-4.5594,-4.5594,-4.5594,-4.5594,-4.5594,-4.5518,-4.5479,-4.4893,-4.3739,-4.2604,-4.2335,-4.0989,-4.0135,-3.9492,-3.8389,-3.7305,-3.6505,-3.5058,-3.4795,-3.5154,-3.4629,-3.5218,-3.6199,-3.6962,-3.7411,-3.818,-3.8649,-3.8719,-3.8738,-3.8796,-3.8873,-3.8834,-3.8892,-3.8854,-3.8854,-3.8642,-3.8642,-3.8419,-3.8234,-3.8101,-3.8111,-3.8447,-3.8789,-3.9587,-3.9882,-4.0065,-4.082,-4.0513,-4.0114,-3.9572,-3.8525,-3.7962,-3.7437,-3.6695,-3.6285,-3.6012,-3.5992,-3.6031,-3.6031,-3.6226,-3.6931,-3.736,-3.7809,-3.8573,-3.9574,-3.9951,-4.0074,-3.9725,-3.9213,-3.8714,-3.8007,-3.7497,-3.7109,-3.6513,-3.6433,-3.708,-3.7403,-3.7873,-3.8353,-3.9011,-3.9256,-3.8967,-3.8408,-3.7887,-3.8112,-3.8119,-3.8021,-3.7884,-3.7237,-3.6618,-3.6105,-3.5687,-3.5331,-3.4954,-4.1893,-4.194,-4.2742,-4.3008,-4.3008,-4.3143,-4.3585,-4.4085,-4.4316,-4.4913,-4.5547,-4.5586,-4.5586,-4.5586,-4.5577,-4.5577,-4.5586,-4.5594,-4.5577,-4.5577,-4.5594,-4.5577,-4.5568,-4.5577,-4.5577,-4.5586,-4.5568,-4.5577,-4.5393,-4.4635,-4.4085,-4.3874,-4.2203,-4.1706,-4.096,-3.9684,-3.7974,-3.6798,-3.5166,-3.4795,-3.5084,-3.4949,-3.5199,-3.6584,-3.7526,-3.8315,-3.9161,-3.9727,-4.0015,-4.0015,-3.9958,-3.9958,-3.9881,-3.99,-3.9881,-3.9881,-3.99,-3.99,-3.9738,-3.8977,-3.8234,-3.8322,-3.8813,-3.958,-4.0261,-4.0571,-4.0805,-4.082,-4.0548,-4.0312,-3.9741,-3.8941,-3.7819,-3.7259,-3.6578,-3.5992,-3.5856,-3.5992,-3.6051,-3.6168,-3.6617,-3.7282,-3.8063,-3.8492,-3.9117,-4.0078,-4.0491,-4.0597,-4.0409,-3.9995,-3.9708,-3.9156,-3.8539,-3.7923,-3.717,-3.7144,-3.7186,-3.7279,-3.7577,-3.7956,-3.8373,-3.8483,-3.8419,-3.8587,-3.8246,-3.8844,-3.9308,-3.902,-3.8605,-3.7957,-3.741,-3.7064,-3.6604,-3.6211,-3.5761,-4.1675,-4.1696,-4.1585,-4.1506,-4.1553,-4.2069,-4.2462,-4.2912,-4.3855,-4.4761,-4.5531,-4.5522,-4.5513,-4.5495,-4.5485,-4.5485,-4.5485,-4.5485,-4.5485,-4.5485,-4.5485,-4.5485,-4.5485,-4.5485,-4.5476,-4.5485,-4.5485,-4.5504,-4.5445,-4.5089,-4.5108,-4.4542,-4.3342,-4.2746,-4.1942,-4.0811,-3.8919,-3.7045,-3.5748,-3.5288,-3.5276,-3.5365,-3.5795,-3.7392,-3.8334,-3.9169,-3.9919,-4.0285,-4.0458,-4.0489,-4.0489,-4.0489,-4.0481,-4.0489,-4.0489,-4.0469,-4.045,-4.0412,-4.0431,-3.9815,-3.9573,-3.9588,-3.9906,-4.0232,-4.0588,-4.0636,-4.07,-4.066,-4.0432,-4.0136,-3.9753,-3.8553,-3.742,-3.712,-3.6695,-3.6087,-3.5835,-3.6048,-3.5875,-3.5914,-3.6714,-3.7536,-3.8375,-3.9195,-3.9858,-4.0543,-4.086,-4.106,-4.0797,-4.0371,-3.9919,-3.9579,-3.8957,-3.8155,-3.7354,-3.7186,-3.7124,-3.7143,-3.723,-3.7447,-3.7647,-3.7502,-3.7535,-3.7961,-3.8444,-3.8779,-3.9128,-3.9554,-3.9398,-3.8875,-3.8527,-3.8262,-3.7733,-3.7062,-3.6668,-4.1287,-4.1203,-4.0663,-4.0458,-4.0587,-4.1165,-4.1585,-4.2047,-4.3316,-4.456,-4.5485,-4.5485,-4.5438,-4.541,-4.541,-4.541,-4.5419,-4.5419,-4.541,-4.541,-4.5419,-4.541,-4.541,-4.541,-4.5438,-4.541,-4.541,-4.5438,-4.5504,-4.5466,-4.5418,-4.5044,-4.4411,-4.3894,-4.3309,-4.1745,-3.9769,-3.807,-3.6768,-3.6253,-3.6272,-3.633,-3.6791,-3.8174,-3.89,-3.9562,-4.0157,-4.0465,-4.0473,-4.0484,-4.0476,-4.0468,-4.0468,-4.0468,-4.0476,-4.0399,-4.0246,-4.013,-4.0138,-4.0365,-4.0469,-4.0312,-4.0342,-4.0446,-4.0512,-4.0557,-4.0635,-4.0655,-4.0248,-3.9893,-3.9785,-3.878,-3.809,-3.7908,-3.7572,-3.7008,-3.6469,-3.6373,-3.591,-3.5641,-3.6755,-3.8043,-3.8707,-3.9566,-4.0288,-4.0795,-4.0935,-4.1055,-4.0866,-4.0347,-3.9628,-3.9355,-3.906,-3.8212,-3.7398,-3.724,-3.6993,-3.6501,-3.6599,-3.6731,-3.6813,-3.6723,-3.6696,-3.6942,-3.7541,-3.8315,-3.8999,-3.9541,-3.9799,-3.9882,-3.9451,-3.8961,-3.8227,-3.7576,-3.7537,-4.0392,-4.0345,-4.0335,-4.0379,-4.0474,-4.0511,-4.0989,-4.1742,-4.278,-4.407,-4.537,-4.5429,-4.54,-4.539,-4.5381,-4.5381,-4.54,-4.539,-4.539,-4.54,-4.54,-4.539,-4.539,-4.5381,-4.539,-4.5419,-4.541,-4.5429,-4.5485,-4.5448,-4.5448,-4.5448,-4.5093,-4.492,-4.5006,-4.2852,-4.1168,-4.0086,-3.8482,-3.7988,-3.7555,-3.7574,-3.8207,-3.8714,-3.9265,-3.9884,-4.029,-4.0499,-4.0499,-4.0482,-4.043,-4.0422,-4.0413,-4.0413,-4.0413,-4.0413,-3.9723,-3.9369,-3.9282,-4.0046,-4.0358,-4.0358,-4.0292,-4.0473,-4.0508,-4.0546,-4.0576,-4.0581,-4.0539,-4.03,-3.9971,-3.9582,-3.9135,-3.8991,-3.8717,-3.8173,-3.7654,-3.7028,-3.6662,-3.6284,-3.7438,-3.8669,-3.9235,-3.9879,-4.0621,-4.1051,-4.109,-4.1013,-4.086,-4.0163,-3.9351,-3.9334,-3.9121,-3.8261,-3.7513,-3.7214,-3.6843,-3.625,-3.594,-3.604,-3.6275,-3.6416,-3.6332,-3.619,-3.7094,-3.8305,-3.8984,-3.9591,-3.994,-4.0275,-3.9882,-3.9354,-3.8633,-3.8318,-3.8492,-4.0327,-4.0319,-4.0308,-4.0325,-4.0379,-4.0422,-4.063,-4.1091,-4.2377,-4.3913,-4.5189,-4.5419,-4.537,-4.535,-4.533,-4.532,-4.532,-4.532,-4.532,-4.5339,-4.533,-4.5339,-4.5339,-4.535,-4.5339,-4.5339,-4.5339,-4.538,-4.5438,-4.54,-4.5419,-4.5409,-4.5321,-4.4984,-4.4497,-4.3283,-4.2451,-4.0622,-3.9634,-3.9103,-3.8164,-3.849,-3.8912,-3.9257,-3.9758,-4.0189,-4.0422,-4.0458,-4.0477,-4.0441,-4.0407,-4.0398,-4.0398,-4.0398,-4.0398,-4.0407,-3.9947,-3.9985,-3.9994,-4.0296,-4.0112,-4.0016,-4.014,-4.0408,-4.0447,-4.0447,-4.0487,-4.0581,-4.0701,-4.072,-4.1046,-4.0618,-4.0359,-4.0814,-4.0571,-3.9776,-3.912,-3.8371,-3.7823,-3.743,-3.7985,-3.9331,-4.019,-4.06,-4.1264,-4.0834,-4.0698,-4.0836,-4.0779,-3.9808,-3.8955,-3.927,-3.9157,-3.83,-3.7617,-3.7224,-3.661,-3.5937,-3.5505,-3.5344,-3.5609,-3.5933,-3.6042,-3.5931,-3.7128,-3.8327,-3.906,-3.9771,-4.0365,-4.0565,-4.023,-4.0127,-3.9786,-3.9728,-3.9998,-4.0319,-4.0329,-4.0615,-4.072,-4.0672,-4.0496,-4.0675,-4.1403,-4.2736,-4.4126,-4.5178,-4.5388,-4.5357,-4.5307,-4.5277,-4.5277,-4.5277,-4.5277,-4.5288,-4.5277,-4.5277,-4.5288,-4.5288,-4.5277,-4.5298,-4.5277,-4.5307,-4.5338,-4.5389,-4.5388,-4.5378,-4.5348,-4.5309,-4.5078,-4.4562,-4.399,-4.3311,-4.1925,-4.1427,-4.0852,-4.0258,-4.0182,-4.0306,-4.0295,-4.0475,-4.0741,-4.0483,-4.0388,-4.0424,-4.0389,-4.0372,-4.0363,-4.0363,-4.0363,-4.0382,-4.0363,-4.0038,-3.9808,-3.9425,-3.9731,-3.9616,-3.9769,-4.0132,-4.0349,-4.0407,-4.0424,-4.0449,-4.0556,-4.0816,-4.1284,-4.1717,-4.1313,-4.1834,-4.228,-4.2135,-4.1329,-4.0696,-3.9951,-3.921,-3.8787,-3.875,-4.0042,-4.1163,-4.1496,-4.1967,-4.1108,-4.0288,-4.0503,-4.0639,-3.9669,-3.8969,-3.9304,-3.9326,-3.8588,-3.7791,-3.7109,-3.6443,-3.5649,-3.5196,-3.4789,-3.4959,-3.5279,-3.5484,-3.5915,-3.7225,-3.8394,-3.9265,-3.9971,-4.0532,-4.0777,-4.0687,-4.0668,-4.0797,-4.079,-4.0784,-4.032,-4.0435,-4.117,-4.1466,-4.138,-4.0948,-4.1548,-4.2937,-4.3714,-4.4546,-4.5379,-4.5328,-4.5307,-4.5297,-4.5277,-4.5277,-4.5277,-4.5277,-4.5277,-4.5277,-4.5277,-4.5277,-4.5277,-4.5277,-4.5277,-4.5277,-4.5307,-4.5328,-4.5369,-4.5338,-4.5317,-4.5307,-4.5307,-4.5163,-4.4906,-4.4543,-4.395,-4.3281,-4.2814,-4.2307,-4.1887,-4.2164,-4.1734,-4.1427,-4.1274,-4.0948,-4.0622,-4.0335,-4.0335,-4.0336,-4.0319,-4.032,-4.031,-4.032,-4.031,-4.0119,-3.9555,-3.9029,-3.8704,-3.9239,-3.9755,-4.0204,-4.045,-4.0476,-4.0696,-4.0936,-4.1031,-4.1189,-4.1489,-4.1813,-4.2055,-4.2613,-4.3144,-4.3362,-4.3505,-4.2947,-4.2363,-4.1621,-4.0832,-4.0386,-4.0226,-4.1008,-4.2087,-4.2582,-4.2742,-4.183,-4.1049,-4.06,-4.0542,-3.9723,-3.9238,-3.957,-3.9437,-3.8933,-3.8137,-3.7224,-3.623,-3.5425,-3.4692,-3.4302,-3.448,-3.4793,-3.5218,-3.5966,-3.7339,-3.8534,-3.9707,-4.0328,-4.0666,-4.0796,-4.0796,-4.0797,-4.0797,-4.0797,-4.0784,-4.032,-4.0396,-4.117,-4.1504,-4.1657,-4.2537,-4.3292,-4.3713,-4.396,-4.4515,-4.5328,-4.5288,-4.5277,-4.5277,-4.5277,-4.5277,-4.5277,-4.5277,-4.5277,-4.5277,-4.5277,-4.5277,-4.5277,-4.5277,-4.5277,-4.5277,-4.5307,-4.5307,-4.5317,-4.5277,-4.5277,-4.5297,-4.5277,-4.5277,-4.5201,-4.5048,-4.4571,-4.4159,-4.3806,-4.3463,-4.31,-4.3023,-4.2431,-4.1906,-4.1686,-4.1198,-4.0558,-4.0404,-4.0404,-4.0367,-4.0358,-4.032,-4.032,-4.032,-4.0301,-4.0282,-4.0043,-3.9814,-3.9642,-3.9785,-4.0339,-4.1055,-4.1256,-4.1619,-4.1877,-4.2049,-4.1991,-4.1999,-4.2256,-4.2625,-4.3052,-4.3605,-4.4091,-4.4355,-4.4477,-4.43,-4.3711,-4.3019,-4.2246,-4.1935,-4.1762,-4.2185,-4.3214,-4.3726,-4.3712,-4.2742,-4.1965,-4.1415,-4.0735,-4.0013,-3.9645,-3.9977,-3.9822,-3.9398,-3.8251,-3.7261,-3.6171,-3.5176,-3.4352,-3.3858,-3.4202,-3.456,-3.5051,-3.6077,-3.7524,-3.9027,-4.0461,-4.0795,-4.0812,-4.0798,-4.0773,-4.0782,-4.0803,-4.0758,-4.0777,-4.032,-4.0454,-4.1533,-4.2354,-4.3138,-4.4093,-4.4513,-4.4513,-4.4532,-4.4857,-4.5258,-4.5277,-4.5277,-4.5277,-4.5277,-4.5277,-4.5277,-4.5277,-4.5277,-4.5277,-4.5277,-4.5277,-4.5277,-4.5277,-4.5277,-4.5277,-4.5277,-4.5297,-4.5277,-4.5277,-4.5277,-4.5277,-4.5277,-4.5277,-4.5258,-4.5201,-4.501,-4.4723,-4.4456,-4.4208,-4.394,-4.3654,-4.308,-4.2192,-4.203,-4.1399,-4.054,-4.05,-4.0759,-4.0883,-4.096,-4.1294,-4.1313,-4.1332,-4.1342,-4.1399,-4.138,-4.1342,-4.1285,-4.1294,-4.1781,-4.2221,-4.245,-4.2985,-4.309,-4.3139,-4.2843,-4.2661,-4.3092,-4.3522,-4.402,-4.448,-4.4892,-4.5304,-4.5407,-4.5524,-4.4943,-4.4286,-4.3828,-4.3458,-4.3515,-4.3794,-4.429,-4.4752,-4.4748,-4.3885,-4.32,-4.2676,-4.1887,-4.1042,-4.056,-4.0524,-4.0291,-3.9923,-3.8698,-3.7451,-3.6245,-3.4998,-3.3574,-3.332,-3.3787,-3.4409,-3.499,-3.6259,-3.7788,-3.9228,-4.0622,-4.0779,-4.0825,-4.0718,-4.058,-4.0585,-4.0575,-4.0623,-4.0681,-4.0273,-4.0406,-4.2086,-4.3604,-4.5152,-4.521,-4.5239,-4.5277,-4.522,-4.5277,-4.5277,-4.5277,-4.5277,-4.5277,-4.5277,-4.5277,-4.5277,-4.5277,-4.5277,-4.5277,-4.5277,-4.5277,-4.5277,-4.5277,-4.5277,-4.5277,-4.5277,-4.5277,-4.5277,-4.5277,-4.5277,-4.5277,-4.5277,-4.5277,-4.5277,-4.5277,-4.5182,-4.5105,-4.5067,-4.4972,-4.5067,-4.4972,-4.4551,-4.3042,-4.2488,-4.2049,-4.0979,-4.0922,-4.1504,-4.1762,-4.2144,-4.2565,-4.2565,-4.2545,-4.2565,-4.2565,-4.2412,-4.2393,-4.2354,-4.2354,-4.2937,-4.3452,-4.4006,-4.4208,-4.4131,-4.3997,-4.3684,-4.3627,-4.401,-4.4211,-4.4604,-4.4844,-4.5179,-4.5332,-4.541,-4.5495,-4.526,-4.4787,-4.4553,-4.4318,-4.4482,-4.4758,-4.4889,-4.5282,-4.5328,-4.4763,-4.4432,-4.3929,-4.3217,-4.2288,-4.1698,-4.1296,-4.0777,-4.0349,-3.9318,-3.8013,-3.6452,-3.5011,-3.3588,-3.3102,-3.3808,-3.4394,-3.4941,-3.6556,-3.8252,-3.9325,-4.0407,-4.0672,-4.0692,-4.0224,-4.0141,-4.0255,-4.0333,-4.0394,-4.0629,-4.0005,-4.0176,-4.1863,-4.3561,-4.5044,-4.5203,-4.5265,-4.5277,-4.5277,-4.5277,-4.5277,-4.5277,-4.5277,-4.5277,-4.5277,-4.5277,-4.5277,-4.5277,-4.5277,-4.5277,-4.5277,-4.5277,-4.5277,-4.5277,-4.5277,-4.5277,-4.5277,-4.5277,-4.5277,-4.5277,-4.5277,-4.5277,-4.5277,-4.5277,-4.5277,-4.5277,-4.5277,-4.5277,-4.5277,-4.5277,-4.5277,-4.5067,-4.4551,-4.3386,-4.2698,-4.2049,-4.1266,-4.117,-4.1437,-4.1657,-4.2374,-4.2698,-4.2775,-4.2832,-4.2813,-4.2794,-4.2985,-4.3042,-4.3061,-4.3138,-4.3501,-4.3815,-4.4178,-4.4609,-4.4781,-4.4734,-4.4696,-4.4725,-4.4773,-4.4898,-4.5023,-4.5195,-4.531,-4.5339,-4.535,-4.54,-4.5467,-4.5311,-4.5109,-4.5214,-4.5336,-4.5434,-4.552,-4.5583,-4.5653,-4.5624,-4.5566,-4.521,-4.4631,-4.3808,-4.2975,-4.2405,-4.1397,-4.0738,-3.9822,-3.8926,-3.7542,-3.6041,-3.4678,-3.4251,-3.3959,-3.4547,-3.533,-3.7128,-3.8721,-3.9612,-4.0324,-4.0834,-4.0691,-3.9916,-3.9742,-3.9878,-4.0019,-4.0131,-4.0499,-3.9724,-3.9955,-4.1623,-4.3365,-4.4794,-4.5095,-4.5222,-4.5286,-4.5277,-4.5277,-4.5277,-4.5277,-4.5277,-4.5297,-4.5277,-4.5277,-4.5277,-4.5277,-4.5277,-4.5277,-4.5277,-4.5277,-4.5277,-4.5277,-4.5277,-4.5277,-4.5277,-4.5277,-4.5277,-4.5277,-4.5277,-4.5277,-4.5277,-4.5277,-4.5277,-4.5277,-4.5277,-4.5277,-4.5277,-4.5277,-4.5277,-4.5125,-4.4704,-4.3673,-4.309,-4.244,-4.224,-4.2144,-4.2507,-4.2851,-4.3558,-4.3921,-4.4055,-4.4074,-4.3997,-4.3997,-4.4017,-4.3931,-4.3864,-4.3883,-4.4017,-4.436,-4.456,-4.5067,-4.5105,-4.5029,-4.5029,-4.5059,-4.5059,-4.5165,-4.5165,-4.5279,-4.5298,-4.5309,-4.5338,-4.5369,-4.5429,-4.5399,-4.5337,-4.5415,-4.553,-4.5604,-4.5673,-4.5712,-4.5756,-4.5762,-4.582,-4.585,-4.5394,-4.5016,-4.4273,-4.3662,-4.272,-4.1571,-4.0602,-3.9822,-3.8926,-3.7386,-3.5631,-3.5006,-3.4539,-3.4991,-3.5835,-3.7558,-3.8828,-3.9492,-4.0174,-4.0771,-4.0178,-3.9245,-3.928,-3.9502,-3.9656,-3.9878,-4.0378,-3.9583,-4.0002,-4.1632,-4.3246,-4.4669,-4.496,-4.5125,-4.5213,-4.5235,-4.5243,-4.5213,-4.5213,-4.5265,-4.5297,-4.5277,-4.5277,-4.5277,-4.5277,-4.5277,-4.5277,-4.5277,-4.5277,-4.5277,-4.5277,-4.5277,-4.5277,-4.5277,-4.5277,-4.5277,-4.5277,-4.5277,-4.5277,-4.5277,-4.5277,-4.5277,-4.5277,-4.5277,-4.5277,-4.5277,-4.5277,-4.5277,-4.5258,-4.4704,-4.4274,-4.3949,-4.3567,-4.3291,-4.3424,-4.3873,-4.4216,-4.4494,-4.4819,-4.4953,-4.4895,-4.4972,-4.4934,-4.4895,-4.4934,-4.5029,-4.4953,-4.5067,-4.522,-4.5277,-4.5277,-4.5277,-4.5277,-4.5277,-4.5277,-4.5277,-4.5277,-4.5277,-4.5277,-4.5277,-4.5297,-4.5307,-4.5317,-4.5389,-4.5458,-4.5505,-4.5568,-4.5618,-4.57,-4.5739,-4.5757,-4.5778,-4.5778,-4.58,-4.5834,-4.5738,-4.5456,-4.4958,-4.4713,-4.4306,-4.3066,-4.1608,-4.0563,-3.9764,-3.787,-3.6173,-3.5526,-3.5175,-3.5668,-3.6511,-3.788,-3.8996,-3.9702,-4.0173,-4.0703,-3.9843,-3.8883,-3.9577,-3.993,-3.9238,-3.9555,-4.0236,-3.9984,-4.1301,-4.2394,-4.3502,-4.4479,-4.4706,-4.4846,-4.4974,-4.4986,-4.4986,-4.4967,-4.4991,-4.5061,-4.5277,-4.5277,-4.5286,-4.5243,-4.5246,-4.5267,-4.5277,-4.5246,-4.5256,-4.5277,-4.5267,-4.5277,-4.5277,-4.5277,-4.5277,-4.5277,-4.5277,-4.5277,-4.5277,-4.5277,-4.5277,-4.5277,-4.5277,-4.5277,-4.5277,-4.5277,-4.5277,-4.5277,-4.5144,-4.4781,-4.438,-4.3987,-4.3472,-4.3233,-4.3615,-4.3873,-4.4255,-4.4781,-4.5163,-4.5277,-4.5277,-4.5277,-4.5277,-4.5277,-4.5277,-4.5277,-4.5277,-4.5277,-4.5277,-4.5277,-4.5277,-4.5277,-4.5277,-4.5277,-4.5277,-4.5277,-4.5277,-4.5277,-4.5277,-4.5277,-4.5277,-4.5307,-4.5307,-4.5338,-4.5389,-4.5438,-4.5496,-4.5523,-4.5558,-4.5584,-4.5627,-4.566,-4.5668,-4.5668,-4.5708,-4.5776,-4.5653,-4.5544,-4.5487,-4.5426,-4.4198,-4.2592,-4.128,-4.0192,-3.8277,-3.6755,-3.6111,-3.5935,-3.6384,-3.7363,-3.8792,-3.9459,-4.0029,-4.0462,-4.0873,-3.9978,-3.9375,-4.0293,-4.0544,-3.9576,-3.9323,-4.0079]},{"header":{"parameterUnit":"m.s-1","parameterCategory":1,"la1":31.0,"la2":29.5877,"lo1":-88.7671,"lo2":-86.6584,"dy":0.0162,"dx":0.0185,"nx":115,"ny":88,"refTime":"2026-04-11T12:00:00:Z","depth":0,"parameterNumber":3,"parameterNumberName":"V-component_of_WINDS"},"data":[0.0,0.0,0.0,0.0,0.0,0.0,0.0,0.0,0.0,0.0,0.0,0.0,0.0,0.0,0.0,0.0,0.0,0.0,0.0,0.0,0.0,0.0,0.0,0.0,0.0,0.0,0.0,0.0,0.0,0.0,0.0,0.0,0.0,0.0,0.0,0.0,0.0,0.0,0.0,0.0,0.0,0.0,0.0,0.0,0.0,0.0,0.0,0.0,0.0,0.0,0.0,0.0,0.0,0.0,0.0,0.0,0.0,0.0,0.0,0.0,0.0,0.0,0.0,0.0,0.0,0.0,0.0,0.0,0.0,0.0,0.0,0.0,0.0,0.0,0.0,0.0,0.0,0.0,0.0,0.0,0.0,0.0,0.0,0.0,0.0,0.0,0.0,0.0,0.0,0.0,0.0,0.0,0.0,0.0,0.0,0.0,0.0,0.0,0.0,0.0,0.0,0.0,0.0,0.0,0.0,0.0,0.0,0.0,0.0,0.0,0.0,0.0,0.0,0.0,0.0,0.0,0.0,0.0,0.0,0.0,0.0,0.0,0.0,0.0,0.0,0.0,0.0,0.0,0.0,0.0,0.0,0.0,0.0,0.0,0.0,0.0,0.0,0.0,0.0,0.0,0.0,0.0,0.0,0.0,0.0,0.0,0.0,0.0,0.0,0.0,0.0,0.0,0.0,0.0,0.0,0.0,0.0,0.0,0.0,0.0,0.0,0.0,0.0,0.0,0.0,0.0,0.0,0.0,0.0,0.0,0.0,0.0,0.0,0.0,0.0,0.0,0.0,0.0,0.0,0.0,0.0,0.0,0.0,0.0,0.0,0.0,0.0,0.0,0.0,0.0,0.0,0.0,0.0,0.0,0.0,0.0,0.0,0.0,0.0,0.0,0.0,0.0,0.0,0.0,0.0,0.0,0.0,0.0,0.0,0.0,0.0,0.0,0.0,0.0,0.0,0.0,0.0,0.0,0.0,0.0,0.0,0.0,0.0,0.0,0.0,0.0,0.0,0.0,0.0,0.0,0.0,0.0,0.0,0.0,0.0,0.0,0.0,0.0,0.0,0.0,0.0,0.0,0.0,0.0,0.0,0.0,0.0,0.0,0.0,0.0,0.0,0.0,0.0,0.0,0.0,0.0,0.0,0.0,0.0,0.0,0.0,0.0,0.0,0.0,0.0,0.0,0.0,0.0,0.0,0.0,0.0,0.0,0.0,0.0,0.0,0.0,0.0,0.0,0.0,0.0,0.0,0.0,0.0,0.0,0.0,0.0,0.0,0.0,0.0,0.0,0.0,0.0,0.0,0.0,0.0,0.0,0.0,0.0,0.0,0.0,0.0,0.0,0.0,0.0,0.0,0.0,0.0,0.0,0.0,0.0,0.0,0.0,0.0,0.0,0.0,0.0,0.0,0.0,0.0,0.0,0.0,0.0,0.0,0.0,0.0,0.0,0.0,0.0,0.0,0.0,0.0,0.0,0.0,0.0,0.0,0.0,0.0,0.0,0.0,0.0,0.0,0.0,0.0,0.0,0.0,0.0,0.0,0.0,0.0,0.0,0.0,0.0,0.0,0.0,0.0,0.0,0.0,0.0,0.0,0.0,0.0,0.0,0.0,0.0,0.0,0.0,0.0,0.0,0.0,0.0,0.0,0.0,0.0,0.0,0.0,0.0,0.0,0.0,0.0,0.0,0.0,0.0,0.0,0.0,0.0,0.0,0.0,0.0,0.0,0.0,0.0,0.0,0.0,0.0,0.0,0.0,0.0,0.0,0.0,0.0,0.0,0.0,0.0,0.0,0.0,0.0,0.0,0.0,0.0,0.0,0.0,0.0,0.0,0.0,0.0,0.0,0.0,0.0,0.0,0.0,0.0,0.0,0.0,0.0,0.0,0.0,0.0,0.0,0.0,0.0,0.0,0.0,0.0,0.0,0.0,0.0,0.0,0.0,0.0,0.0,0.0,0.0,0.0,0.0,0.0,0.0,0.0,0.0,0.0,0.0,0.0,0.0,0.0,0.0,0.0,0.0,0.0,0.0,0.0,0.0,0.0,0.0,0.0,0.0,0.0,0.0,0.0,0.0,0.0,0.0,0.0,0.0,0.0,0.0,0.0,0.0,0.0,0.0,0.0,0.0,0.0,0.0,0.0,0.0,0.0,0.0,0.0,0.0,0.0,0.0,0.0,0.0,0.0,0.0,0.0,0.0,0.0,0.0,0.0,0.0,0.0,0.0,0.0,0.0,0.0,0.0,0.0,0.0,0.0,0.0,0.0,0.0,0.0,0.0,0.0,0.0,0.0,0.0,0.0,0.0,0.0,0.0,0.0,0.0,0.0,0.0,0.0,0.0,0.0,0.0,0.0,0.0,0.0,0.0,0.0,0.0,0.0,0.0,0.0,0.0,0.0,0.0,0.0,0.0,0.0,0.0,0.0,0.0,0.0,0.0,0.0,0.0,0.0,0.0,0.0,0.0,0.0,0.0,0.0,0.0,0.0,0.0,0.0,0.0,0.0,0.0,0.0,0.0,0.0,0.0,0.0,0.0,0.0,0.0,0.0,0.0,0.0,0.0,0.0,0.0,0.0,0.0,0.0,0.0,0.0,0.0,0.0,0.0,0.0,0.0,0.0,0.0,0.0,0.0,0.0,0.0,0.0,0.0,0.0,0.0,0.0,0.0,0.0,0.0,0.0,0.0,0.0,0.0,0.0,0.0,0.0,0.0,0.0,0.0,0.0,0.0,0.0,0.0,0.0,0.0,0.0,0.0,0.0,0.0,0.0,0.0,0.0,0.0,0.0,0.0,0.0,0.0,0.0,0.0,0.0,0.0,0.0,0.0,0.0,0.0,0.0,0.0,0.0,0.0,0.0,0.0,0.0,0.0,0.0,0.0,0.0,0.0,0.0,0.0,0.0,0.0,0.0,0.0,0.0,0.0,0.0,0.0,0.0,0.0,0.0,0.0,0.0,0.0,0.0,0.0,0.0,0.0,0.0,0.0,0.0,0.0,0.0,0.0,0.0,0.0,0.0,0.0,0.0,0.0,0.0,0.0,0.0,0.0,0.0,0.0,0.0,0.0,0.0,0.0,0.0,0.0,0.0,0.0,0.0,0.0,0.0,0.0,0.0,0.0,0.0,0.0,0.0,0.0,0.0,0.0,0.0,0.0,0.0,0.0,0.0,0.0,0.0,0.0,0.0,0.0,0.0,0.0,0.0,0.0,0.0,0.0,0.0,0.0,0.0,0.0,0.0,0.0,0.0,0.0,0.0,0.0,0.0,0.0,0.0,0.0,0.0,0.0,0.0,0.0,0.0,0.0,0.0,0.0,0.0,0.0,0.0,0.0,0.0,0.0,0.0,0.0,0.0,0.0,0.0,0.0,0.0,0.0,0.0,0.0,0.0,0.0,0.0,0.0,0.0,0.0,0.0,0.0,0.0,0.0,0.0,0.0,0.0,0.0,0.0,0.0,0.0,0.0,0.0,0.0,0.0,0.0,0.0,0.0,0.0,0.0,0.0,0.0,0.0,0.0,0.0,0.0,0.0,0.0,0.0,0.0,0.0,0.0,0.0,0.0,0.0,0.0,0.0,0.0,0.0,0.0,0.0,0.0,0.0,0.0,0.0,0.0,0.0,0.0,0.0,0.0,0.0,0.0,0.0,0.0,0.0,0.0,0.0,0.0,0.0,0.0,0.0,0.0,0.0,0.0,0.0,0.0,0.0,0.0,0.0,0.0,0.0,0.0,0.0,0.0,0.0,0.0,0.0,0.0,0.0,0.0,0.0,0.0,0.0,0.0,0.0,0.0,0.0,0.0,0.0,0.0,0.0,0.0,0.0,0.0,0.0,0.0,0.0,0.0,0.0,0.0,0.0,0.0,0.0,0.0,0.0,0.0,0.0,0.0,0.0,0.0,0.0,0.0,0.0,0.0,0.0,0.0,0.0,0.0,0.0,0.0,0.0,0.0,0.0,0.0,0.0,0.0,0.0,0.0,0.0,0.0,0.0,0.0,0.0,0.0,0.0,0.0,0.0,0.0,0.0,0.0,0.0,0.0,0.0,0.0,0.0,0.0,0.0,0.0,0.0,0.0,0.0,0.0,0.0,0.0,0.0,0.0,0.0,0.0,0.0,0.0,0.0,0.0,0.0,0.0,0.0,0.0,0.0,0.0,0.0,0.0,0.0,0.0,0.0,0.0,0.0,0.0,0.0,0.0,0.0,0.0,0.0,0.0,0.0,0.0,0.0,0.0,0.0,0.0,0.0,0.0,0.0,0.0,0.0,0.0,0.0,0.0,-0.1809,0.0,0.0,0.0,0.0,0.0,0.0,0.0,0.0,0.0,0.0,0.0,0.0,0.0,0.0,0.0,0.0,0.0,0.0,0.0,0.0,0.0,0.0,0.0,0.0,0.0,0.0,0.0,0.0,0.0,0.0,0.0,0.0,0.0,0.0,0.0,0.0,0.0,0.0,0.0,0.0,0.0,0.0,0.0,0.0,0.0,0.0,0.0,0.0,0.0,0.0,0.0,0.0,0.0,0.0,0.0,0.0,0.0,0.0,0.0,0.0,0.0,0.0,0.0,0.0,0.0,0.0,0.0,0.0,0.0,0.0,0.0,0.0,0.0,0.0,0.0,0.0,0.0,0.0,0.0,0.0,0.0,0.0,0.0,0.0,0.0,0.0,0.0,0.0,0.0,0.0,0.0,0.0,0.0,0.0,0.0,0.0,0.0,0.0,0.0,0.0,0.0,0.0,0.0,0.0,0.0,0.0,0.0,0.0,0.0,0.0,-0.1736,-0.1736,-0.1736,-0.1736,-0.174,0.0,0.0,0.0,0.0,0.0,0.0,0.0,0.0,0.0,0.0,0.0,0.0,0.0,0.0,0.0,0.0,0.0,0.0,0.0,0.0,0.0,0.0,0.0,0.0,0.0,0.0,0.0,0.0,0.0,0.0,0.0,0.0,0.0,0.0,0.0,0.0,0.0,0.0,0.0,0.0,0.0,0.0,0.0,0.0,0.0,0.0,0.0,0.0,0.0,0.0,0.0,0.0,0.0,0.0,0.0,0.0,0.0,0.0,0.0,0.0,0.0,0.0,0.0,0.0,0.0,0.0,0.0,0.0,0.0,0.0,0.0,0.0,0.0,0.0,0.0,0.0,0.0,0.0,0.0,0.0,0.0,0.0,0.0,0.0,0.0,0.0,0.0,0.0,0.0,0.0,0.0,0.0,0.0,0.0,0.0,0.0,0.0,0.0,0.0,0.0,0.0,0.0,0.0,0.0,0.0,0.0,0.0,0.0,0.0,0.0,0.0,0.0,-0.1768,-0.1757,-0.1789,0.0,0.0,0.0,0.0,0.0,0.0,0.0,0.0,0.0,0.0,0.0,0.0,0.0,0.0,0.0,0.0,0.0,0.0,0.0,0.0,0.0,0.0,0.0,0.0,0.0,0.0,0.0,0.0,0.0,0.0,0.0,0.0,0.0,0.0,0.0,0.0,0.0,0.0,0.0,0.0,0.0,0.0,0.0,0.0,0.0,0.0,0.0,0.0,0.0,0.0,0.0,0.0,0.0,0.0,0.0,0.0,0.0,0.0,0.0,0.0,0.0,0.0,0.0,0.0,0.0,0.0,0.0,0.0,0.0,0.0,0.0,0.0,0.0,0.0,0.0,0.0,0.0,0.0,0.0,0.0,0.0,0.0,0.0,0.0,0.0,0.0,0.0,0.0,0.0,0.0,0.0,0.0,0.0,0.0,0.0,0.0,0.0,0.0,0.0,0.0,0.0,0.0,0.0,0.0,0.0,0.0,0.0,0.0,0.0,0.0,-0.1938,-0.2049,-0.1941,0.0,-0.207,0.0,0.0,0.0,0.0,0.0,0.0,0.0,0.0,0.0,0.0,0.0,0.0,0.0,0.0,0.0,0.0,0.0,0.0,0.0,0.0,0.0,0.0,0.0,0.0,0.0,0.0,0.0,0.0,0.0,0.0,0.0,0.0,0.0,0.0,0.0,0.0,0.0,0.0,0.0,0.0,0.0,0.0,0.0,0.0,0.0,0.0,0.0,0.0,0.0,0.0,0.0,0.0,0.0,0.0,0.0,0.0,0.0,0.0,0.0,0.0,0.0,0.0,0.0,0.0,0.0,0.0,0.0,0.0,0.0,0.0,0.0,0.0,0.0,0.0,0.0,0.0,0.0,0.0,0.0,0.0,0.0,0.0,0.0,0.0,0.0,0.0,0.0,0.0,0.0,0.0,0.0,0.0,0.0,0.0,0.0,0.0,0.0,0.0,0.0,0.0,0.0,0.0,0.0,0.0,0.0,0.0,0.0,0.0,0.0,0.0,-0.1871,-0.1927,-0.1821,-0.1808,0.0,0.0,0.0,0.0,0.0,0.0,0.0,0.0,0.0,0.0,0.0,0.0,0.0,0.0,0.0,0.0,0.0,0.0,0.0,0.0,0.0,0.0,0.0,0.0,0.0,0.0,0.0,0.0,0.0,0.0,0.0,0.0,0.0,0.0,0.0,0.0,0.0,0.0,0.0,0.0,0.0,0.0,0.0,0.0,0.0,0.0,0.0,0.0,0.0,0.0,0.0,0.0,0.0,0.0,0.0,0.0,0.0,0.0,0.0,0.0,0.0,0.0,0.0,0.0,0.0,0.0,0.0,0.0,0.0,0.0,0.0,0.0,0.0,0.0,0.0,0.0,0.0,0.0,0.0,0.0,0.0,0.0,0.0,0.0,0.0,0.0,0.0,0.0,0.0,0.0,0.0,0.0,0.0,0.0,0.0,0.0,0.0,0.0,0.0,0.0,0.0,0.0,0.0,0.0,0.0,0.0,0.0,0.0,0.0,0.0,-0.179,0.0,-0.1886,-0.1766,-0.1708,-0.174,0.0,0.0,0.0,0.0,0.0,0.0,0.0,0.0,0.0,0.0,0.0,0.0,0.0,0.0,0.0,0.0,0.0,0.0,0.0,0.0,0.0,0.0,0.0,0.0,0.0,0.0,0.0,0.0,0.0,0.0,0.0,0.0,0.0,0.0,0.0,0.0,0.0,0.0,0.0,0.0,0.0,0.0,0.0,0.0,0.0,0.0,0.0,0.0,0.0,0.0,0.0,0.0,0.0,0.0,0.0,0.0,0.0,0.0,0.0,0.0,0.0,0.0,0.0,0.0,0.0,0.0,0.0,0.0,0.0,0.0,0.0,0.0,0.0,0.0,0.0,0.0,0.0,0.0,0.0,0.0,0.0,0.0,0.0,0.0,0.0,0.0,0.0,0.0,0.0,0.0,0.0,0.0,0.0,0.0,0.0,0.0,0.0,0.0,0.0,0.0,0.0,0.0,0.0,0.0,0.0,0.0,0.0,0.0,0.0,-0.1923,-0.1949,-0.207,-0.1833,-0.1748,0.0,0.0,0.0,0.0,0.0,0.0,0.0,0.0,0.0,0.0,0.0,0.0,0.0,0.0,0.0,0.0,0.0,0.0,0.0,0.0,0.0,0.0,0.0,0.0,0.0,0.0,0.0,0.0,0.0,0.0,0.0,0.0,0.0,0.0,0.0,0.0,0.0,0.0,0.0,0.0,0.0,0.0,0.0,0.0,0.0,0.0,0.0,0.0,0.0,0.0,0.0,0.0,0.0,0.0,0.0,0.0,0.0,0.0,0.0,0.0,0.0,0.0,0.0,0.0,0.0,0.0,0.0,0.0,0.0,0.0,0.0,0.0,0.0,0.0,0.0,0.0,0.0,0.0,0.0,0.0,0.0,0.0,0.0,0.0,0.0,0.0,0.0,0.0,0.0,0.0,0.0,0.0,0.0,0.0,0.0,0.0,0.0,0.0,0.0,0.0,0.0,0.0,0.0,0.0,0.0,0.0,0.0,0.0,0.0,-0.1687,-0.1745,-0.1833,-0.1969,-0.1759,-0.1669,0.0,0.0,0.0,0.0,0.0,0.0,0.0,0.0,0.0,0.0,0.0,0.0,0.0,0.0,0.0,0.0,0.0,0.0,0.0,0.0,0.0,0.0,0.0,0.0,0.0,0.0,0.0,0.0,0.0,0.0,0.0,0.0,0.0,0.0,0.0,0.0,0.0,0.0,0.0,0.0,0.0,0.0,0.0,0.0,0.0,0.0,0.0,0.0,0.0,0.0,0.0,0.0,0.0,0.0,0.0,0.0,0.0,0.0,0.0,0.0,0.0,0.0,0.0,0.0,0.0,0.0,0.0,0.0,0.0,0.0,0.0,0.0,0.0,0.0,0.0,0.0,0.0,0.0,0.0,0.0,0.0,0.0,0.0,0.0,0.0,0.0,0.0,0.0,0.0,0.0,0.0,0.0,0.0,0.0,0.0,0.0,0.0,0.0,0.0,0.0,0.0,0.0,0.0,0.0,0.0,0.0,0.0,0.0,0.0,-0.1606,0.0,-0.175,0.0,-0.1635,-0.1532,0.0,0.0,0.0,0.0,0.0,0.0,0.0,0.0,0.0,0.0,0.0,0.0,0.0,0.0,0.0,0.0,0.0,0.0,0.0,0.0,0.0,0.0,0.0,0.0,0.0,0.0,0.0,0.0,0.0,0.0,0.0,0.0,0.0,0.0,0.0,0.0,0.0,0.0,0.0,0.0,0.0,0.0,0.0,0.0,0.0,0.0,0.0,0.0,0.0,0.0,0.0,0.0,0.0,0.0,0.0,0.0,0.0,0.0,0.0,0.0,0.0,0.0,0.0,0.0,0.0,0.0,0.0,0.0,0.0,0.0,0.0,0.0,0.0,0.0,0.0,0.0,0.0,0.0,0.0,0.0,0.0,0.0,0.0,0.0,0.0,0.0,0.0,0.0,0.0,0.0,0.0,0.0,0.0,0.0,0.0,0.0,0.0,0.0,0.0,0.0,0.0,0.0,0.0,0.0,0.0,0.0,0.0,0.0,-0.1797,-0.1798,-0.1657,-0.1691,-0.1875,-0.1503,-0.1436,0.0,0.0,0.0,0.0,0.0,0.0,0.0,0.0,0.0,0.0,0.0,0.0,0.0,0.0,0.0,0.0,0.0,0.0,0.0,0.0,0.0,0.0,0.0,0.0,0.0,0.0,0.0,0.0,0.0,0.0,0.0,0.0,0.0,0.0,0.0,0.0,0.0,0.0,0.0,0.0,0.0,0.0,0.0,0.0,0.0,0.0,0.0,0.0,0.0,0.0,0.0,0.0,0.0,0.0,0.0,0.0,0.0,0.0,0.0,0.0,0.0,0.0,0.0,0.0,0.0,0.0,0.0,0.0,0.0,0.0,0.0,0.0,0.0,0.0,0.0,0.0,0.0,0.0,0.0,0.0,0.0,0.0,0.0,0.0,0.0,0.0,0.0,0.0,0.0,0.0,0.0,0.0,0.0,0.0,0.0,0.0,0.0,0.0,0.0,0.0,0.0,0.0,0.0,0.0,0.0,0.0,0.0,0.0,0.0,-0.167,-0.1538,-0.146,-0.1485,-0.1278,-0.1248,0.0,0.0,0.0,0.0,0.0,0.0,0.0,0.0,0.0,0.0,0.0,0.0,0.0,0.0,0.0,0.0,0.0,0.0,0.0,0.0,0.0,0.0,0.0,0.0,0.0,0.0,0.0,0.0,0.0,0.0,0.0,0.0,0.0,0.0,0.0,0.0,0.0,0.0,0.0,0.0,0.0,0.0,0.0,0.0,0.0,0.0,0.0,0.0,0.0,0.0,0.0,0.0,0.0,0.0,0.0,0.0,0.0,0.0,0.0,0.0,0.0,0.0,0.0,0.0,0.0,0.0,0.0,0.0,0.0,0.0,0.0,0.0,0.0,0.0,0.0,0.0,0.0,0.0,0.0,0.0,0.0,0.0,0.0,0.0,0.0,0.0,0.0,0.0,0.0,0.0,0.0,0.0,0.0,0.0,0.0,0.0,0.0,0.0,0.0,0.0,0.0,0.0,0.0,0.0,0.0,0.0,0.0,0.0,0.0,-0.1777,-0.1553,-0.1408,-0.1336,-0.1198,-0.1213,-0.1342,0.0,0.0,0.0,0.0,0.0,0.0,0.0,0.0,0.0,0.0,0.0,0.0,0.0,0.0,0.0,0.0,0.0,0.0,0.0,0.0,0.0,0.0,0.0,0.0,0.0,0.0,0.0,0.0,0.0,0.0,0.0,0.0,0.0,0.0,0.0,0.0,0.0,0.0,0.0,0.0,0.0,0.0,0.0,0.0,0.0,0.0,0.0,0.0,0.0,0.0,0.0,0.0,0.0,0.0,0.0,0.0,0.0,0.0,0.0,0.0,0.0,0.0,0.0,0.0,0.0,0.0,0.0,0.0,0.0,0.0,0.0,0.0,0.0,0.0,0.0,0.0,0.0,0.0,0.0,0.0,0.0,0.0,0.0,0.0,0.0,0.0,0.0,0.0,0.0,0.0,0.0,0.0,0.0,0.0,0.0,0.0,0.0,0.0,0.0,0.0,0.0,0.0,0.0,0.0,0.0,0.0,0.0,0.0,-0.2105,-0.1744,-0.1478,-0.1409,-0.1261,-0.1239,0.0,0.0,0.0,0.0,0.0,0.0,0.0,0.0,0.0,0.0,0.0,0.0,0.0,0.0,0.0,0.0,0.0,0.0,0.0,0.0,0.0,0.0,0.0,0.0,0.0,0.0,0.0,0.0,0.0,0.0,0.0,0.0,0.0,0.0,0.0,0.0,0.0,0.0,0.0,0.0,0.0,0.0,0.0,0.0,0.0,0.0,0.0,0.0,0.0,0.0,0.0,0.0,0.0,0.0,0.0,0.0,0.0,0.0,0.0,0.0,0.0,0.0,0.0,0.0,0.0,0.0,0.0,0.0,0.0,0.0,0.0,0.0,0.0,0.0,0.0,0.0,0.0,0.0,0.0,0.0,0.0,0.0,0.0,0.0,0.0,0.0,0.0,0.0,0.0,0.0,0.0,0.0,0.0,0.0,0.0,0.0,0.0,0.0,0.0,0.0,0.0,0.0,0.0,0.0,0.0,0.0,0.0,0.0,0.0,-0.2251,-0.2044,-0.1766,-0.1409,-0.1124,-0.1131,0.0,0.0,0.0,0.0,0.0,0.0,0.0,0.0,0.0,0.0,0.0,0.0,0.0,0.0,0.0,0.0,0.0,0.0,0.0,0.0,0.0,0.0,0.0,0.0,0.0,0.0,0.0,0.0,0.0,0.0,0.0,0.0,0.0,0.0,0.0,0.0,0.0,0.0,0.0,0.0,0.0,0.0,0.0,0.0,0.0,0.0,0.0,0.0,0.0,0.0,0.0,0.0,0.0,0.0,0.0,0.0,0.0,0.0,0.0,0.0,0.0,0.0,0.0,0.0,0.0,0.0,0.0,0.0,0.0,0.0,0.0,0.0,0.0,0.0,0.0,0.0,0.0,0.0,0.0,0.0,0.0,0.0,0.0,0.0,0.0,0.0,0.0,0.0,0.0,0.0,0.0,0.0,0.0,0.0,0.0,0.0,0.0,0.0,0.0,0.0,0.0,0.0,0.0,0.0,0.0,0.0,0.0,0.0,-0.2573,-0.2516,-0.241,-0.2137,-0.1699,-0.128,-0.1183,0.0,0.0,0.0,0.0,0.0,0.0,0.0,0.0,0.0,0.0,0.0,0.0,0.0,0.0,0.0,0.0,0.0,0.0,0.0,0.0,0.0,0.0,0.0,0.0,0.0,0.0,0.0,0.0,0.0,0.0,0.0,0.0,0.0,0.0,0.0,0.0,0.0,0.0,0.0,0.0,0.0,0.0,0.0,0.0,0.0,0.0,0.0,0.0,0.0,0.0,0.0,0.0,0.0,0.0,0.0,0.0,0.0,0.0,0.0,0.0,0.0,0.0,0.0,0.0,0.0,0.0,0.0,0.0,0.0,0.0,0.0,0.0,0.0,0.0,0.0,0.0,0.0,0.0,0.0,0.0,0.0,0.0,0.0,0.0,0.0,0.0,0.0,0.0,0.0,0.0,0.0,0.0,0.0,0.0,0.0,0.0,0.0,0.0,0.0,0.0,0.0,0.0,0.0,0.0,0.0,0.0,0.0,0.0,-0.278,-0.2833,-0.2794,-0.2557,-0.2152,-0.1588,-0.1338,0.0,0.0,0.0,0.0,0.0,0.0,0.0,0.0,0.0,0.0,0.0,0.0,0.0,0.0,0.0,0.0,0.0,0.0,0.0,0.0,0.0,0.0,0.0,0.0,0.0,0.0,0.0,0.0,0.0,0.0,0.0,0.0,0.0,0.0,0.0,0.0,0.0,0.0,0.0,0.0,0.0,0.0,0.0,0.0,0.0,0.0,0.0,0.0,0.0,0.0,0.0,0.0,0.0,0.0,0.0,0.0,0.0,0.0,0.0,0.0,0.0,0.0,0.0,0.0,0.0,0.0,0.0,0.0,0.0,0.0,0.0,0.0,0.0,0.0,0.0,0.0,0.0,0.0,0.0,0.0,0.0,0.0,0.0,0.0,0.0,0.0,0.0,0.0,0.0,0.0,0.0,0.0,0.0,0.0,0.0,0.0,0.0,0.0,0.0,0.0,0.0,0.0,0.0,0.0,0.0,0.0,0.0,0.0,-0.2978,-0.312,-0.3149,-0.2902,-0.237,-0.1726,-0.1401,0.0,0.0,0.0,0.0,0.0,0.0,0.0,0.0,0.0,0.0,0.0,0.0,0.0,0.0,0.0,0.0,0.0,0.0,0.0,0.0,0.0,0.0,0.0,0.0,0.0,0.0,0.0,0.0,0.0,0.0,0.0,0.0,0.0,0.0,0.0,0.0,0.0,0.0,0.0,0.0,0.0,0.0,0.0,0.0,0.0,0.0,0.0,0.0,-0.4641,0.0,0.0,0.0,0.0,0.0,0.0,0.0,0.0,0.0,0.0,0.0,0.0,0.0,0.0,0.0,0.0,0.0,0.0,0.0,0.0,0.0,0.0,0.0,0.0,0.0,0.0,0.0,0.0,0.0,0.0,0.0,0.0,0.0,0.0,0.0,0.0,0.0,0.0,0.0,0.0,0.0,0.0,0.0,0.0,0.0,0.0,0.0,0.0,0.0,0.0,0.0,0.0,0.0,0.0,0.0,0.0,0.0,0.0,0.0,-0.317,-0.3371,-0.3516,-0.3263,-0.2594,-0.1991,-0.1626,0.0,0.0,0.0,0.0,0.0,0.0,0.0,0.0,0.0,0.0,0.0,0.0,0.0,0.0,0.0,0.0,0.0,0.0,0.0,0.0,0.0,0.0,0.0,0.0,0.0,0.0,0.0,0.0,0.0,0.0,0.0,0.0,0.0,0.0,0.0,0.0,0.0,0.0,0.0,0.0,0.0,0.0,0.0,0.0,0.0,0.0,0.0,0.0,0.0,0.0,0.0,0.0,0.0,0.0,0.0,0.0,0.0,0.0,0.0,0.0,0.0,0.0,0.0,0.0,0.0,0.0,0.0,0.0,0.0,0.0,0.0,0.0,0.0,0.0,0.0,0.0,0.0,0.0,0.0,0.0,0.0,0.0,0.0,0.0,0.0,0.0,0.0,0.0,0.0,0.0,0.0,0.0,0.0,0.0,0.0,0.0,0.0,0.0,0.0,0.0,0.0,0.0,0.0,0.0,0.0,0.0,0.0,-0.2942,-0.3284,-0.3579,-0.3811,-0.358,-0.283,-0.2297,-0.1825,-0.1477,0.0,0.0,0.0,0.0,0.0,0.0,0.0,0.0,0.0,0.0,0.0,0.0,0.0,0.0,0.0,0.0,0.0,0.0,0.0,0.0,0.0,0.0,0.0,0.0,0.0,0.0,0.0,0.0,0.0,0.0,0.0,0.0,0.0,0.0,0.0,0.0,0.0,0.0,-0.3486,-0.3844,0.0,0.0,0.0,0.0,0.0,0.0,0.0,0.0,-0.4047,0.0,0.0,0.0,0.0,0.0,0.0,0.0,0.0,0.0,0.0,0.0,0.0,0.0,0.0,0.0,0.0,0.0,0.0,0.0,0.0,0.0,0.0,0.0,0.0,0.0,0.0,0.0,0.0,0.0,0.0,0.0,0.0,0.0,0.0,0.0,0.0,0.0,0.0,0.0,0.0,0.0,0.0,0.0,0.0,0.0,0.0,0.0,0.0,0.0,0.0,0.0,0.0,0.0,0.0,0.0,0.0,-0.249,-0.2852,-0.3187,-0.3495,-0.3871,-0.3694,-0.2915,-0.2323,-0.1799,-0.1347,0.0,0.0,0.0,0.0,0.0,0.0,0.0,0.0,0.0,0.0,0.0,0.0,0.0,0.0,0.0,0.0,0.0,0.0,0.0,0.0,0.0,0.0,0.0,0.0,0.0,0.0,0.0,0.0,0.0,0.0,0.0,0.0,0.0,0.0,0.0,0.0,0.0,0.0,0.0,-0.4113,-0.4394,0.0,0.0,0.0,0.0,0.0,0.0,0.0,0.0,-0.4508,0.0,0.0,0.0,0.0,0.0,0.0,0.0,0.0,0.0,0.0,0.0,0.0,0.0,0.0,0.0,0.0,0.0,0.0,0.0,0.0,0.0,0.0,0.0,0.0,0.0,0.0,0.0,0.0,0.0,0.0,0.0,0.0,0.0,0.0,0.0,0.0,0.0,0.0,0.0,0.0,0.0,0.0,0.0,0.0,0.0,0.0,0.0,0.0,0.0,0.0,0.0,0.0,0.0,0.0,0.0,-0.2275,-0.2713,-0.3131,-0.3493,-0.3961,-0.3811,-0.297,-0.237,-0.182,0.0,0.0,0.0,0.0,0.0,0.0,0.0,0.0,0.0,0.0,0.0,0.0,0.0,0.0,0.0,0.0,0.0,0.0,0.0,0.0,0.0,0.0,0.0,0.0,0.0,0.0,0.0,0.0,0.0,0.0,0.0,0.0,0.0,0.0,0.0,0.0,0.0,0.0,0.0,0.0,-0.4272,-0.4595,-0.5023,0.0,0.0,0.0,0.0,0.0,0.0,-0.4325,-0.4365,0.0,0.0,0.0,0.0,0.0,0.0,0.0,0.0,0.0,0.0,0.0,0.0,0.0,0.0,0.0,0.0,0.0,0.0,0.0,0.0,0.0,0.0,0.0,0.0,0.0,0.0,0.0,0.0,0.0,0.0,0.0,0.0,0.0,0.0,0.0,0.0,0.0,0.0,0.0,0.0,0.0,0.0,0.0,0.0,0.0,0.0,0.0,0.0,0.0,0.0,0.0,0.0,0.0,0.0,0.0,-0.1994,-0.2475,-0.2916,-0.3293,-0.3796,-0.3653,-0.2853,-0.2276,-0.1737,0.0,0.0,0.0,0.0,0.0,0.0,0.0,0.0,0.0,0.0,0.0,0.0,0.0,0.0,0.0,0.0,0.0,0.0,0.0,0.0,0.0,0.0,0.0,0.0,0.0,0.0,0.0,0.0,0.0,0.0,0.0,0.0,0.0,0.0,0.0,0.0,0.0,0.0,0.0,0.0,0.0,-0.4888,-0.5415,-0.5437,0.0,0.0,0.0,0.0,-0.4031,-0.4149,0.0,0.0,0.0,0.0,0.0,0.0,0.0,0.0,0.0,0.0,0.0,0.0,0.0,0.0,0.0,0.0,0.0,0.0,0.0,0.0,0.0,0.0,0.0,0.0,0.0,0.0,0.0,0.0,0.0,0.0,0.0,0.0,0.0,0.0,0.0,0.0,0.0,0.0,0.0,0.0,0.0,0.0,0.0,0.0,0.0,0.0,0.0,0.0,0.0,0.0,0.0,0.0,0.0,0.0,0.0,0.0,-0.1657,-0.1957,-0.2285,-0.2615,-0.3022,-0.2951,-0.2294,-0.1812,-0.1378,0.0,0.0,0.0,0.0,0.0,0.0,0.0,0.0,0.0,0.0,0.0,0.0,0.0,0.0,0.0,0.0,0.0,0.0,0.0,0.0,0.0,0.0,0.0,0.0,0.0,0.0,0.0,0.0,0.0,0.0,0.0,0.0,0.0,0.0,0.0,0.0,0.0,0.0,0.0,0.0,0.0,-0.5349,-0.5478,-0.5724,-0.575,0.0,0.0,-0.498,-0.4941,-0.4727,0.0,0.0,0.0,0.0,0.0,0.0,0.0,0.0,0.0,0.0,0.0,0.0,0.0,0.0,0.0,0.0,0.0,0.0,0.0,0.0,0.0,0.0,0.0,0.0,0.0,0.0,0.0,0.0,0.0,0.0,0.0,0.0,0.0,0.0,0.0,0.0,0.0,0.0,0.0,0.0,0.0,0.0,0.0,0.0,0.0,0.0,0.0,0.0,0.0,0.0,0.0,0.0,0.0,0.0,0.0,-0.0989,-0.1252,-0.1433,-0.1631,-0.195,-0.2325,-0.2305,-0.1754,-0.1456,-0.1084,0.0,0.0,0.0,0.0,0.0,0.0,0.0,0.0,0.0,0.0,0.0,0.0,0.0,0.0,0.0,0.0,0.0,0.0,0.0,0.0,0.0,0.0,0.0,0.0,0.0,0.0,0.0,0.0,0.0,0.0,0.0,0.0,0.0,0.0,0.0,0.0,0.0,0.0,0.0,0.0,0.0,0.0,-0.5886,-0.5933,0.0,0.0,0.0,-0.5457,-0.5493,0.0,0.0,0.0,0.0,0.0,0.0,0.0,0.0,0.0,0.0,0.0,0.0,0.0,0.0,0.0,0.0,0.0,0.0,0.0,0.0,0.0,0.0,0.0,0.0,0.0,0.0,0.0,0.0,0.0,0.0,0.0,0.0,0.0,0.0,0.0,0.0,0.0,0.0,0.0,0.0,0.0,0.0,0.0,0.0,0.0,0.0,0.0,0.0,0.0,0.0,0.0,0.0,0.0,0.0,0.0,0.0,0.0,-0.0962,-0.0956,-0.1071,-0.1322,-0.1647,-0.1631,-0.1225,-0.1039,0.0,0.0,0.0,0.0,0.0,0.0,0.0,0.0,0.0,0.0,0.0,0.0,0.0,0.0,0.0,0.0,0.0,0.0,0.0,0.0,0.0,0.0,0.0,0.0,0.0,0.0,0.0,-0.115,0.0,0.0,0.0,0.0,0.0,0.0,0.0,0.0,0.0,0.0,0.0,0.0,0.0,0.0,-0.5441,-0.6105,-0.5964,-0.5928,0.0,0.0,-0.5741,-0.5725,-0.5361,-0.4989,0.0,0.0,0.0,0.0,0.0,0.0,0.0,0.0,0.0,0.0,0.0,0.0,0.0,0.0,0.0,0.0,0.0,0.0,0.0,0.0,0.0,0.0,0.0,0.0,0.0,0.0,0.0,0.0,0.0,0.0,0.0,0.0,0.0,0.0,0.0,0.0,0.0,0.0,0.0,0.0,0.0,0.0,0.0,0.0,0.0,0.0,0.0,0.0,0.0,0.0,0.0,0.0,0.0,0.0,0.0,-0.0807,-0.0632,-0.0635,-0.0851,-0.1004,-0.0972,-0.0772,-0.0554,-0.0396,0.0,0.0,0.0,0.0,0.0,0.0,0.0,0.0,0.0,0.0,0.0,0.0,0.0,0.0,0.0,0.0,0.0,0.0,0.0,0.0,0.0,0.0,0.0,0.0,0.0,0.0,0.0,0.0,0.0,0.0,0.0,0.0,0.0,0.0,0.0,0.0,0.0,0.0,0.0,0.0,0.0,-0.5157,-0.5831,-0.5844,-0.5781,0.0,0.0,-0.5795,-0.5564,-0.5219,-0.4998,-0.4964,0.0,0.0,0.0,0.0,0.0,0.0,0.0,0.0,0.0,0.0,0.0,0.0,0.0,0.0,0.0,0.0,0.0,0.0,0.0,0.0,0.0,0.0,0.0,0.0,0.0,0.0,0.0,0.0,0.0,0.0,0.0,0.0,0.0,0.0,0.0,0.0,0.0,0.0,0.0,0.0,0.0,0.0,0.0,0.0,0.0,0.0,0.0,0.0,0.0,0.0,0.0,0.0,0.0,-0.0663,-0.0626,-0.0316,-0.0235,-0.0322,-0.0352,-0.0344,-0.0275,-0.0179,-0.0138,0.0,0.0,0.0,0.0,0.0,0.0,0.0,0.0,0.0,0.0,0.0,0.0,0.0,0.0,0.0,0.0,0.0,0.0,0.0,0.0,0.0,0.0,0.0,0.0,0.0,0.0,0.0,0.0,-0.1018,-0.1225,-0.1564,0.0,0.0,0.0,0.0,0.0,0.0,0.0,0.0,0.0,0.0,-0.4816,-0.5454,-0.5507,0.0,0.0,-0.5722,-0.5763,-0.5681,-0.5297,-0.4984,-0.4944,-0.4404,0.0,0.0,0.0,0.0,0.0,0.0,0.0,0.0,0.0,0.0,0.0,0.0,0.0,0.0,0.0,0.0,0.0,0.0,0.0,0.0,0.0,0.0,0.0,0.0,0.0,0.0,0.0,0.0,0.0,0.0,0.0,0.0,0.0,0.0,0.0,0.0,0.0,0.0,0.0,0.0,0.0,0.0,0.0,0.0,0.0,0.0,0.0,0.0,0.0,0.0,0.0,0.0,-0.0637,-0.0484,-0.0165,0.0,0.0,0.0,0.0,0.0,0.0,0.0,0.0,0.0,0.0,0.0,0.0,0.0,0.0,0.0,0.0,0.0,0.0,0.0,0.0,0.0,0.0,0.0,0.0,0.0,0.0,0.0,0.0,0.0,0.0,0.0,0.0,0.0,0.0,0.0,-0.1405,-0.1616,-0.16,0.0,0.0,0.0,0.0,0.0,0.0,0.0,0.0,0.0,0.0,-0.4664,-0.5244,-0.5339,-0.5395,-0.5635,-0.5776,-0.5812,-0.5734,-0.5483,-0.5267,-0.5108,0.0,0.0,0.0,0.0,0.0,0.0,0.0,0.0,0.0,0.0,0.0,0.0,0.0,0.0,0.0,0.0,0.0,0.0,0.0,0.0,0.0,0.0,0.0,0.0,0.0,0.0,0.0,0.019,0.0,0.0,0.0091,0.0,0.0,0.0,0.0,0.0,0.0,0.0,0.0,0.0,0.0,0.0,0.0,0.0,0.0,0.0,0.0,0.0,0.0,0.0,0.0,0.0,0.0,-0.0618,-0.0483,-0.0183,0.0,0.0,0.0,0.0,0.0,0.0,0.0,0.0,0.0,0.0,0.0,0.0,0.0,0.0,0.0,0.0,0.0,0.0,0.0,0.0,0.0,0.0,0.0,0.0,0.0,0.0,0.0,0.0,0.0,0.0,0.0,0.0,0.0,0.0,-0.1729,-0.1948,-0.1955,0.0,0.0,0.0,0.0,0.0,0.0,0.0,0.0,0.0,0.0,-0.451,-0.4786,-0.5307,-0.5407,-0.5491,-0.575,-0.5996,-0.604,-0.5591,-0.5773,-0.5859,0.0,0.0,0.0,0.0,0.0,0.0,0.0,0.0,0.0,0.0,0.0,0.0,0.0,0.0,0.0,0.0,0.0,0.0,0.0,0.0,0.0,0.0,0.0,0.0,0.0,0.0,0.0,0.0399,0.0342,0.0,0.0,0.0,0.0,0.0,0.0,0.0,0.0,0.0,0.0,0.0,0.0247,0.0206,0.0,0.0,0.0,0.0,0.0,0.0,0.0,0.0,0.0,0.0,0.0,0.0,-0.0627,-0.0482,-0.0176,0.0,0.0,0.0,0.0,0.0,0.0087,0.0159,0.0208,0.0,0.0,0.0,0.0,0.0,0.0,0.0,0.0,0.0,0.0,0.0,0.0,0.0,0.0,0.0,0.0,0.0,0.0,0.0,0.0,0.0,0.0,0.0,0.0,0.0,-0.1427,0.0,0.0,0.0,0.0,0.0,0.0,0.0,0.0,0.0,0.0,0.0,-0.4092,-0.4414,-0.4452,-0.4667,-0.5196,-0.5424,-0.5554,0.0,0.0,0.0,0.0,0.0,0.0,0.0,0.0,0.0,0.0,0.0,0.0,0.0,0.0,-0.6891,-0.6421,-0.6122,-0.5781,-0.5192,0.0,0.0,0.0,0.0,0.0,0.0,0.0,0.0,0.0,0.0,0.0,0.0,0.0,0.0,0.0527,0.0,0.0501,0.0,0.0,0.0,0.0,0.0,0.0,0.0,0.0,0.0376,0.0335,0.0263,0.0215,0.0145,0.0,0.0026,0.0,0.0,0.0,0.0,0.0,0.0,0.0,0.0,0.0,-0.0599,-0.0474,-0.0157,0.0,0.0,0.0,0.0,0.0,0.013,0.0241,0.0339,0.0298,0.0243,0.0,0.0,0.0,0.0,0.0,0.0,0.0,0.0,0.0,0.0,0.0,0.0,0.0,0.0,0.0,0.0,0.0,0.0,0.0,0.0,0.0,0.0,0.0,-0.16,0.0,0.0,0.0,0.0,0.0,0.0,0.0,0.0,0.0,-0.3771,-0.4044,-0.435,-0.4603,-0.4734,-0.4988,-0.5414,0.0,0.0,0.0,0.0,0.0,0.0,0.0,-0.646,-0.655,-0.6887,-0.714,-0.728,-0.7564,-0.788,-0.8074,0.0,0.0,-0.7185,-0.6891,-0.6553,-0.5923,-0.6329,-0.6572,-0.5975,-0.6358,-0.693,0.0,0.0,0.0,0.0,0.0,0.0,0.0,0.0,0.0705,0.0712,0.0,0.0707,0.0,0.0,0.0,0.0,0.0,0.0399,0.0,0.0,0.0395,0.0401,0.0374,0.0241,0.0194,0.0177,0.0061,0.0,0.0,0.0,0.0,0.0,0.0,0.0,0.0,0.0,-0.0536,-0.0381,-0.0121,0.0,0.0,0.0,0.0,0.0,0.0132,0.0268,0.0394,0.0341,0.028,0.0216,0.0083,0.0,0.0,0.0,0.0,0.0,0.0,0.0,0.0,0.0,0.0,0.0,0.0,0.0,0.0,0.0,0.0,0.0,0.0,0.0,0.0,-0.1684,0.0,0.0,0.0,0.0,0.0,0.0,0.0,0.0,0.0,0.0,-0.378,-0.4408,-0.4906,-0.4931,0.0,0.0,0.0,0.0,-0.6419,-0.6413,-0.6653,-0.6701,-0.6383,-0.66,-0.6793,-0.6752,0.0,0.0,-0.8158,-0.8112,-0.8191,-0.8634,-0.8504,-0.8199,-0.7894,-0.7577,-0.7285,-0.6925,-0.6875,-0.6913,-0.6881,-0.6919,-0.7248,0.109,0.0,0.0,0.0,0.0,0.0846,0.0832,0.0851,0.0851,0.0847,0.0839,0.0839,0.0,0.0,0.0,0.0,0.0,0.0,0.0423,0.0452,0.0438,0.0326,0.0237,0.0208,0.015,0.0061,0.0031,0.0,0.0,0.0,-0.008,-0.0249,0.0,0.0,0.0,0.0,-0.0425,-0.0315,-0.0122,0.0,0.0,0.0,0.0049,0.012,0.0182,0.0281,0.0455,0.0463,0.0432,0.0347,0.0318,0.0,0.0,0.0,0.0,0.0,0.0,0.0,0.0,0.0,0.0,0.0,0.0,0.0,0.0,0.0,0.0,0.0,0.0,0.0,-0.1394,-0.1803,-0.199,0.0,0.0,0.0,0.0,0.0,0.0,0.0,0.0,0.0,-0.4338,-0.4626,-0.4979,0.0,0.0,-0.5979,-0.6252,-0.6684,-0.6981,-0.6975,-0.7036,0.0,-0.7022,-0.7134,-0.732,-0.7587,-0.8077,-0.848,-0.8683,-0.8733,-0.8854,-0.9068,-0.8821,-0.8566,-0.8576,-0.8159,-0.762,-0.7036,-0.7078,-0.7201,-0.6931,-0.7138,-0.753,0.1271,0.1108,0.1021,0.1021,0.1036,0.1004,0.1015,0.1031,0.1031,0.1031,0.1031,0.0987,0.0915,0.0855,0.0833,0.0,0.0,0.0,0.0594,0.0623,0.0444,0.0322,0.0227,0.0163,0.0065,0.0,0.0,0.0,0.0,0.0,-0.0031,-0.0111,0.0,0.0,-0.0393,-0.0359,-0.0325,-0.0266,-0.0102,0.0,0.0,0.0,0.005,0.0215,0.0233,0.0339,0.0498,0.0553,0.0542,0.0451,0.043,0.0312,0.0,0.0,0.0,0.0,0.0,0.0,0.0,0.0,0.0,0.0,0.0,-0.0731,-0.0767,0.0,0.0,0.0,-0.1135,-0.1323,-0.1598,-0.1855,0.0,0.0,0.0,0.0,0.0,0.0,0.0,-0.3532,-0.4005,-0.4379,-0.4607,-0.4932,-0.5312,-0.5772,-0.6108,-0.641,-0.6667,0.0,-0.7322,-0.7218,-0.7291,-0.7346,-0.7321,-0.7372,-0.7603,-0.8043,-0.831,-0.8574,-0.8746,-0.8845,-0.8926,-0.9023,-0.8985,-0.8872,-0.8835,-0.8593,-0.8242,-0.7633,-0.7704,-0.7769,-0.7515,-0.7747,-0.8057,0.1369,0.1313,0.1269,0.1224,0.121,0.121,0.1212,0.1214,0.1214,0.1214,0.1211,0.1146,0.1112,0.1109,0.1052,0.0,0.1008,0.0846,0.0858,0.0882,0.0509,0.0309,0.0281,0.0106,0.0,0.0,0.0,0.0,0.0,0.0,0.0,0.0,-0.0171,-0.0309,-0.0358,-0.0306,-0.0233,-0.0187,-0.0055,0.0,0.0,0.0,0.0052,0.0193,0.0312,0.0398,0.0493,0.0625,0.0617,0.0508,0.0446,0.0329,0.0138,0.0,0.0,0.0,0.0,0.0,0.0,0.0,0.0,0.0,0.0,0.0,0.0,0.0,0.0,0.0,-0.1343,0.0,-0.1794,-0.1886,0.0,0.0,0.0,-0.2378,-0.2508,-0.292,-0.3203,-0.3236,0.0,0.0,-0.4653,-0.5302,-0.5831,-0.6202,-0.6602,-0.6957,-0.72,-0.7449,-0.754,-0.7303,-0.7473,-0.7565,-0.7419,-0.7473,-0.7682,-0.8137,-0.8216,-0.8258,-0.8447,-0.8528,-0.8576,-0.868,-0.8947,-0.9101,-0.882,-0.8984,-0.9032,-0.8645,-0.8525,-0.8488,-0.8432,-0.8474,-0.8594,0.1485,0.1426,0.145,0.1362,0.1276,0.1274,0.1288,0.127,0.127,0.127,0.1269,0.1239,0.1182,0.1108,0.1072,0.1072,0.1066,0.0962,0.0872,0.0858,0.0465,0.0287,0.0289,0.0072,0.0,0.0,0.0,0.0,0.0,0.0,0.0,0.0,-0.0032,-0.0061,-0.0085,-0.0083,-0.0055,-0.0055,0.0,0.0,0.0,0.0,0.0054,0.0208,0.0222,0.0323,0.0494,0.0509,0.0568,0.0578,0.0562,0.0497,0.034,0.0339,0.0,0.0,0.0,0.0,0.0,0.0,0.0,0.0,0.0,-0.0853,-0.1041,0.0,-0.1291,0.0,-0.1744,-0.1935,-0.196,-0.2152,0.0,0.0,-0.2351,-0.2534,-0.2713,-0.305,-0.3324,-0.3504,-0.3935,-0.4339,-0.465,-0.5376,-0.6022,-0.6523,-0.7069,-0.7437,-0.7504,-0.7689,-0.7808,-0.7748,-0.7778,-0.7808,-0.778,-0.7788,-0.7852,-0.7978,-0.7942,-0.7913,-0.7983,-0.809,-0.8222,-0.8499,-0.8781,-0.903,-0.9261,-0.937,-0.9402,-0.9371,-0.894,-0.8515,-0.8515,-0.8567,-0.8636,0.1478,0.1478,0.1478,0.1468,0.1419,0.1363,0.1409,0.1381,0.1367,0.1369,0.138,0.1407,0.1313,0.1241,0.1262,0.1218,0.1183,0.1107,0.1071,0.1074,0.0767,0.061,0.0566,0.0377,0.0261,0.0254,0.0215,0.0211,0.0206,0.024,0.0242,0.0279,0.0279,0.0271,0.0256,0.0091,0.0,0.0,0.0,0.0,0.0,0.0,0.0056,0.0213,0.0252,0.0351,0.0486,0.0547,0.0571,0.0607,0.0603,0.0528,0.0401,0.0395,0.0323,0.0,0.0,0.0,0.0,0.0,0.0,0.0,0.0,0.0,0.0,0.0,-0.1444,-0.1792,-0.1989,-0.213,-0.2219,-0.2342,-0.2431,-0.2349,-0.243,-0.2546,-0.2642,-0.2881,-0.3074,-0.3189,-0.3561,-0.3981,-0.4478,-0.5397,-0.6256,-0.6849,-0.7475,-0.7858,-0.7762,-0.7838,-0.7901,-0.7907,-0.7997,-0.8075,-0.8075,-0.7973,-0.7901,-0.7916,-0.7939,-0.7917,-0.7725,-0.7885,-0.8149,-0.8352,-0.8659,-0.9033,-0.9415,-0.9543,-0.9603,-0.9599,-0.9354,-0.9078,-0.905,-0.905,-0.9115,0.1541,0.149,0.1538,0.1538,0.1536,0.1506,0.1488,0.1478,0.1448,0.1451,0.1475,0.1475,0.1442,0.1385,0.1384,0.1367,0.1295,0.1295,0.1322,0.1298,0.1094,0.0962,0.0904,0.0707,0.0621,0.0605,0.0553,0.0503,0.0526,0.0525,0.0533,0.0619,0.0619,0.0612,0.0597,0.0228,0.0062,0.0062,0.0062,0.0031,0.0031,0.003,0.0115,0.0215,0.0361,0.0429,0.0526,0.063,0.0679,0.0606,0.0608,0.0538,0.0439,0.0416,0.0337,0.0,0.0071,0.0,0.0,0.0,0.0,0.0,0.0,0.0,0.0,-0.1275,-0.1611,-0.2085,-0.2141,-0.2272,-0.2528,-0.2563,-0.2577,-0.257,-0.2593,-0.2588,-0.2577,-0.2667,-0.2753,-0.2753,-0.3041,-0.3489,-0.4204,-0.5387,-0.6405,-0.7005,-0.77,-0.8106,-0.8018,-0.7922,-0.7901,-0.7907,-0.8087,-0.8189,-0.8237,-0.8093,-0.7967,-0.7961,-0.8047,-0.8014,-0.7597,-0.7812,-0.8112,-0.8194,-0.8561,-0.8992,-0.9435,-0.9623,-0.973,-0.9785,-0.9692,-0.9638,-0.9638,-0.9629,-0.9703,0.1622,0.16,0.16,0.16,0.1596,0.1567,0.1574,0.1478,0.1448,0.1393,0.1399,0.1399,0.1368,0.1315,0.1314,0.1326,0.1314,0.1314,0.1311,0.1266,0.1028,0.0907,0.0904,0.0707,0.062,0.0605,0.059,0.0575,0.0595,0.0595,0.0568,0.0619,0.0619,0.0618,0.0613,0.0,0.0,0.0,0.0389,0.0332,0.0232,0.022,0.0297,0.0361,0.0391,0.0,0.0565,0.0641,0.0669,0.0615,0.0615,0.0,0.0,0.0,0.0,0.0,0.0,0.0,0.0,0.0,0.0,0.0,-0.0255,-0.0559,-0.1057,-0.1624,-0.2034,-0.2249,-0.2469,-0.2642,-0.2829,-0.2867,-0.2936,-0.3072,-0.308,-0.3023,-0.2937,-0.292,-0.2956,-0.2936,-0.3176,-0.3558,-0.4111,-0.5195,-0.6133,-0.6687,-0.7383,-0.7983,-0.8334,-0.8082,-0.7919,-0.7913,-0.8015,-0.8075,-0.8261,-0.8255,-0.8219,-0.8223,-0.8027,-0.7872,-0.7652,-0.7542,-0.7707,-0.8008,-0.8439,-0.896,-0.9542,-0.9703,-0.982,-1.0125,-0.9932,-0.9703,-0.9703,-0.9703,-0.9703,0.1659,0.0,0.1594,0.1594,0.0,0.1562,0.1523,0.148,0.1464,0.1458,0.1459,0.1428,0.1402,0.1346,0.1332,0.1336,0.1319,0.1303,0.1297,0.1298,0.1153,0.112,0.112,0.1011,0.0958,0.0925,0.0902,0.0916,0.0894,0.0893,0.0905,0.0891,0.0892,0.0886,0.091,0.083,0.0693,0.0506,0.0495,0.0438,0.0303,0.035,0.0393,0.0402,0.0476,0.0,0.0,0.0,0.0,0.0,0.0,0.0,0.0,0.0,0.0,0.0457,0.0448,0.0358,0.017,0.0182,0.013,0.0,-0.0208,-0.057,-0.1109,-0.1642,-0.2058,-0.2268,-0.26,-0.2871,-0.3023,-0.3126,-0.322,-0.33,-0.3308,-0.3237,-0.3107,-0.3107,-0.3107,-0.3121,-0.3288,-0.3588,-0.4042,-0.4944,-0.5788,-0.6451,-0.7145,-0.7755,-0.8142,-0.8175,-0.8171,-0.8445,-0.8379,-0.8409,-0.8626,-0.8549,-0.8512,-0.8475,-0.8261,-0.8003,-0.7766,-0.7753,-0.7866,-0.8231,-0.8648,-0.9147,-0.9722,-0.9901,-0.9954,-1.0135,-1.0098,-0.9927,-0.9828,-0.976,-0.9703,0.1577,0.157,0.1566,0.1566,0.1569,0.1539,0.1508,0.148,0.0,0.0,0.0,0.1507,0.1487,0.1389,0.1403,0.1358,0.1301,0.131,0.1297,0.1298,0.1329,0.1303,0.1304,0.1292,0.1319,0.1305,0.1234,0.1204,0.1175,0.1174,0.1184,0.1202,0.1204,0.1185,0.1186,0.1135,0.0929,0.0615,0.0598,0.0539,0.0404,0.048,0.052,0.0442,0.0567,0.0644,0.0729,0.0708,0.0714,0.0704,0.0709,0.0706,0.0696,0.0694,0.0652,0.0549,0.0549,0.0454,0.0282,0.0272,0.0191,0.0051,-0.018,-0.0558,-0.1103,-0.1523,-0.1901,-0.2246,-0.2645,-0.2973,-0.3179,-0.3309,-0.3409,-0.343,-0.3433,-0.3384,-0.3247,-0.3226,-0.3226,-0.3237,-0.3338,-0.3554,-0.4006,-0.4651,-0.5385,-0.6131,-0.6773,-0.7417,-0.7865,-0.8155,-0.8445,-0.8818,-0.874,-0.8758,-0.8927,-0.8896,-0.8753,-0.877,-0.856,-0.8301,-0.8063,-0.8009,-0.8189,-0.8473,-0.8877,-0.9322,-0.9892,-1.0033,-1.0079,-1.0117,-1.0205,-1.0262,-1.0167,-0.993,-0.9753,0.1595,0.157,0.1543,0.1547,0.1569,0.1539,0.1508,0.1478,0.1453,0.1457,0.148,0.1485,0.1468,0.1389,0.1403,0.1358,0.1302,0.131,0.1297,0.1298,0.1329,0.1303,0.1305,0.1292,0.133,0.1296,0.1305,0.1274,0.1209,0.1206,0.1195,0.1176,0.1173,0.1181,0.1126,0.1113,0.1061,0.0938,0.0995,0.0942,0.0741,0.0751,0.0719,0.0679,0.0678,0.0713,0.0787,0.0801,0.0765,0.0695,0.0761,0.0751,0.0699,0.0697,0.0691,0.0684,0.0668,0.0639,0.0539,0.0536,0.0445,0.0185,0.0027,-0.0294,-0.0888,-0.1319,-0.1738,-0.2187,-0.2563,-0.2901,-0.3172,-0.3316,-0.3455,-0.3569,-0.3586,-0.3536,-0.339,-0.3376,-0.3376,-0.3376,-0.339,-0.3503,-0.3843,-0.433,-0.4855,-0.5426,-0.6072,-0.6779,-0.7562,-0.8086,-0.84,-0.8686,-0.8734,-0.8722,-0.8812,-0.8945,-0.8993,-0.9041,-0.8788,-0.8512,-0.8271,-0.8086,-0.8132,-0.8378,-0.871,-0.9119,-0.9812,-0.9949,-1.0043,-1.0204,-1.0261,-1.0351,-1.0824,-1.0398,-0.9858,0.1575,0.1547,0.1532,0.1524,0.152,0.1443,0.1469,0.1455,0.1397,0.1398,0.1455,0.1457,0.1439,0.141,0.138,0.1343,0.1301,0.1311,0.1305,0.1324,0.1313,0.1294,0.1352,0.1338,0.1328,0.1328,0.1313,0.1282,0.124,0.1236,0.1259,0.119,0.1159,0.1128,0.1102,0.1084,0.1103,0.1057,0.1102,0.1003,0.0791,0.0878,0.0854,0.0696,0.075,0.0817,0.084,0.0834,0.0794,0.0744,0.0804,0.0799,0.0748,0.0769,0.0746,0.0746,0.0759,0.0712,0.0621,0.0456,0.0329,0.0192,0.0085,-0.0142,-0.0497,-0.085,-0.1288,-0.1797,-0.2307,-0.2766,-0.3103,-0.3442,-0.3643,-0.3724,-0.3704,-0.3657,-0.3553,-0.3528,-0.3528,-0.3498,-0.3501,-0.3547,-0.3685,-0.3969,-0.431,-0.4749,-0.5377,-0.6162,-0.7007,-0.7429,-0.7935,-0.8675,-0.8952,-0.9004,-0.8957,-0.9011,-0.9035,-0.8915,-0.8668,-0.8469,-0.8325,-0.8229,-0.8399,-0.8679,-0.8958,-0.9398,-1.0024,-1.0113,-1.0195,-1.0359,-1.0601,-1.0833,-1.088,-1.0484,-1.0059,0.1553,0.1478,0.1518,0.1498,0.1469,0.14,0.1391,0.1391,0.1391,0.1391,0.1391,0.1391,0.1422,0.1399,0.1327,0.1302,0.132,0.1331,0.1331,0.1314,0.1302,0.1327,0.1391,0.1421,0.1361,0.1311,0.1306,0.1316,0.1303,0.1297,0.1277,0.1199,0.114,0.1111,0.111,0.1088,0.1106,0.1067,0.1106,0.0996,0.084,0.0931,0.0949,0.0771,0.0848,0.0894,0.0891,0.084,0.0824,0.0817,0.0817,0.0814,0.0782,0.0813,0.082,0.0826,0.0808,0.0771,0.0688,0.048,0.0315,0.0344,0.0177,0.003,-0.0089,-0.037,-0.0789,-0.1348,-0.1975,-0.2505,-0.2924,-0.3362,-0.3655,-0.3716,-0.3742,-0.3698,-0.3627,-0.3613,-0.3613,-0.3613,-0.3613,-0.361,-0.3602,-0.369,-0.3923,-0.4362,-0.4857,-0.5539,-0.6259,-0.6713,-0.7424,-0.835,-0.8985,-0.9144,-0.9093,-0.9095,-0.8987,-0.8746,-0.8499,-0.8367,-0.8313,-0.8425,-0.8602,-0.8845,-0.9173,-0.9593,-1.0062,-1.0214,-1.0244,-1.0363,-1.0724,-1.103,-1.0893,-1.0882,-1.0477,0.1554,0.1477,0.15,0.1467,0.1399,0.1393,0.1392,0.1391,0.1391,0.1391,0.1391,0.1391,0.1389,0.1383,0.1399,0.1384,0.1378,0.131,0.13,0.1305,0.1373,0.1388,0.1394,0.1421,0.136,0.1312,0.1307,0.1319,0.1301,0.1295,0.1265,0.1207,0.1144,0.1115,0.1113,0.1111,0.1063,0.1006,0.1063,0.1062,0.1001,0.1007,0.0991,0.0957,0.0927,0.0895,0.0895,0.0891,0.0903,0.0878,0.0903,0.0862,0.0816,0.086,0.0888,0.0887,0.0886,0.0914,0.094,0.0825,0.0733,0.0736,0.044,0.0253,0.0216,0.0031,-0.0361,-0.102,-0.1586,-0.2035,-0.2491,-0.2923,-0.324,-0.3444,-0.3562,-0.3621,-0.3591,-0.3613,-0.3613,-0.3613,-0.3613,-0.3613,-0.3588,-0.3641,-0.3826,-0.4258,-0.4526,-0.4989,-0.5673,-0.6151,-0.6683,-0.7556,-0.8371,-0.8934,-0.9026,-0.9095,-0.8933,-0.8687,-0.8475,-0.8319,-0.8277,-0.8325,-0.8436,-0.8757,-0.9004,-0.9426,-0.9831,-1.0027,-1.0061,-1.0302,-1.0686,-1.108,-1.1168,-1.1435,-1.1322,0.1581,0.1552,0.1588,0.1517,0.1442,0.147,0.1462,0.1461,0.1397,0.1391,0.1391,0.1391,0.1391,0.139,0.1422,0.1416,0.1416,0.1361,0.1356,0.1356,0.1368,0.1417,0.1418,0.1384,0.1412,0.1376,0.1373,0.1341,0.1284,0.1269,0.1227,0.1199,0.114,0.1109,0.1109,0.1109,0.1061,0.1003,0.1061,0.107,0.1059,0.1079,0.1032,0.1016,0.0971,0.0942,0.0903,0.0941,0.0937,0.0911,0.0951,0.0956,0.0915,0.0955,0.0938,0.0951,0.0962,0.0975,0.1018,0.0864,0.0803,0.0803,0.0476,0.0321,0.0286,0.0095,-0.0158,-0.0527,-0.0995,-0.1484,-0.2046,-0.2545,-0.2963,-0.3195,-0.3498,-0.369,-0.3619,-0.3676,-0.369,-0.363,-0.3613,-0.3613,-0.3624,-0.3671,-0.3816,-0.4082,-0.4218,-0.459,-0.5104,-0.5417,-0.5949,-0.6668,-0.7442,-0.809,-0.847,-0.8693,-0.8581,-0.8339,-0.8163,-0.8063,-0.8111,-0.8397,-0.859,-0.8698,-0.9053,-0.9418,-0.9926,-1.0015,-1.0059,-1.0347,-1.0842,-1.1342,-1.1711,-1.1669,-1.1344,0.1599,0.1573,0.1562,0.1546,0.1477,0.1493,0.148,0.1476,0.1403,0.1391,0.1391,0.1391,0.1391,0.1391,0.1391,0.1391,0.1391,0.1391,0.1391,0.1391,0.1391,0.1391,0.1391,0.1391,0.1419,0.1394,0.1389,0.1359,0.1299,0.1221,0.1174,0.1196,0.1114,0.1084,0.111,0.1109,0.1065,0.105,0.1073,0.1089,0.1089,0.113,0.1082,0.1016,0.0997,0.0965,0.0917,0.0972,0.0974,0.0915,0.0972,0.1019,0.1019,0.0996,0.1004,0.1043,0.1012,0.1044,0.1012,0.0917,0.0885,0.0856,0.0614,0.0425,0.0425,0.0261,0.0131,0.0,-0.0339,-0.0828,-0.1584,-0.2155,-0.2584,-0.2934,-0.3424,-0.3704,-0.361,-0.3706,-0.3746,-0.3615,-0.3613,-0.3613,-0.363,-0.3706,-0.3827,-0.3988,-0.4091,-0.4287,-0.4694,-0.5036,-0.5419,-0.6098,-0.67,-0.7297,-0.7925,-0.8291,-0.8218,-0.8044,-0.7925,-0.7949,-0.7997,-0.8445,-0.8776,-0.8878,-0.9232,-0.9538,-0.9817,-0.9951,-1.0142,-1.0577,-1.1048,-1.1496,-1.1746,-1.1459,-1.1291,0.1599,0.1619,0.154,0.1484,0.1477,0.1496,0.1483,0.1485,0.1451,0.1392,0.1393,0.1391,0.1391,0.1391,0.1391,0.1391,0.1391,0.1391,0.1391,0.1391,0.1391,0.1391,0.1391,0.139,0.142,0.1395,0.1394,0.1364,0.1305,0.1241,0.1195,0.1203,0.1134,0.1104,0.1116,0.1111,0.1109,0.1074,0.1103,0.1084,0.1122,0.1183,0.1169,0.1115,0.1023,0.0983,0.0922,0.0973,0.0975,0.0915,0.0975,0.1022,0.0992,0.1017,0.1042,0.1098,0.1103,0.1103,0.1101,0.1067,0.1067,0.1036,0.0869,0.0774,0.074,0.0605,0.0505,0.0539,0.0301,-0.0228,-0.1062,-0.1602,-0.2116,-0.2577,-0.3207,-0.352,-0.3522,-0.3786,-0.3784,-0.3659,-0.3618,-0.3629,-0.361,-0.3712,-0.3914,-0.4077,-0.4224,-0.4464,-0.4775,-0.5039,-0.5386,-0.5862,-0.6375,-0.688,-0.7583,-0.8004,-0.8097,-0.804,-0.8011,-0.8027,-0.8255,-0.8501,-0.8788,-0.9029,-0.9318,-0.9544,-0.9728,-0.9926,-1.0206,-1.0604,-1.1069,-1.1477,-1.1609,-1.1202,-1.1045,0.2163,0.185,0.1639,0.1584,0.1581,0.1551,0.1538,0.1534,0.1485,0.1464,0.1461,0.1444,0.1391,0.1391,0.1391,0.1391,0.1391,0.1391,0.1391,0.1391,0.1391,0.1391,0.1391,0.1391,0.1386,0.1421,0.1419,0.1399,0.1354,0.1279,0.1274,0.1252,0.1154,0.1115,0.1104,0.1085,0.1109,0.1114,0.1158,0.1187,0.1188,0.118,0.1184,0.1162,0.1105,0.1008,0.0974,0.1018,0.1022,0.0944,0.1018,0.1077,0.1078,0.1054,0.1097,0.1107,0.1109,0.1109,0.1109,0.1109,0.1109,0.1076,0.0909,0.085,0.0826,0.0726,0.0626,0.0564,0.0425,0.0035,-0.0379,-0.0934,-0.1531,-0.2191,-0.29,-0.3385,-0.357,-0.3869,-0.4077,-0.3871,-0.3779,-0.3779,-0.38,-0.3977,-0.4194,-0.4325,-0.451,-0.4717,-0.4851,-0.4972,-0.512,-0.5518,-0.5885,-0.6287,-0.6821,-0.7522,-0.7949,-0.8119,-0.8184,-0.8344,-0.858,-0.8783,-0.9053,-0.9119,-0.9366,-0.9524,-0.9708,-0.9958,-1.0212,-1.046,-1.0958,-1.1097,-1.1345,-1.082,-1.0793,0.2624,0.2121,0.1718,0.1566,0.1562,0.1584,0.1572,0.1564,0.1507,0.148,0.1474,0.1448,0.1391,0.1393,0.1445,0.145,0.1403,0.1395,0.1391,0.1391,0.1391,0.1391,0.1391,0.1391,0.1391,0.1389,0.1425,0.1409,0.1383,0.1352,0.1308,0.1291,0.1184,0.114,0.1121,0.1169,0.1189,0.1259,0.1373,0.1444,0.1532,0.1569,0.159,0.1617,0.1524,0.1332,0.104,0.1042,0.1039,0.1004,0.1077,0.1109,0.1109,0.1109,0.1109,0.1109,0.1109,0.1114,0.1089,0.1091,0.1129,0.1139,0.1038,0.0942,0.0992,0.0858,0.0798,0.0772,0.0596,0.0411,0.0223,-0.0145,-0.0775,-0.1603,-0.2438,-0.3017,-0.3243,-0.3768,-0.4014,-0.3926,-0.3887,-0.3895,-0.3924,-0.4113,-0.4259,-0.4435,-0.4594,-0.4757,-0.4855,-0.4836,-0.4884,-0.5285,-0.557,-0.5937,-0.646,-0.7149,-0.7817,-0.8074,-0.8431,-0.8618,-0.8871,-0.9093,-0.9203,-0.9257,-0.9373,-0.9526,-0.974,-0.9958,-1.0149,-1.0339,-1.0446,-1.0595,-1.0557,-1.0405,-1.0386,0.2924,0.2422,0.1818,0.1717,0.1765,0.1736,0.1672,0.1712,0.1654,0.1677,0.1722,0.1545,0.1581,0.1491,0.1608,0.1527,0.1569,0.1502,0.1445,0.1445,0.1398,0.1396,0.1395,0.1395,0.1393,0.1389,0.1407,0.1394,0.1391,0.1337,0.1294,0.1302,0.123,0.1181,0.109,0.1296,0.1484,0.16,0.1803,0.2024,0.2292,0.2348,0.242,0.249,0.2356,0.2,0.1204,0.1104,0.1091,0.1068,0.108,0.1109,0.1117,0.1118,0.1114,0.1118,0.1114,0.1093,0.1082,0.1121,0.1133,0.1186,0.1198,0.1159,0.1132,0.1151,0.113,0.11,0.0963,0.0821,0.082,0.0621,0.0038,-0.0959,-0.1784,-0.2319,-0.2656,-0.3311,-0.3864,-0.3919,-0.3946,-0.3916,-0.394,-0.4099,-0.4238,-0.4341,-0.4492,-0.4613,-0.4728,-0.4734,-0.4848,-0.5135,-0.5351,-0.5649,-0.6187,-0.6809,-0.7473,-0.8067,-0.8517,-0.8832,-0.918,-0.9435,-0.9376,-0.9388,-0.9516,-0.9651,-0.9604,-0.9829,-0.9906,-1.0059,-1.0079,-1.0129,-1.0091,-1.003,-0.9847,0.3979,0.3479,0.2928,0.2675,0.2724,0.2709,0.2703,0.2695,0.2678,0.2699,0.2641,0.2595,0.2478,0.2292,0.2119,0.203,0.2077,0.2017,0.1824,0.1544,0.1498,0.1485,0.1514,0.1466,0.1455,0.1392,0.1382,0.1421,0.1413,0.1423,0.1356,0.1339,0.1317,0.1225,0.122,0.1465,0.1694,0.196,0.2279,0.26,0.2983,0.3104,0.3172,0.3203,0.3244,0.3122,0.2844,0.2067,0.1588,0.1409,0.1358,0.1256,0.1204,0.1173,0.1174,0.1174,0.1174,0.1176,0.1186,0.1153,0.1156,0.1202,0.1203,0.1178,0.1194,0.1206,0.1222,0.1238,0.1057,0.0904,0.0864,0.0707,0.0351,-0.0269,-0.081,-0.1441,-0.2057,-0.296,-0.3708,-0.4123,-0.4186,-0.4186,-0.4202,-0.4278,-0.4344,-0.4427,-0.4536,-0.4632,-0.4668,-0.4662,-0.4801,-0.5017,-0.5171,-0.5361,-0.5893,-0.6415,-0.6981,-0.771,-0.8289,-0.8902,-0.9332,-0.9591,-0.9536,-0.958,-0.9709,-0.9715,-0.9663,-0.9697,-0.9831,-0.9885,-0.9982,-0.9996,-0.9926,-0.9808,-0.9701,0.5085,0.4585,0.4031,0.378,0.378,0.378,0.3778,0.3768,0.3803,0.3772,0.3804,0.3693,0.3474,0.3146,0.278,0.2647,0.2653,0.2617,0.2578,0.2376,0.2153,0.2076,0.2036,0.2018,0.2001,0.1978,0.1972,0.1928,0.197,0.1932,0.191,0.189,0.1844,0.1768,0.176,0.201,0.2279,0.2604,0.2917,0.3287,0.3655,0.386,0.3966,0.3986,0.4091,0.4137,0.4084,0.3223,0.2484,0.1959,0.1542,0.1291,0.1201,0.1201,0.1203,0.1203,0.1203,0.1207,0.1181,0.1184,0.1189,0.1234,0.1238,0.1246,0.1225,0.1228,0.1278,0.1253,0.1179,0.1061,0.1022,0.0943,0.0746,0.0511,-0.0078,-0.0767,-0.1648,-0.2614,-0.3425,-0.3922,-0.4123,-0.42,-0.4288,-0.4349,-0.444,-0.4457,-0.4509,-0.4558,-0.4555,-0.4515,-0.4666,-0.4792,-0.4912,-0.5224,-0.5615,-0.607,-0.6532,-0.7274,-0.7975,-0.8705,-0.93,-0.9582,-0.9618,-0.9816,-0.9937,-0.9949,-0.991,-0.9895,-0.9988,-0.9962,-0.9984,-0.9853,-0.9785,-0.985,-0.9734,0.6134,0.5634,0.5077,0.4874,0.4874,0.4876,0.4876,0.4862,0.4888,0.4901,0.4882,0.4829,0.4502,0.3986,0.3556,0.3336,0.3299,0.3336,0.3603,0.3824,0.3655,0.3376,0.3174,0.3062,0.3025,0.3016,0.296,0.2955,0.2952,0.2946,0.2912,0.286,0.2752,0.27,0.2749,0.2887,0.3167,0.3469,0.3728,0.407,0.4455,0.4662,0.4778,0.4846,0.4946,0.4994,0.4937,0.4402,0.361,0.2515,0.1773,0.1398,0.1285,0.1245,0.1287,0.1253,0.121,0.1189,0.1208,0.1214,0.1224,0.1284,0.1286,0.1297,0.1292,0.1291,0.1292,0.1296,0.1297,0.1258,0.1258,0.1258,0.1218,0.1178,0.0508,-0.042,-0.1582,-0.2287,-0.2891,-0.3542,-0.3871,-0.4056,-0.4217,-0.4292,-0.4306,-0.4298,-0.4311,-0.4341,-0.4311,-0.4353,-0.44,-0.4501,-0.4631,-0.4917,-0.5244,-0.5542,-0.5996,-0.6581,-0.7352,-0.8107,-0.9062,-0.9427,-0.9742,-0.9959,-1.0178,-1.0172,-1.0118,-1.0119,-1.0125,-1.0165,-1.0034,-0.9805,-0.9801,-0.989,-0.9869,0.6789,0.6439,0.6134,0.5982,0.5982,0.5982,0.5982,0.5979,0.5951,0.5978,0.5978,0.596,0.564,0.5111,0.4632,0.4399,0.4405,0.437,0.4682,0.5175,0.5487,0.5003,0.4411,0.4137,0.4068,0.4061,0.3961,0.3933,0.3931,0.3907,0.3896,0.3894,0.374,0.3692,0.3763,0.3823,0.4063,0.4344,0.4581,0.4792,0.5088,0.5358,0.5525,0.554,0.5773,0.5873,0.5851,0.5201,0.4178,0.2942,0.2431,0.2079,0.1957,0.1803,0.1648,0.1496,0.1346,0.1273,0.128,0.1283,0.1288,0.1295,0.1297,0.1297,0.1297,0.1297,0.1297,0.1297,0.1297,0.1297,0.1297,0.1297,0.1297,0.1254,0.0815,0.0229,-0.056,-0.1229,-0.2036,-0.2939,-0.3396,-0.3735,-0.4047,-0.421,-0.4262,-0.4181,-0.4238,-0.4276,-0.4238,-0.4208,-0.426,-0.4216,-0.4325,-0.458,-0.4847,-0.5078,-0.5463,-0.5905,-0.6548,-0.7249,-0.8292,-0.9223,-0.9618,-0.9979,-1.0419,-1.0509,-1.0352,-1.026,-1.0286,-1.034,-1.0124,-0.9925,-1.0077,-1.0187,-1.0112,0.7441,0.7291,0.7138,0.7089,0.7089,0.7086,0.7086,0.7086,0.7086,0.7086,0.7086,0.7089,0.6786,0.6237,0.5734,0.5484,0.5486,0.5486,0.5784,0.6284,0.6778,0.6405,0.5584,0.5214,0.5071,0.5059,0.4966,0.4919,0.487,0.4914,0.487,0.4842,0.4758,0.4704,0.467,0.4713,0.4737,0.4906,0.5055,0.5232,0.5396,0.5624,0.5732,0.5823,0.6044,0.6145,0.6044,0.555,0.4699,0.378,0.3265,0.2938,0.2586,0.2273,0.204,0.1766,0.1453,0.1296,0.1297,0.1297,0.1297,0.1297,0.1297,0.1297,0.1297,0.1297,0.1297,0.1297,0.1297,0.1297,0.1297,0.1297,0.1297,0.1255,0.1086,0.0727,0.0189,-0.0548,-0.1385,-0.2197,-0.2865,-0.3352,-0.3811,-0.4027,-0.412,-0.4151,-0.4235,-0.4243,-0.4197,-0.417,-0.4154,-0.4178,-0.4238,-0.4473,-0.4752,-0.4976,-0.5288,-0.572,-0.6215,-0.6798,-0.7766,-0.8892,-0.9583,-1.005,-1.0526,-1.0791,-1.0593,-1.0426,-1.0466,-1.0424,-1.0208,-1.0184,-1.0355,-1.036,-1.0294,0.7988,0.7988,0.7988,0.7988,0.7939,0.7988,0.7889,0.7939,0.7889,0.7889,0.7889,0.7939,0.759,0.7241,0.6589,0.6437,0.6437,0.6384,0.6786,0.7188,0.758,0.7322,0.6571,0.6275,0.6174,0.6091,0.595,0.5891,0.5886,0.5872,0.5852,0.5819,0.5771,0.567,0.5588,0.5553,0.5413,0.5353,0.5361,0.539,0.5457,0.5583,0.5671,0.5813,0.6006,0.6073,0.5992,0.5747,0.5318,0.4654,0.4185,0.3717,0.3288,0.2862,0.247,0.2118,0.1765,0.1532,0.1414,0.1453,0.1375,0.1375,0.1336,0.1297,0.1297,0.1297,0.1297,0.1297,0.1297,0.1297,0.1297,0.1297,0.1297,0.1296,0.1256,0.1009,0.0532,-0.0037,-0.0722,-0.1517,-0.2132,-0.2792,-0.3348,-0.3748,-0.3992,-0.4189,-0.4276,-0.4325,-0.4325,-0.4317,-0.4292,-0.4265,-0.4345,-0.4444,-0.4684,-0.4928,-0.5241,-0.5644,-0.6145,-0.6752,-0.7509,-0.8514,-0.9426,-1.0042,-1.0276,-1.0521,-1.0695,-1.0657,-1.0581,-1.0617,-1.0503,-1.0569,-1.0653,-1.0508,-1.0439,0.7988,0.7988,0.7988,0.7988,0.7988,0.7988,0.7988,0.7988,0.7988,0.7988,0.7988,0.7988,0.7842,0.749,0.7188,0.7039,0.7039,0.7036,0.7338,0.7789,0.7889,0.7925,0.7556,0.7395,0.7334,0.7263,0.7115,0.7008,0.6934,0.6748,0.6786,0.6722,0.6583,0.6612,0.6489,0.6244,0.6189,0.6028,0.5822,0.5614,0.5559,0.5607,0.5671,0.582,0.6064,0.6207,0.6205,0.6183,0.6064,0.5747,0.516,0.4574,0.4148,0.3722,0.3329,0.2898,0.2469,0.2158,0.2,0.1844,0.1688,0.1532,0.1375,0.1297,0.1297,0.1297,0.1297,0.1297,0.1297,0.1298,0.13,0.1298,0.13,0.1301,0.1299,0.1247,0.0988,0.0629,0.0073,-0.0472,-0.1188,-0.1941,-0.2786,-0.3299,-0.3685,-0.411,-0.4305,-0.4417,-0.4433,-0.4399,-0.4395,-0.4323,-0.4424,-0.4519,-0.4645,-0.4896,-0.5176,-0.5522,-0.5989,-0.644,-0.7217,-0.795,-0.8774,-0.9374,-0.982,-1.0099,-1.0314,-1.0373,-1.0208,-1.0477,-1.0742,-1.0773,-1.0749,-1.0635,-1.0593,0.7988,0.7988,0.7988,0.7988,0.7988,0.7988,0.7988,0.7988,0.7988,0.7988,0.7988,0.7988,0.7942,0.7793,0.764,0.7587,0.7587,0.7587,0.7739,0.7939,0.7988,0.7988,0.7982,0.7957,0.7889,0.7784,0.7509,0.7387,0.7333,0.7227,0.7051,0.7095,0.7018,0.6853,0.6837,0.6654,0.642,0.6166,0.6003,0.5813,0.563,0.5661,0.5762,0.5911,0.6129,0.63,0.6296,0.63,0.63,0.618,0.5867,0.5395,0.4968,0.4579,0.4148,0.372,0.3327,0.2938,0.2665,0.2352,0.204,0.1766,0.1492,0.1336,0.1297,0.1297,0.1297,0.1297,0.1298,0.13,0.1316,0.1319,0.1319,0.1318,0.1318,0.1304,0.1195,0.0933,0.0582,0.0109,-0.0555,-0.1309,-0.2025,-0.2605,-0.3151,-0.3491,-0.3885,-0.4025,-0.424,-0.423,-0.4383,-0.4423,-0.4474,-0.4553,-0.4662,-0.4865,-0.5115,-0.5425,-0.577,-0.6135,-0.6654,-0.7302,-0.7999,-0.8546,-0.9084,-0.9458,-0.9648,-0.9743,-1.0008,-1.0398,-1.0677,-1.0813,-1.0869,-1.0755,-1.0779,0.7988,0.7988,0.7988,0.7988,0.7988,0.7988,0.7988,0.7988,0.7988,0.7988,0.7988,0.7988,0.7988,0.7988,0.7988,0.7988,0.7988,0.7939,0.7988,0.7988,0.7988,0.7988,0.7985,0.7965,0.7914,0.7818,0.7563,0.7434,0.7377,0.7234,0.7098,0.7095,0.7095,0.6937,0.6766,0.6685,0.6498,0.6156,0.6006,0.5895,0.5694,0.5739,0.5857,0.601,0.6166,0.6293,0.63,0.63,0.63,0.63,0.63,0.6106,0.575,0.5318,0.4927,0.454,0.4146,0.3793,0.3366,0.2978,0.2547,0.2077,0.1648,0.1413,0.1375,0.1336,0.1297,0.13,0.1303,0.132,0.1305,0.131,0.1309,0.1308,0.1306,0.1286,0.1251,0.1052,0.0807,0.0542,0.0071,-0.0587,-0.1202,-0.1769,-0.2346,-0.2875,-0.3295,-0.3668,-0.3891,-0.4172,-0.4313,-0.4514,-0.4599,-0.4629,-0.4697,-0.4824,-0.5104,-0.5273,-0.5572,-0.5821,-0.6139,-0.6624,-0.7247,-0.7795,-0.8318,-0.8661,-0.9021,-0.9195,-0.959,-1.0189,-1.0562,-1.0713,-1.0813,-1.0869,-1.093,0.7988,0.7988,0.7988,0.7988,0.7988,0.7988,0.7988,0.7988,0.7988,0.7988,0.7988,0.7988,0.7988,0.7988,0.7988,0.7988,0.7988,0.7988,0.7988,0.7988,0.7988,0.7988,0.7988,0.7988,0.7965,0.7884,0.7712,0.7563,0.7478,0.725,0.7109,0.7095,0.7085,0.693,0.6773,0.6681,0.6532,0.623,0.6105,0.5949,0.5827,0.5806,0.5898,0.6044,0.6193,0.6289,0.63,0.63,0.63,0.63,0.63,0.6261,0.6067,0.5715,0.5398,0.5162,0.4965,0.4613,0.4187,0.38,0.3294,0.2705,0.2118,0.1727,0.1571,0.1378,0.1305,0.1311,0.1326,0.1307,0.1295,0.1296,0.1297,0.1293,0.1313,0.1282,0.1237,0.1177,0.1135,0.0945,0.059,0.0179,-0.0464,-0.1001,-0.1514,-0.2073,-0.2534,-0.3083,-0.3528,-0.3929,-0.4347,-0.4521,-0.4732,-0.4765,-0.4774,-0.4901,-0.5049,-0.5165,-0.5393,-0.554,-0.579,-0.6013,-0.6472,-0.7114,-0.7547,-0.7825,-0.8176,-0.8562,-0.9062,-0.9583,-1.0061,-1.0573,-1.073,-1.0812,-1.099,0.7988,0.7988,0.7988,0.7988,0.7988,0.7988,0.7988,0.7988,0.7988,0.7988,0.7988,0.7988,0.7988,0.7988,0.7988,0.7988,0.7988,0.7988,0.7988,0.7988,0.7988,0.7988,0.7988,0.7988,0.7988,0.7931,0.7769,0.7662,0.7577,0.7285,0.7119,0.7078,0.7031,0.6873,0.6725,0.661,0.6515,0.6317,0.6179,0.6071,0.5932,0.5882,0.5996,0.6129,0.621,0.6293,0.63,0.63,0.63,0.63,0.63,0.63,0.6229,0.6116,0.5915,0.5799,0.5673,0.5476,0.5049,0.4659,0.4112,0.3372,0.2668,0.2078,0.1772,0.1509,0.1366,0.1303,0.1313,0.1338,0.1365,0.1315,0.1307,0.1301,0.1321,0.1283,0.1249,0.1237,0.1281,0.1249,0.0901,0.0512,0.0183,-0.0295,-0.0714,-0.1223,-0.1787,-0.2361,-0.2986,-0.3523,-0.396,-0.448,-0.4686,-0.4855,-0.4858,-0.4936,-0.5056,-0.5133,-0.5279,-0.5428,-0.56,-0.5872,-0.6117,-0.6526,-0.682,-0.7126,-0.7399,-0.7795,-0.8385,-0.9008,-0.9599,-1.0153,-1.0539,-1.0807,-1.0925,0.7988,0.7988,0.7988,0.7988,0.7988,0.7988,0.7988,0.7988,0.7988,0.7988,0.7988,0.7988,0.7988,0.7988,0.7988,0.7988,0.7988,0.7988,0.7988,0.7988,0.7988,0.7988,0.7988,0.7988,0.7988,0.7965,0.7826,0.7753,0.7624,0.7353,0.7214,0.7153,0.7034,0.6851,0.6709,0.6566,0.6443,0.634,0.6293,0.6224,0.6101,0.6023,0.6078,0.6289,0.6323,0.6347,0.6358,0.6412,0.638,0.638,0.6412,0.6405,0.6392,0.6388,0.6388,0.6381,0.6337,0.607,0.5673,0.5323,0.4737,0.4036,0.3231,0.2684,0.2226,0.1943,0.1571,0.1475,0.1442,0.1411,0.139,0.1331,0.1319,0.135,0.1326,0.1292,0.1306,0.129,0.1281,0.1194,0.105,0.0898,0.0602,0.0536,0.0156,-0.0158,-0.0681,-0.1335,-0.2,-0.2776,-0.3385,-0.4185,-0.4622,-0.486,-0.4936,-0.499,-0.5099,-0.5146,-0.5287,-0.5449,-0.565,-0.5856,-0.6009,-0.6171,-0.6277,-0.6553,-0.6812,-0.7142,-0.7744,-0.8432,-0.916,-0.9695,-0.9992,-1.0331,-1.0556,0.7988,0.7988,0.7985,0.7988,0.7978,0.7975,0.7985,0.7982,0.7982,0.7988,0.7988,0.7988,0.7988,0.7988,0.7988,0.7988,0.7988,0.7988,0.7988,0.7988,0.7988,0.7988,0.7988,0.7988,0.7988,0.7971,0.7847,0.7814,0.7712,0.7482,0.7339,0.7278,0.7054,0.6815,0.6736,0.6559,0.6443,0.6327,0.6296,0.6279,0.6224,0.5986,0.6034,0.6265,0.6409,0.648,0.6497,0.6576,0.66,0.6614,0.6627,0.6641,0.6647,0.6647,0.6651,0.6573,0.6434,0.618,0.5931,0.5719,0.537,0.472,0.4079,0.3588,0.3097,0.2605,0.2198,0.203,0.186,0.1608,0.1451,0.1395,0.1386,0.1359,0.1324,0.1331,0.1304,0.1296,0.1289,0.1284,0.1184,0.1197,0.1091,0.1113,0.1052,0.0735,0.0371,-0.0333,-0.1127,-0.208,-0.2962,-0.379,-0.4353,-0.4589,-0.4756,-0.4857,-0.5018,-0.5111,-0.5339,-0.5504,-0.5656,-0.5768,-0.5829,-0.591,-0.6011,-0.6162,-0.6503,-0.6887,-0.7281,-0.7778,-0.8433,-0.8947,-0.9322,-0.9695,-1.003,0.7909,0.7902,0.7824,0.779,0.7801,0.7826,0.786,0.788,0.7955,0.7988,0.7988,0.7988,0.7988,0.7988,0.7988,0.7988,0.7988,0.7988,0.7988,0.7988,0.7988,0.7988,0.7988,0.7988,0.7988,0.7971,0.7931,0.7907,0.7828,0.7587,0.7373,0.7339,0.7095,0.6866,0.682,0.6593,0.6508,0.6392,0.6244,0.6186,0.6183,0.6081,0.6071,0.6399,0.6477,0.6552,0.6603,0.6651,0.6698,0.6702,0.6702,0.6698,0.6698,0.6695,0.6695,0.6685,0.6593,0.6478,0.6354,0.6263,0.5925,0.5534,0.5012,0.4522,0.3905,0.3355,0.2892,0.256,0.2186,0.1836,0.1528,0.1366,0.1348,0.1328,0.1308,0.1328,0.1303,0.13,0.1293,0.1289,0.1288,0.1304,0.1319,0.1298,0.1199,0.0968,0.0635,0.0171,-0.0765,-0.1853,-0.2695,-0.3487,-0.3928,-0.4304,-0.4415,-0.4531,-0.4839,-0.4986,-0.5301,-0.5465,-0.558,-0.5677,-0.5744,-0.579,-0.59,-0.6066,-0.6244,-0.6521,-0.6831,-0.7256,-0.7708,-0.8168,-0.8621,-0.8937,-0.9205,0.7794,0.774,0.7675,0.7597,0.7607,0.7716,0.7784,0.7831,0.7929,0.7951,0.7985,0.7988,0.7988,0.7988,0.7988,0.7988,0.7988,0.7988,0.7988,0.7988,0.7988,0.7988,0.7988,0.7988,0.7988,0.7988,0.7975,0.7968,0.7916,0.7712,0.7512,0.7465,0.7227,0.7122,0.7052,0.6899,0.6746,0.656,0.6221,0.6135,0.6238,0.6067,0.621,0.6383,0.6559,0.6597,0.6732,0.6771,0.6827,0.6831,0.6841,0.6854,0.6848,0.6858,0.6851,0.6851,0.6814,0.6814,0.6731,0.6656,0.6504,0.6207,0.5832,0.5236,0.4685,0.4148,0.3682,0.3347,0.2744,0.2234,0.1728,0.1514,0.1409,0.1348,0.1321,0.1307,0.1297,0.1296,0.1298,0.1298,0.1305,0.129,0.1305,0.132,0.1263,0.1123,0.0872,0.0568,-0.0347,-0.1412,-0.2071,-0.2741,-0.3239,-0.3614,-0.3878,-0.4071,-0.443,-0.4841,-0.5154,-0.539,-0.5483,-0.5561,-0.565,-0.5697,-0.5747,-0.5823,-0.591,-0.615,-0.6382,-0.6901,-0.7325,-0.7592,-0.7952,-0.8197,-0.8351,0.7717,0.7678,0.7633,0.7584,0.7584,0.7607,0.7685,0.7773,0.7814,0.7919,0.8031,0.8038,0.8038,0.8038,0.8088,0.8088,0.8038,0.7988,0.8088,0.8088,0.7988,0.8088,0.8137,0.8088,0.8088,0.8038,0.8137,0.8088,0.8004,0.7921,0.7773,0.7736,0.7537,0.7542,0.7499,0.731,0.6995,0.6696,0.628,0.6135,0.6186,0.6162,0.6207,0.6451,0.6617,0.6756,0.6905,0.696,0.7011,0.7011,0.7001,0.7001,0.6987,0.6991,0.6987,0.6987,0.6991,0.6991,0.7007,0.6829,0.6656,0.637,0.6147,0.5915,0.5569,0.5161,0.4694,0.42,0.3548,0.2819,0.2257,0.1828,0.1569,0.1383,0.1317,0.1296,0.1291,0.1296,0.1298,0.1303,0.1319,0.1302,0.1329,0.1344,0.1366,0.1268,0.1149,0.0842,0.0264,-0.0654,-0.1213,-0.1838,-0.2399,-0.2818,-0.317,-0.3454,-0.3826,-0.4412,-0.4864,-0.5123,-0.5393,-0.5451,-0.5485,-0.5552,-0.5588,-0.5546,-0.5612,-0.5962,-0.6331,-0.665,-0.6933,-0.7079,-0.7198,-0.7367,-0.752,0.7818,0.7916,0.766,0.7552,0.7514,0.7513,0.7535,0.7567,0.7733,0.7993,0.8233,0.8283,0.8333,0.8432,0.8482,0.8482,0.8482,0.8482,0.8482,0.8482,0.8482,0.8482,0.8482,0.8482,0.8531,0.8482,0.8482,0.8382,0.8269,0.8153,0.8157,0.8105,0.7935,0.7826,0.7773,0.7656,0.7257,0.6866,0.6464,0.6262,0.622,0.6276,0.6312,0.6593,0.6759,0.6862,0.6994,0.7058,0.7088,0.7139,0.7139,0.7139,0.7183,0.7139,0.7139,0.7136,0.7132,0.7126,0.7129,0.7021,0.6933,0.6847,0.6723,0.6552,0.6428,0.6118,0.5675,0.5082,0.4339,0.3556,0.2693,0.2147,0.1756,0.1458,0.1321,0.1378,0.133,0.1377,0.1292,0.1293,0.1322,0.1311,0.134,0.1369,0.1392,0.1372,0.1248,0.1075,0.0534,0.0044,-0.0479,-0.0907,-0.1446,-0.1916,-0.2244,-0.2723,-0.3248,-0.3863,-0.4489,-0.4805,-0.5082,-0.5271,-0.5317,-0.5377,-0.5446,-0.545,-0.563,-0.5956,-0.6196,-0.6375,-0.6447,-0.6489,-0.6569,-0.666,-0.6755,0.7979,0.8102,0.7812,0.7635,0.7476,0.7351,0.7333,0.7414,0.7638,0.8007,0.8379,0.8482,0.8627,0.8775,0.8775,0.8775,0.8726,0.8726,0.8775,0.8775,0.8726,0.8775,0.8775,0.8775,0.873,0.8775,0.8775,0.8627,0.8382,0.8478,0.8418,0.8399,0.8382,0.8383,0.832,0.7973,0.7595,0.7228,0.6856,0.6637,0.6641,0.6651,0.6736,0.6989,0.7034,0.7109,0.7216,0.7272,0.7228,0.7275,0.7319,0.7363,0.7363,0.7363,0.7319,0.7305,0.7278,0.7257,0.7213,0.7163,0.7136,0.7017,0.7068,0.7041,0.7007,0.6741,0.6254,0.5849,0.5076,0.4237,0.3306,0.2882,0.2371,0.2153,0.1846,0.1778,0.1592,0.1548,0.1411,0.1284,0.1284,0.1328,0.1352,0.1382,0.1407,0.1425,0.134,0.1254,0.1026,0.0572,0.0216,-0.0129,-0.0469,-0.0917,-0.1347,-0.1829,-0.2384,-0.3193,-0.3806,-0.4388,-0.4683,-0.4916,-0.5116,-0.5192,-0.5276,-0.5385,-0.5568,-0.5777,-0.5904,-0.6005,-0.6116,-0.6214,-0.6226,-0.633,-0.6324,0.8172,0.8208,0.816,0.794,0.7547,0.7234,0.7227,0.7454,0.764,0.7969,0.846,0.8676,0.8825,0.8874,0.8924,0.8924,0.8928,0.8874,0.8874,0.8928,0.8928,0.8874,0.8874,0.8924,0.8977,0.8829,0.8878,0.8779,0.8482,0.868,0.868,0.868,0.8867,0.9037,0.9105,0.8718,0.8376,0.811,0.7567,0.7341,0.7215,0.7219,0.734,0.7394,0.7322,0.7302,0.7467,0.7415,0.7415,0.7503,0.7676,0.772,0.7764,0.7764,0.7764,0.7764,0.7631,0.7608,0.7547,0.7287,0.7207,0.7207,0.7241,0.7228,0.7143,0.6922,0.6745,0.6473,0.5833,0.5127,0.4422,0.3811,0.3338,0.294,0.2665,0.2293,0.2138,0.1779,0.1641,0.1346,0.1307,0.1308,0.1327,0.1349,0.1374,0.1389,0.139,0.1343,0.1248,0.1008,0.0601,0.0386,0.0128,-0.025,-0.0696,-0.0974,-0.1528,-0.2376,-0.3105,-0.3708,-0.4253,-0.4552,-0.4743,-0.4925,-0.5089,-0.5171,-0.5392,-0.5564,-0.5747,-0.5885,-0.6005,-0.6101,-0.6033,-0.6026,-0.6053,0.8296,0.8432,0.8292,0.8113,0.794,0.772,0.7668,0.7755,0.7998,0.8387,0.8886,0.9034,0.9179,0.9278,0.9274,0.9324,0.9324,0.9324,0.9324,0.9327,0.9274,0.9327,0.9327,0.9278,0.9327,0.9327,0.9327,0.913,0.8935,0.9031,0.9034,0.9084,0.9221,0.9408,0.9255,0.8954,0.8637,0.8219,0.7884,0.7645,0.7462,0.7525,0.7608,0.7675,0.7548,0.7585,0.772,0.7635,0.7639,0.7724,0.79,0.7944,0.7944,0.7944,0.7944,0.79,0.781,0.7818,0.7774,0.765,0.757,0.7552,0.753,0.758,0.7588,0.7588,0.7367,0.7064,0.6583,0.5949,0.5449,0.4942,0.4465,0.4065,0.3728,0.3174,0.2778,0.2263,0.19,0.1512,0.1326,0.1373,0.1403,0.1418,0.1441,0.1426,0.1421,0.1381,0.1335,0.1129,0.085,0.0728,0.0513,0.0209,-0.0123,-0.0406,-0.0879,-0.1687,-0.2405,-0.2976,-0.3507,-0.3975,-0.4226,-0.4332,-0.4682,-0.5003,-0.5272,-0.5545,-0.5673,-0.5791,-0.5923,-0.5952,-0.5857,-0.5849,-0.5889,0.8432,0.8572,0.8448,0.8423,0.8367,0.8055,0.7952,0.8095,0.8404,0.8827,0.914,0.9286,0.9434,0.9579,0.9624,0.9624,0.9624,0.9624,0.9575,0.9624,0.9624,0.9575,0.9575,0.9624,0.9525,0.9624,0.9579,0.943,0.9183,0.9286,0.9335,0.9381,0.9476,0.953,0.9421,0.92,0.9009,0.8673,0.8475,0.8265,0.8145,0.8129,0.8109,0.8061,0.7959,0.7919,0.7915,0.7896,0.7812,0.7988,0.8076,0.812,0.812,0.812,0.8124,0.812,0.8055,0.8009,0.7932,0.7993,0.797,0.8001,0.7983,0.7889,0.79,0.7812,0.768,0.7425,0.7197,0.677,0.6281,0.5806,0.56,0.5191,0.4754,0.4207,0.365,0.3188,0.2613,0.216,0.1734,0.1705,0.1527,0.1494,0.1466,0.1436,0.1407,0.1414,0.1419,0.1212,0.1106,0.0986,0.0858,0.0631,0.033,0.0081,-0.0437,-0.105,-0.1652,-0.228,-0.2636,-0.3048,-0.3378,-0.3775,-0.42,-0.4629,-0.5213,-0.5529,-0.5606,-0.5686,-0.5764,-0.5761,-0.5688,-0.5733,-0.5777,0.8616,0.8641,0.8751,0.8767,0.8701,0.8284,0.817,0.8395,0.8794,0.9114,0.9232,0.948,0.9579,0.9628,0.9624,0.9624,0.9624,0.9624,0.9624,0.9624,0.9624,0.9624,0.9624,0.9624,0.9624,0.9624,0.9579,0.948,0.9282,0.943,0.9529,0.9579,0.9579,0.96,0.9494,0.9417,0.9292,0.915,0.9003,0.8848,0.876,0.8866,0.8728,0.857,0.8444,0.8284,0.8219,0.816,0.816,0.8252,0.8432,0.8524,0.8568,0.8616,0.8568,0.8528,0.8363,0.8207,0.8139,0.8251,0.836,0.8408,0.8184,0.8051,0.8049,0.8143,0.8068,0.7867,0.7643,0.7279,0.6896,0.6749,0.6641,0.6239,0.5921,0.5368,0.4827,0.4237,0.3662,0.3134,0.2637,0.2329,0.1884,0.172,0.1633,0.1461,0.1433,0.1418,0.1416,0.1344,0.1242,0.1252,0.1119,0.0977,0.0749,0.0406,0.004,-0.058,-0.1022,-0.1535,-0.1882,-0.2204,-0.2579,-0.3028,-0.3678,-0.4263,-0.4831,-0.522,-0.5489,-0.5552,-0.5552,-0.5688,-0.5688,-0.5688,-0.5777,0.8616,0.8633,0.8751,0.8775,0.8807,0.8896,0.9005,0.9092,0.9244,0.936,0.948,0.9575,0.9624,0.9624,0.9624,0.9624,0.9624,0.9624,0.9624,0.9624,0.9624,0.9624,0.9624,0.9624,0.9624,0.9624,0.9579,0.9579,0.9529,0.9624,0.9624,0.9628,0.9624,0.9624,0.9608,0.9575,0.9474,0.9437,0.9311,0.9238,0.9161,0.9145,0.9019,0.886,0.8671,0.8522,0.8436,0.8312,0.8312,0.8488,0.8532,0.8616,0.8616,0.8616,0.8612,0.8608,0.8511,0.8463,0.8426,0.8502,0.862,0.8727,0.8628,0.8704,0.871,0.8651,0.8543,0.8306,0.8214,0.7948,0.7785,0.7689,0.7626,0.7472,0.7094,0.6571,0.5997,0.5425,0.4813,0.4038,0.3562,0.2904,0.2407,0.1957,0.1813,0.1633,0.1511,0.1582,0.1467,0.1441,0.1341,0.1352,0.1304,0.1118,0.0918,0.061,0.0276,-0.0077,-0.045,-0.0776,-0.1082,-0.1433,-0.1799,-0.2325,-0.2912,-0.3672,-0.4431,-0.4783,-0.4966,-0.5235,-0.5277,-0.5505,-0.5644,-0.5683,-0.5686,0.8616,0.8645,0.8828,0.9003,0.9169,0.9372,0.9462,0.9462,0.9466,0.9535,0.962,0.9624,0.9624,0.9624,0.9624,0.9624,0.9624,0.9624,0.9624,0.9624,0.9624,0.9624,0.9624,0.9624,0.9624,0.9624,0.9624,0.9628,0.9624,0.9624,0.9624,0.9624,0.9624,0.9624,0.962,0.9608,0.9567,0.9506,0.9449,0.9397,0.934,0.9279,0.9157,0.892,0.8742,0.8705,0.8617,0.8424,0.8524,0.869,0.8706,0.8824,0.8829,0.8833,0.8787,0.88,0.8796,0.8787,0.8775,0.8824,0.8881,0.8974,0.9023,0.9137,0.911,0.9071,0.8863,0.8679,0.8718,0.8756,0.8656,0.8646,0.8675,0.8704,0.8262,0.7822,0.7269,0.6668,0.5867,0.5047,0.4334,0.3639,0.3048,0.2541,0.2247,0.23,0.2311,0.2237,0.1966,0.1613,0.1461,0.1371,0.1319,0.122,0.1013,0.0858,0.0593,0.0382,0.0183,-0.0109,-0.0332,-0.0563,-0.084,-0.1464,-0.2187,-0.2915,-0.3599,-0.4016,-0.4336,-0.4594,-0.4938,-0.5208,-0.5432,-0.5664,-0.5672,0.8744,0.8773,0.9042,0.9418,0.9649,0.9661,0.9616,0.9624,0.9612,0.9624,0.9624,0.9624,0.9624,0.9624,0.9624,0.9624,0.9624,0.9624,0.9624,0.9624,0.9624,0.9624,0.9624,0.9624,0.9624,0.9624,0.9624,0.9624,0.9624,0.9624,0.9624,0.9624,0.9624,0.9624,0.9624,0.9624,0.9604,0.9587,0.9579,0.9559,0.9579,0.9559,0.947,0.9149,0.9031,0.8938,0.871,0.8698,0.8775,0.8877,0.8958,0.9047,0.9047,0.9043,0.9047,0.9047,0.9015,0.9011,0.9003,0.9003,0.9175,0.9286,0.9404,0.9397,0.938,0.9352,0.9136,0.9025,0.9104,0.9095,0.9024,0.9022,0.9038,0.9069,0.8775,0.8432,0.8082,0.7495,0.6857,0.6031,0.5363,0.4655,0.4125,0.3663,0.3319,0.3277,0.3253,0.3168,0.2691,0.217,0.1821,0.1623,0.1379,0.1321,0.1201,0.1037,0.0955,0.0764,0.0623,0.0469,0.0148,0.0113,0.0114,-0.0678,-0.1503,-0.1975,-0.256,-0.2978,-0.3471,-0.3873,-0.4308,-0.4854,-0.5176,-0.5318,-0.562,0.965,0.9692,0.9857,1.0057,1.0141,0.9969,0.9776,0.9624,0.9624,0.9624,0.9624,0.9624,0.9624,0.9624,0.9624,0.9624,0.9624,0.9624,0.9624,0.9624,0.9624,0.9624,0.9624,0.9624,0.9624,0.9624,0.9624,0.9624,0.9624,0.9624,0.9624,0.9624,0.9624,0.9624,0.9624,0.9624,0.9624,0.9624,0.9624,0.9624,0.9624,0.9579,0.947,0.9222,0.9076,0.8938,0.8771,0.8751,0.8808,0.8807,0.9007,0.9076,0.9092,0.9104,0.91,0.9096,0.9137,0.9149,0.9153,0.9169,0.9246,0.9363,0.9441,0.9482,0.9518,0.9457,0.9449,0.9405,0.9364,0.9339,0.9314,0.9349,0.9373,0.9327,0.9278,0.9031,0.8786,0.8245,0.7701,0.706,0.6372,0.578,0.5237,0.4841,0.4547,0.4443,0.4438,0.4254,0.3709,0.3207,0.2487,0.2176,0.1536,0.1378,0.1304,0.1232,0.1106,0.0983,0.0795,0.0673,0.063,0.0528,0.0385,-0.0203,-0.0845,-0.1167,-0.1496,-0.1917,-0.24,-0.2879,-0.3346,-0.3796,-0.4339,-0.4572,-0.5107,1.0598,1.0566,1.0668,1.0712,1.0702,1.0359,0.9974,0.9677,0.9624,0.9624,0.9624,0.9624,0.9624,0.9628,0.9624,0.9624,0.9624,0.9624,0.9624,0.9624,0.9624,0.9624,0.9624,0.9624,0.9624,0.9624,0.9624,0.9624,0.9624,0.9624,0.9624,0.9624,0.9624,0.9624,0.9624,0.9624,0.9624,0.9624,0.9624,0.9624,0.9624,0.9592,0.9502,0.9283,0.9208,0.9069,0.8978,0.8958,0.9035,0.9108,0.9259,0.9336,0.9364,0.9368,0.9352,0.9352,0.9356,0.9288,0.9324,0.9328,0.9356,0.9429,0.9522,0.9579,0.9587,0.9571,0.9571,0.9526,0.9526,0.9497,0.9497,0.9521,0.9525,0.9476,0.943,0.9282,0.8985,0.8517,0.8096,0.7651,0.7059,0.6562,0.6064,0.5765,0.5567,0.5518,0.5525,0.5275,0.4771,0.4235,0.3533,0.2766,0.2145,0.1588,0.1374,0.1304,0.1232,0.1101,0.0972,0.0955,0.0904,0.0802,0.0586,0.0205,0.0,-0.0043,-0.0394,-0.089,-0.1184,-0.1585,-0.2102,-0.2632,-0.3208,-0.3796,-0.4288,1.1537,1.1565,1.1546,1.1487,1.1293,1.0846,1.0314,0.992,0.9821,0.9875,0.992,0.992,0.9776,0.9628,0.9624,0.9624,0.9624,0.9624,0.9624,0.9624,0.9624,0.9624,0.9624,0.9624,0.9624,0.9624,0.9624,0.9624,0.9624,0.9624,0.9624,0.9624,0.9624,0.9624,0.9624,0.9624,0.9624,0.9624,0.9624,0.9624,0.9624,0.962,0.9502,0.9461,0.9392,0.931,0.9202,0.923,0.9375,0.9449,0.9458,0.9527,0.9555,0.9543,0.9559,0.9551,0.9543,0.9551,0.9571,0.9555,0.9579,0.9612,0.9624,0.9624,0.9624,0.9624,0.9624,0.9624,0.9624,0.9624,0.9624,0.9624,0.9624,0.9628,0.9579,0.9529,0.9183,0.8836,0.8485,0.8137,0.7736,0.7238,0.6989,0.6736,0.6587,0.6587,0.6437,0.6187,0.5869,0.528,0.4626,0.3666,0.2807,0.2257,0.1635,0.1372,0.1302,0.124,0.1145,0.1202,0.119,0.1051,0.0956,0.0909,0.0766,0.0606,0.0438,0.0044,-0.0217,-0.0551,-0.0993,-0.1569,-0.2142,-0.2723,-0.3299,1.2703,1.3072,1.2911,1.268,1.2387,1.1927,1.1389,1.0953,1.0904,1.0904,1.09,1.0801,1.0507,0.9624,0.9624,0.9677,0.9875,0.9772,0.9673,0.9624,0.9772,0.9723,0.9624,0.9673,0.9624,0.9624,0.9624,0.9624,0.9624,0.9624,0.9624,0.9624,0.9624,0.9624,0.9624,0.9624,0.9624,0.9624,0.9624,0.9624,0.9624,0.9596,0.9518,0.9433,0.94,0.929,0.919,0.9271,0.9375,0.9457,0.9518,0.96,0.9624,0.9624,0.9624,0.9624,0.9624,0.9624,0.9624,0.9624,0.9624,0.9624,0.9624,0.9624,0.9624,0.9624,0.9624,0.9624,0.9624,0.9624,0.9624,0.9624,0.9624,0.9624,0.9579,0.9579,0.943,0.9183,0.8935,0.8638,0.8386,0.8084,0.7935,0.7686,0.7487,0.7437,0.7437,0.7188,0.6739,0.6213,0.5693,0.463,0.3575,0.2655,0.1953,0.1532,0.136,0.1337,0.1284,0.1261,0.1255,0.1271,0.1223,0.1143,0.1033,0.0873,0.075,0.0713,0.0436,0.0086,-0.0088,-0.0487,-0.1036,-0.1588,-0.2144]}]]